[[{"header":{"parameterUnit":"m.s-1","parameterCategory":1,"la1":30.6,"la2":29.2853,"lo1":-89.7004,"lo2":-87.6739,"dy":0.0162,"dx":0.0183,"nx":112,"ny":82,"refTime":"2023-06-09T12:00:00:Z","depth":0,"parameterNumber":2,"parameterNumberName":"U-component_of_WINDS"},"data":[0.0,0.0,0.0,0.0,0.0,0.0,0.0,0.0,0.0,0.0,0.0,0.0,0.0,0.0,0.0,0.0,0.0,0.0,0.0,0.0,0.0,0.0,0.0,0.0,0.0,0.0,0.0,0.0,0.0,0.0,0.0,0.0,0.0,0.0,0.0,0.0,0.0,0.0,0.0,0.0,0.0,0.0,0.0,0.0,0.0,0.0,0.0,0.0,0.0,0.0,0.0,0.0,0.0,0.0,0.0,0.0,0.0,0.0,0.0,0.0,0.0,0.0,0.0,0.0,0.0,0.0,0.0,0.0,0.0,0.0,0.0,0.0,0.0,0.0,0.0,0.0,0.0,0.0,0.0,0.0,0.0,0.0,0.0,0.0,0.0,0.0,0.0,0.0,0.0,0.0,-0.2795,-0.2873,-0.3368,-0.3765,-0.4079,-0.4389,-0.4498,-0.4242,0.0,0.0,0.0,0.0,0.0,0.0,0.0,0.0,0.0,0.0,0.0,0.0,0.0,0.0,0.0,0.0,0.0,0.0,0.0,0.0,0.0,0.0,0.0,0.0,0.0,0.0,0.0,0.0,0.0,0.0,0.0,0.0,0.0,0.0,0.0,0.0,0.0,0.0,0.0,0.0,0.0,0.0,0.0,0.0,0.0,0.0,0.0,0.0,0.0,0.0,0.0,0.0,0.0,0.0,0.0,0.0,0.0,0.0,0.0,0.0,0.0,0.0,0.0,0.0,0.0,0.0,0.0,0.0,0.0,0.0,0.0,0.0,0.0,0.0,0.0,0.0,0.0,0.0,0.0,0.0,0.0,0.0,0.0,0.0,0.0,0.0,0.0,0.0,0.0,0.0,0.0,0.0,0.0,0.0,0.0,0.0,0.0,0.0,0.0,0.0,0.0,0.0,0.0,0.0,-0.2584,-0.2789,-0.3047,-0.3454,-0.4079,-0.4157,-0.4267,-0.4538,0.0,0.0,0.0,0.0,0.0,0.0,0.0,0.0,0.0,0.0,0.0,0.0,0.0,0.0,0.0,0.0,0.0,0.0,0.0,0.0,0.0,0.0,0.0,0.0,0.0,0.0,0.0,0.0,0.0,0.0,0.0,0.0,0.0,0.0,0.0,0.0,0.0,0.0,0.0,0.0,0.0,0.0,0.0,0.0,0.0,0.0,0.0,0.0,0.0,0.0,0.0,0.0,0.0,0.0,0.0,0.0,0.0,0.0,0.0,0.0,0.0,0.0,0.0,0.0,0.0,0.0,0.0,0.0,0.0,0.0,0.0,0.0,0.0,0.0,0.0,0.0,0.0,0.0,0.0,0.0,0.0,0.0,0.0,0.0,0.0,0.0,0.0,0.0,0.0,0.0,0.0,0.0,0.0,0.0,0.0,0.0,0.0,0.0,0.0,0.0,0.0,0.0,0.0,-0.2858,-0.3057,-0.3287,-0.353,-0.3845,-0.4389,-0.4389,-0.4523,-0.478,-0.5007,0.0,0.0,0.0,0.0,0.0,0.0,0.0,0.0,0.0,0.0,0.0,0.0,0.0,0.0,0.0,0.0,0.0,0.0,0.0,0.0,0.0,0.0,0.0,0.0,0.0,0.0,0.0,0.0,0.0,0.0,0.0,0.0,0.0,0.0,0.0,0.0,0.0,0.0,0.0,0.0,0.0,0.0,0.0,0.0,0.0,0.0,0.0,0.0,0.0,0.0,0.0,0.0,0.0,0.0,0.0,0.0,0.0,0.0,0.0,0.0,0.0,0.0,0.0,0.0,0.0,0.0,0.0,0.0,0.0,0.0,0.0,0.0,0.0,0.0,0.0,0.0,0.0,0.0,0.0,0.0,0.0,0.0,0.0,0.0,0.0,0.0,0.0,0.0,0.0,0.0,0.0,0.0,0.0,0.0,0.0,0.0,0.0,0.0,0.0,0.0,0.0,0.0,-0.3235,-0.3496,-0.3818,-0.4066,-0.4384,-0.4859,-0.4859,-0.5018,-0.5258,-0.5413,0.0,0.0,0.0,0.0,0.0,0.0,0.0,0.0,0.0,0.0,0.0,0.0,0.0,0.0,0.0,0.0,0.0,0.0,0.0,0.0,0.0,0.0,0.0,0.0,0.0,0.0,0.0,0.0,0.0,0.0,0.0,0.0,0.0,0.0,0.0,0.0,0.0,0.0,0.0,0.0,0.0,0.0,0.0,0.0,0.0,0.0,0.0,0.0,0.0,0.0,0.0,0.0,0.0,0.0,0.0,0.0,0.0,0.0,0.0,0.0,0.0,0.0,0.0,0.0,0.0,0.0,0.0,0.0,0.0,0.0,0.0,0.0,0.0,0.0,0.0,0.0,0.0,0.0,0.0,0.0,0.0,0.0,0.0,0.0,0.0,0.0,0.0,0.0,0.0,0.0,0.0,0.0,0.0,0.0,0.0,0.0,0.0,0.0,0.0,0.0,0.0,0.0,-0.3315,-0.367,-0.4008,-0.4264,-0.4677,-0.5261,-0.5344,-0.551,-0.601,-0.6007,0.0,0.0,0.0,0.0,0.0,0.0,0.0,0.0,0.0,0.0,0.0,0.0,0.0,0.0,0.0,0.0,0.0,0.0,0.0,0.0,0.0,0.0,0.0,0.0,0.0,0.0,0.0,0.0,0.0,0.0,0.0,0.0,0.0,0.0,0.0,0.0,0.0,0.0,0.0,0.0,0.0,0.0,0.0,0.0,0.0,0.0,0.0,0.0,0.0,0.0,0.0,0.0,0.0,0.0,0.0,0.0,0.0,0.0,0.0,0.0,0.0,0.0,0.0,0.0,0.0,0.0,0.0,0.0,0.0,0.0,0.0,0.0,0.0,0.0,0.0,0.0,0.0,0.0,0.0,0.0,0.0,0.0,0.0,0.0,0.0,0.0,0.0,0.0,0.0,0.0,0.0,0.0,0.0,0.0,0.0,0.0,0.0,0.0,0.0,0.0,0.0,0.0,-0.3702,-0.3995,-0.4281,-0.4367,-0.4615,-0.5199,-0.5199,-0.5368,-0.5788,0.0,0.0,0.0,0.0,0.0,0.0,0.0,0.0,0.0,0.0,0.0,0.0,0.0,0.0,0.0,0.0,0.0,0.0,0.0,0.0,0.0,0.0,0.0,0.0,0.0,0.0,0.0,0.0,0.0,0.0,0.0,0.0,0.0,0.0,0.0,0.0,0.0,0.0,0.0,0.0,0.0,0.0,0.0,0.0,0.0,0.0,0.0,0.0,0.0,0.0,0.0,0.0,0.0,0.0,0.0,0.0,0.0,0.0,0.0,0.0,0.0,0.0,0.0,0.0,0.0,0.0,0.0,0.0,0.0,0.0,0.0,0.0,0.0,0.0,0.0,0.0,0.0,0.0,0.0,0.0,0.0,0.0,0.0,0.0,0.0,0.0,0.0,0.0,0.0,0.0,0.0,0.0,0.0,0.0,0.0,0.0,0.0,0.0,0.0,0.0,0.0,0.0,-0.3896,-0.4206,-0.4511,-0.4794,-0.4796,-0.4967,-0.5477,-0.5477,-0.5732,-0.6081,0.0,0.0,0.0,0.0,0.0,0.0,0.0,0.0,0.0,0.0,0.0,0.0,0.0,0.0,0.0,0.0,0.0,0.0,0.0,0.0,0.0,0.0,0.0,0.0,0.0,0.0,0.0,0.0,0.0,0.0,0.0,0.0,0.0,0.0,0.0,0.0,0.0,0.0,0.0,0.0,0.0,0.0,0.0,0.0,0.0,0.0,0.0,0.0,0.0,0.0,0.0,0.0,0.0,0.0,0.0,0.0,0.0,0.0,0.0,0.0,0.0,0.0,0.0,0.0,0.0,0.0,0.0,0.0,0.0,0.0,0.0,0.0,0.0,0.0,0.0,0.0,0.0,0.0,0.0,0.0,0.0,0.0,0.0,0.0,0.0,0.0,0.0,0.0,0.0,0.0,0.0,0.0,0.0,0.0,0.0,0.0,0.0,0.0,0.0,0.0,0.0,0.0,-0.4502,-0.4776,-0.5075,-0.562,-0.5719,-0.5897,-0.6343,-0.6428,-0.6609,0.0,0.0,0.0,0.0,0.0,0.0,0.0,0.0,0.0,0.0,0.0,0.0,0.0,0.0,0.0,0.0,0.0,0.0,0.0,0.0,0.0,0.0,0.0,0.0,0.0,0.0,0.0,0.0,0.0,0.0,0.0,0.0,0.0,0.0,0.0,0.0,0.0,0.0,0.0,0.0,0.0,0.0,0.0,0.0,0.0,0.0,0.0,0.0,0.0,0.0,0.0,0.0,0.0,0.0,0.0,0.0,0.0,0.0,0.0,0.0,0.0,0.0,0.0,0.0,0.0,0.0,0.0,0.0,0.0,0.0,0.0,0.0,0.0,0.0,0.0,0.0,0.0,0.0,0.0,0.0,0.0,0.0,0.0,0.0,0.0,0.0,0.0,0.0,0.0,0.0,0.0,0.0,0.0,0.0,0.0,0.0,0.0,0.0,0.0,0.0,0.0,0.0,0.0,-0.4508,-0.5095,-0.5507,-0.5716,-0.5899,-0.608,-0.6343,-0.6428,-0.6694,-0.7312,0.0,0.0,0.0,0.0,0.0,0.0,0.0,0.0,0.0,0.0,0.0,0.0,0.0,0.0,0.0,0.0,0.0,0.0,0.0,0.0,0.0,0.0,0.0,0.0,0.0,0.0,0.0,0.0,0.0,0.0,0.0,0.0,0.0,0.0,0.0,0.0,0.0,0.0,0.0,0.0,0.0,0.0,0.0,0.0,0.0,0.0,0.0,0.0,0.0,0.0,0.0,0.0,0.0,0.0,0.0,0.0,0.0,0.0,0.0,0.0,0.0,0.0,0.0,0.0,0.0,0.0,0.0,0.0,0.0,0.0,0.0,0.0,0.0,0.0,0.0,0.0,0.0,0.0,0.0,0.0,0.0,0.0,0.0,0.0,0.0,0.0,0.0,0.0,0.0,0.0,0.0,0.0,0.0,0.0,0.0,0.0,0.0,0.0,0.0,0.0,0.0,0.0,-0.5095,-0.5633,-0.5975,-0.6155,-0.6382,-0.6593,-0.6681,-0.6863,-0.7134,-0.7681,0.0,0.0,0.0,0.0,0.0,0.0,0.0,0.0,0.0,0.0,0.0,0.0,0.0,0.0,0.0,0.0,0.0,0.0,0.0,0.0,0.0,0.0,0.0,0.0,0.0,0.0,0.0,0.0,0.0,0.0,0.0,0.0,0.0,0.0,0.0,0.0,0.0,0.0,0.0,0.0,0.0,0.0,0.0,0.0,0.0,0.0,0.0,0.0,0.0,0.0,0.0,0.0,0.0,0.0,0.0,0.0,0.0,0.0,0.0,0.0,0.0,0.0,0.0,0.0,0.0,0.0,0.0,0.0,0.0,0.0,0.0,0.0,0.0,0.0,0.0,0.0,0.0,0.0,0.0,0.0,0.0,0.0,0.0,0.0,0.0,0.0,0.0,0.0,0.0,0.0,0.0,0.0,0.0,0.0,0.0,0.0,0.0,0.0,0.0,0.0,0.0,0.0,-0.6028,-0.6312,-0.6569,-0.6939,-0.714,-0.7214,-0.7305,-0.749,-0.7775,-0.8063,0.0,0.0,0.0,0.0,0.0,0.0,0.0,0.0,0.0,0.0,0.0,0.0,0.0,0.0,0.0,0.0,0.0,0.0,0.0,0.0,0.0,0.0,0.0,0.0,0.0,0.0,0.0,0.0,0.0,0.0,0.0,0.0,0.0,0.0,0.0,0.0,0.0,0.0,0.0,0.0,0.0,0.0,0.0,0.0,0.0,0.0,0.0,0.0,0.0,0.0,0.0,0.0,0.0,0.0,0.0,0.0,0.0,0.0,0.0,0.0,-0.3615,-0.3335,0.0,0.0,0.0,0.0,0.0,0.0,0.0,0.0,0.0,0.0,0.0,0.0,0.0,0.0,0.0,0.0,0.0,0.0,0.0,0.0,0.0,0.0,0.0,0.0,0.0,0.0,0.0,0.0,0.0,0.0,0.0,0.0,0.0,0.0,0.0,0.0,0.0,0.0,0.0,0.0,-0.6377,-0.6777,-0.7076,-0.7169,-0.7389,-0.7597,-0.7782,-0.7875,-0.8157,-0.8816,-0.9003,0.0,0.0,0.0,0.0,0.0,0.0,0.0,0.0,0.0,0.0,0.0,0.0,0.0,0.0,0.0,0.0,0.0,0.0,0.0,0.0,0.0,0.0,0.0,0.0,0.0,0.0,0.0,0.0,0.0,0.0,0.0,0.0,0.0,0.0,0.0,0.0,0.0,0.0,0.0,0.0,0.0,0.0,0.0,0.0,0.0,0.0,0.0,0.0,0.0,0.0,0.0,0.0,0.0,0.0,0.0,0.0,0.0,0.0,0.0,-0.4163,-0.3998,0.0,0.0,0.0,0.0,0.0,0.0,0.0,0.0,0.0,0.0,0.0,0.0,0.0,0.0,0.0,0.0,0.0,0.0,0.0,0.0,0.0,0.0,0.0,0.0,0.0,0.0,0.0,0.0,0.0,0.0,0.0,0.0,0.0,0.0,0.0,0.0,0.0,0.0,0.0,0.0,-0.6926,-0.7178,-0.7413,-0.7505,-0.7763,-0.8,-0.819,-0.8675,-0.9156,-0.9544,-1.0018,0.0,0.0,0.0,0.0,0.0,0.0,0.0,0.0,0.0,0.0,0.0,0.0,0.0,0.0,0.0,0.0,0.0,0.0,0.0,0.0,0.0,0.0,0.0,0.0,0.0,0.0,0.0,0.0,0.0,0.0,0.0,0.0,0.0,0.0,0.0,0.0,0.0,0.0,0.0,0.0,0.0,0.0,0.0,0.0,0.0,0.0,0.0,0.0,0.0,0.0,0.0,0.0,0.0,-0.511,-0.5185,-0.5384,-0.5151,-0.505,-0.5127,-0.468,-0.4525,-0.4662,-0.4063,0.0,0.0,0.0,0.0,0.0,0.0,0.0,0.0,0.0,0.0,0.0,0.0,0.0,0.0,0.0,0.0,0.0,0.0,0.0,0.0,0.0,0.0,-0.4454,-0.412,-0.4265,-0.4661,-0.5747,0.0,0.0,0.0,0.0,0.0,0.0,0.0,0.0,0.0,0.0,0.0,-0.7662,-0.7681,-0.7758,-0.7945,-0.8255,-0.8531,-0.8531,-0.9327,-0.992,-0.992,-1.0806,-1.1389,0.0,0.0,0.0,0.0,0.0,0.0,0.0,0.0,0.0,0.0,0.0,0.0,0.0,0.0,0.0,0.0,0.0,0.0,0.0,0.0,0.0,0.0,0.0,0.0,0.0,0.0,0.0,0.0,0.0,0.0,0.0,0.0,-0.6108,-0.6108,0.0,0.0,0.0,0.0,0.0,0.0,0.0,0.0,0.0,0.0,0.0,0.0,0.0,-0.5604,-0.5803,-0.6162,-0.6238,-0.586,-0.6286,-0.6276,-0.5982,-0.5982,-0.5988,-0.6166,-0.5952,0.0,-0.4029,-0.4018,0.0,0.0,0.0,0.0,0.0,0.0,0.0,0.0,0.0,0.0,0.0,0.0,0.0,0.0,0.0,0.0,0.0,0.0,0.0,0.0,0.0,0.0,-0.4928,-0.6014,-0.6324,-0.6548,-0.7207,-0.5769,-0.4681,-0.541,-0.5624,-0.5665,0.0,0.0,0.0,0.0,0.0,0.0,-0.8171,-0.829,-0.84,-0.8594,-0.8711,-0.8829,-0.9034,-0.9232,-0.943,-0.9628,-1.0216,-1.0703,-1.0904,-1.1389,0.0,0.0,0.0,0.0,0.0,0.0,0.0,0.0,0.0,0.0,0.0,0.0,0.0,0.0,0.0,0.0,0.0,0.0,0.0,0.0,0.0,0.0,0.0,0.0,0.0,0.0,0.0,0.0,0.0,-0.6771,-0.6587,-0.6752,-0.6552,-0.6384,0.0,0.0,0.0,0.0,0.0,0.0,0.0,0.0,0.0,-0.6757,-0.6689,-0.6691,-0.6763,-0.709,-0.7055,-0.6725,-0.6874,-0.6867,-0.6685,-0.661,-0.6531,-0.6427,-0.6344,-0.5709,-0.4718,-0.4898,-0.4838,-0.4634,0.0,0.0,0.0,0.0,-0.3364,-0.3201,-0.3495,-0.3766,-0.3935,-0.3766,0.0,0.0,0.0,0.0,0.0,0.0,0.0,-0.5225,-0.5179,-0.5329,-0.5665,-0.5988,-0.6185,-0.6386,-0.6735,-0.6278,-0.5937,-0.6366,-0.681,-0.7165,-0.7321,-0.7446,0.0,0.0,0.0,-0.8329,-0.8832,-0.873,-0.8627,-0.8825,-0.8928,-0.9229,-0.9628,-1.0019,-1.0507,-1.09,-1.1487,-1.1785,-1.1883,-1.2175,-1.237,0.0,0.0,0.0,0.0,0.0,0.0,0.0,0.0,0.0,0.0,0.0,0.0,0.0,0.0,0.0,0.0,0.0,0.0,0.0,0.0,0.0,0.0,0.0,0.0,0.0,0.0,0.0,0.0,-0.7138,-0.7008,-0.7073,-0.6956,-0.6845,0.0,0.0,0.0,0.0,0.0,0.0,-0.7153,-0.7006,-0.7125,-0.7454,-0.7576,-0.7663,-0.771,-0.7844,-0.7804,-0.7494,-0.7374,-0.7272,-0.7228,-0.7031,-0.6776,-0.6609,-0.6646,-0.6394,-0.5936,-0.5717,-0.5625,-0.554,-0.5114,-0.4777,-0.4437,-0.4272,-0.3929,-0.3679,-0.4004,-0.4287,-0.4461,-0.4289,-0.444,-0.4687,-0.4374,0.0,0.0,0.0,0.0,-0.6138,-0.5855,-0.6015,-0.6189,-0.6024,-0.6119,-0.6415,-0.6646,-0.713,-0.7498,-0.7367,-0.7832,-0.8304,-0.8441,-0.8448,0.0,-0.9327,-0.9027,-0.8928,-0.9133,-0.913,-0.9122,-0.9221,-0.9426,-0.9628,-1.0117,-1.0609,-1.1194,-1.159,-1.2273,-1.2667,-1.2667,-1.2861,-1.3055,-1.3055,0.0,0.0,0.0,0.0,0.0,0.0,0.0,0.0,0.0,0.0,0.0,0.0,0.0,0.0,0.0,0.0,0.0,0.0,0.0,0.0,0.0,0.0,0.0,0.0,0.0,0.0,0.0,0.0,0.0,-0.6685,-0.7038,0.0,0.0,0.0,0.0,-0.718,-0.7007,-0.7161,-0.7736,-0.7342,-0.7407,-0.8239,-0.8256,-0.8349,-0.8524,-0.8536,-0.8452,-0.8185,-0.7918,-0.7749,-0.7507,-0.7224,-0.7044,-0.7061,-0.7295,-0.736,-0.7164,-0.5939,-0.5262,-0.4994,-0.4723,-0.4634,-0.4723,-0.4634,-0.4634,-0.4545,-0.4821,-0.5092,-0.5364,-0.5364,-0.5167,-0.5087,-0.5277,-0.531,0.0,0.0,-0.5784,-0.5884,-0.6075,-0.6178,-0.6401,-0.7196,-0.7421,-0.7553,-0.7888,-0.8513,-0.8864,-0.8025,-0.8097,-0.8437,-0.8685,0.0,-0.8825,-0.8825,-0.8825,-0.8928,-0.9133,-0.9628,-1.0019,-1.031,-1.0314,-1.0314,-1.0413,-1.0413,-1.0413,-1.0511,-1.1683,-1.2467,-1.2467,-1.3055,-1.3539,-1.3835,-1.3636,0.0,0.0,0.0,0.0,0.0,0.0,0.0,0.0,0.0,0.0,0.0,0.0,0.0,0.0,0.0,0.0,0.0,0.0,0.0,0.0,0.0,0.0,0.0,0.0,0.0,0.0,0.0,0.0,-0.753,-0.7427,0.0,-0.734,-0.7644,-0.7701,-0.7507,-0.769,-0.7812,-0.7927,-0.7871,-0.7935,-0.8109,-0.8227,-0.8321,-0.839,-0.8507,-0.8533,-0.8372,-0.8282,-0.8159,-0.7805,-0.771,-0.7618,-0.7438,-0.7495,-0.7519,-0.7516,-0.6996,-0.679,-0.6602,-0.6412,-0.6135,-0.5858,-0.5676,-0.5488,-0.5208,-0.5301,-0.5395,-0.5488,-0.5583,-0.5611,-0.5558,-0.5884,-0.6089,-0.6369,-0.6464,-0.6804,-0.7155,-0.7158,-0.7324,-0.7504,-0.7946,-0.8252,-0.8364,-0.8517,-0.9031,-0.9312,-0.8856,-0.8943,-0.9155,-0.9316,-0.913,-0.913,-0.9521,-0.9426,-0.9327,-0.943,-0.9628,-0.992,-1.0314,-1.0413,-1.0703,-1.1389,-1.1585,-1.178,-1.2073,-1.2759,-1.3152,-1.3152,-1.3346,-1.3539,-1.3636,-1.3738,-1.4007,0.0,0.0,0.0,0.0,0.0,0.0,0.0,0.0,0.0,0.0,0.0,0.0,0.0,0.0,0.0,0.0,0.0,0.0,0.0,0.0,0.0,0.0,0.0,0.0,0.0,0.0,-0.7829,-0.8185,-0.7841,-0.7625,-0.7761,-0.7902,-0.7959,-0.7847,-0.8046,-0.817,-0.8109,-0.8223,-0.8264,-0.8203,-0.8373,-0.8467,-0.8297,-0.8561,-0.8529,-0.8455,-0.8364,-0.8147,-0.7969,-0.7875,-0.7785,-0.7604,-0.7651,-0.7672,-0.7675,-0.7726,-0.7746,-0.774,-0.7442,-0.712,-0.6838,-0.6747,-0.6461,-0.6172,-0.6172,-0.6172,-0.6181,-0.6222,-0.6233,-0.6244,-0.648,-0.6783,-0.7071,-0.7267,-0.7621,-0.7983,-0.7983,-0.8058,-0.8237,-0.8432,-0.8627,-0.8726,-0.8825,-0.913,-0.943,-0.9236,-0.943,-0.9628,-0.9628,-0.943,-0.9549,-1.0203,-0.9863,-0.9768,-1.0292,-1.0349,-1.0406,-1.1001,-1.116,-1.1572,-1.2195,-1.2553,-1.2897,-1.3193,-1.3613,-1.3762,-1.3762,-1.3866,-1.3963,-1.4054,-1.4249,-1.4527,-1.4789,0.0,0.0,0.0,0.0,0.0,0.0,0.0,0.0,0.0,0.0,0.0,0.0,0.0,0.0,0.0,0.0,0.0,0.0,0.0,0.0,0.0,0.0,0.0,-0.9969,-0.9266,-0.8638,-0.8392,-0.8313,-0.8131,-0.7797,-0.8102,-0.8219,-0.8044,-0.8028,-0.8109,-0.8296,-0.8308,-0.8394,-0.8576,-0.8743,-0.8647,-0.8378,-0.8629,-0.8617,-0.8344,-0.8067,-0.7882,-0.7889,-0.7705,-0.7614,-0.7621,-0.7756,-0.7818,-0.7831,-0.7977,-0.8038,-0.8011,-0.7726,-0.7614,-0.7614,-0.7614,-0.7614,-0.7614,-0.7614,-0.7614,-0.754,-0.7193,-0.704,-0.7064,-0.7195,-0.7238,-0.7338,-0.7839,-0.8237,-0.8432,-0.8432,-0.8432,-0.8432,-0.8726,-0.8627,-0.8531,-0.8726,-0.9034,-0.924,-0.924,-0.9438,-0.9632,-0.9628,-0.9628,-0.9884,-1.0663,-1.0137,0.0,-1.1658,-1.1624,-1.1692,-1.2299,-1.2801,-1.3057,-1.2836,-1.3217,-1.3545,-1.3545,-1.4036,-1.4301,-1.4301,-1.4511,-1.4813,-1.5103,-1.5115,-1.5115,-1.5115,0.0,0.0,0.0,0.0,0.0,0.0,0.0,0.0,0.0,0.0,0.0,0.0,0.0,0.0,0.0,0.0,0.0,0.0,0.0,0.0,0.0,0.0,-1.0696,-0.9727,-0.9085,-0.8517,-0.8183,-0.8111,-0.8122,-0.8123,-0.826,-0.8325,-0.841,-0.8418,-0.8491,-0.8666,-0.8674,-0.8759,-0.8946,-0.8999,-0.9023,-0.893,-0.878,-0.8773,-0.8806,-0.8523,-0.839,-0.8304,-0.8206,-0.8112,-0.7919,-0.796,-0.7977,-0.798,-0.8021,-0.8038,-0.8031,-0.795,-0.7919,-0.7919,-0.7919,-0.7919,-0.7919,-0.7919,-0.7919,-0.7825,-0.7766,-0.7677,-0.7684,-0.7726,-0.7739,-0.7839,-0.8237,-0.8333,-0.8432,-0.8627,-0.8528,-0.8531,-0.8935,-0.8928,-0.8825,-0.9327,-0.9526,-0.9714,-0.9714,-0.9815,-0.9774,-0.9648,-0.9628,-0.9685,-1.0062,-1.0137,-1.0501,-1.1249,-1.1635,-1.2104,-1.2799,-1.3212,-1.3529,-1.3875,-1.3976,-1.4113,-1.4113,-1.4264,-1.431,-1.431,-1.4606,-1.4805,-1.5093,-1.5491,-1.5692,0.0,0.0,0.0,0.0,0.0,0.0,0.0,0.0,0.0,0.0,0.0,0.0,0.0,0.0,0.0,0.0,0.0,0.0,0.0,0.0,0.0,0.0,-1.194,-1.1303,-1.0325,-0.9761,-0.9294,-0.8875,-0.8615,-0.8539,-0.8394,-0.8406,-0.8479,-0.8662,-0.8674,-0.8751,-0.8926,-0.8934,-0.8986,-0.9092,-0.9169,-0.9206,-0.9017,-0.8989,-0.8883,-0.8882,-0.8784,-0.8641,-0.8528,-0.8432,-0.8333,-0.8137,-0.8038,-0.8038,-0.8038,-0.8038,-0.8038,-0.8038,0.0,0.0,0.0,0.0,-0.8038,-0.8038,-0.8038,-0.8038,-0.8041,-0.8137,-0.8137,-0.8237,-0.8333,-0.8333,-0.8333,-0.8531,-0.863,-0.8733,-0.8928,-0.8832,-0.8832,-0.9232,-0.913,-0.913,-0.9525,-0.9705,-0.9778,-0.9778,-1.0075,0.0,-1.0134,-0.9821,-0.9884,-1.0663,-1.0697,-1.123,-1.2434,-1.2679,-1.3093,-1.3716,-1.4138,-1.4446,-1.4653,-1.4818,0.0,0.0,0.0,-1.4799,-1.4799,-1.5062,0.0,0.0,0.0,-1.5762,-1.5548,-1.5741,0.0,0.0,-1.5545,-1.5576,0.0,0.0,0.0,0.0,0.0,0.0,0.0,0.0,0.0,0.0,0.0,0.0,0.0,0.0,0.0,0.0,-1.2028,-1.1769,-1.1466,-1.1064,-1.06,-0.9931,-0.9497,-0.9087,-0.8656,-0.8584,-0.8658,-0.8808,-0.884,-0.893,-0.9116,-0.9129,0.0,0.0,0.0,-0.9292,-0.9099,-0.9174,-0.916,-0.8855,-0.887,-0.887,-0.8855,-0.8556,-0.845,-0.8432,-0.8237,-0.8137,-0.8137,-0.8137,-0.8038,-0.8038,-0.8038,-0.8038,-0.8038,-0.8038,-0.8038,-0.8038,-0.8038,0.0,0.0,-0.8333,-0.8432,-0.8531,-0.8726,-0.8825,-0.8825,-0.8825,-0.9031,-0.9236,-0.9236,-0.9236,-0.9331,-0.9628,-0.943,-0.9335,-0.9628,-0.9743,-0.9764,-0.988,-1.0479,-1.0978,-1.1001,-1.0371,-1.041,-1.1802,-1.163,-1.2186,-1.4289,-1.4234,-1.4228,-1.4775,-1.5217,0.0,-1.5246,-1.5623,-1.5843,-1.5843,-1.5602,-1.5469,-1.5499,-1.5713,-1.5725,-1.5541,-1.5756,-1.564,-1.5197,-1.5167,-1.5155,-1.5149,-1.5626,-1.5595,0.0,0.0,0.0,0.0,0.0,0.0,0.0,0.0,0.0,0.0,0.0,0.0,0.0,0.0,0.0,-1.2584,-1.2541,-1.2474,-1.2437,-1.2231,-1.1434,-0.9634,-0.8978,-0.874,-0.8568,-0.869,-0.8783,-0.882,-0.8958,-0.912,-0.9295,-0.9303,-0.9372,-0.9518,-0.9559,-0.9575,-0.9477,-0.9449,-0.9435,-0.9334,-0.9271,0.0,-0.903,-0.903,-0.8855,-0.8726,-0.8627,-0.8627,-0.8627,-0.8627,-0.8531,-0.8333,-0.8038,-0.8038,-0.8038,-0.8038,-0.8038,-0.8038,-0.8038,-0.8137,-0.8333,-0.8432,-0.8528,-0.8726,-0.8825,-0.8928,0.0,-0.9133,-0.943,-0.9821,-0.9529,-0.9529,-0.9628,-0.9826,-0.9727,-0.9628,-1.0117,-1.0341,-1.0698,-1.1364,-1.1597,-1.1859,-1.2437,-1.2176,-1.2013,-1.2424,-1.2766,-1.3388,-1.4206,-1.4659,-1.4966,-1.5291,-1.5635,-1.5767,-1.5713,-1.5662,-1.5572,-1.5572,-1.533,-1.5276,-1.5487,-1.5499,-1.5596,-1.5807,-1.5925,-1.5895,-1.5734,-1.5523,-1.5421,-1.5421,-1.5305,-1.5293,0.0,0.0,0.0,0.0,0.0,0.0,0.0,0.0,0.0,0.0,0.0,-1.228,0.0,0.0,-1.2548,-1.2681,-1.2705,-1.2619,-1.2534,-1.2277,-1.1585,-1.0467,-1.0038,-0.9689,-0.9345,-0.9168,-0.9123,-0.9309,-0.9136,-0.9214,-0.9478,-0.949,-0.9571,-0.975,-0.9758,-0.9803,-0.9896,-0.9879,-0.982,-0.982,-0.9808,-0.97,-0.9614,-0.9515,-0.9362,-0.9274,-0.909,-0.8952,-0.8944,-0.8858,-0.8726,-0.8627,-0.8432,-0.8333,-0.8237,-0.8333,-0.8432,-0.8432,-0.8432,-0.8535,-0.8832,-0.8931,-0.9225,-0.9422,-0.9517,-0.9719,-0.9826,-0.9826,-1.0019,-1.0216,-1.0019,-1.0019,-1.0019,-1.0216,-1.0314,-1.0533,-1.0929,-1.1334,-1.1673,-1.2289,-1.2638,-1.2982,-1.3408,-1.3745,-1.376,-1.3346,-1.3653,-1.409,-1.4746,-1.5188,-1.5587,-1.5692,-1.5813,-1.5891,-1.5891,-1.5771,-1.5692,-1.5692,-1.5572,-1.5559,-1.5686,-1.5692,-1.5759,-1.5885,-1.5891,-1.5891,-1.5891,-1.5759,-1.5692,-1.5692,-1.5664,-1.5536,0.0,0.0,0.0,0.0,0.0,0.0,0.0,0.0,-1.2643,-1.2502,-1.264,-1.2791,-1.2753,-1.279,-1.279,-1.2705,-1.2705,-1.2619,-1.2448,-1.21,-1.178,-1.1651,-1.1094,-1.0482,-0.9832,-0.9433,-0.9427,-0.9677,-0.9366,-0.934,-0.9661,-0.9677,-0.9758,-0.9933,-0.9937,-1.001,-1.016,-1.0197,-1.0213,-1.0213,-1.0249,-1.0245,-1.0213,-1.0007,-0.9882,-0.9843,-0.9457,-0.9263,-0.9225,-0.9114,-0.9072,-0.8977,-0.9107,-0.8922,-0.8718,-0.8748,-0.8825,-0.8928,-0.8928,-0.913,-0.9438,-0.9665,-0.9875,-1.0181,-1.0414,-1.0622,-1.0721,-1.0721,-1.0821,-1.1015,-1.0915,-1.092,-1.0915,-1.0915,-1.1316,-1.1657,-1.1927,-1.2264,-1.2734,-1.3064,-1.3626,-1.4156,-1.431,-1.5012,-1.5273,-1.4384,-1.4458,-1.4826,-1.5467,-1.5759,-1.5891,-1.5891,-1.5891,-1.5891,-1.5891,-1.5891,-1.5891,-1.5891,-1.5891,-1.5891,-1.5891,-1.5891,-1.5891,-1.5891,-1.5998,-1.5998,-1.5998,-1.5992,-1.6099,-1.6099,-1.6318,-1.5983,-1.5759,-1.499,-1.4268,-1.3973,-1.375,-1.3415,0.0,0.0,-1.3181,-1.329,-1.3262,-1.3269,-1.313,-1.3052,-1.2966,-1.2705,-1.2705,-1.2705,-1.2705,-1.2619,-1.2623,-1.261,-1.0942,-0.9583,-0.8955,-0.9029,-0.921,-0.9407,-0.9474,-0.9652,-0.9847,-0.9855,-0.9941,-1.0128,-1.0132,-1.014,-1.016,-1.0322,-1.0404,-1.0404,-1.0558,-1.0554,-1.0404,-1.0297,-1.0314,-1.0152,-0.9863,-0.9698,-0.9569,-1.0,-0.9855,-0.9466,-1.0137,-1.0099,-0.9546,-0.9033,-0.8928,-0.9133,-0.9133,-0.9529,-0.9949,-1.0104,-1.0365,-1.0712,-1.0874,-1.1442,-1.2064,-1.1756,-1.2464,-1.3067,-1.2659,-1.2659,-1.2868,-1.2868,-1.297,-1.3078,-1.3201,-1.3308,-1.3588,-1.4348,-1.4503,-1.4891,-1.5547,-1.5825,-1.5759,-1.5389,-1.5569,-1.5737,-1.5843,-1.5867,-1.5891,-1.5891,-1.5891,-1.5891,-1.5891,-1.5891,-1.5891,-1.5891,-1.5891,-1.5891,-1.5891,-1.5891,-1.5891,-1.5891,-1.6105,-1.6217,-1.6217,-1.6524,-1.6624,-1.6624,-1.663,-1.6493,-1.5646,-1.5262,-1.4943,0.0,-1.3811,-1.351,-1.3535,-1.3477,-1.3342,-1.3366,-1.3398,-1.3398,-1.3483,-1.3313,-1.3307,0.0,-1.33,-1.3137,-1.3307,-1.336,-1.315,-1.2651,-1.1982,-1.1415,-1.1156,-1.0977,-1.0934,-1.1138,-1.0586,-1.0349,-1.0423,-1.044,-1.0284,-1.0156,-1.0468,-1.0573,-1.0469,-1.0546,-1.0586,-1.0586,-1.066,-1.0655,-1.0586,-1.0586,-1.0489,-1.0318,-1.0237,-1.0103,-0.9945,-1.0117,-1.0149,-0.9951,-1.0236,-1.0369,-1.0248,-0.9989,-0.9933,-1.0039,-1.0141,-1.0751,-1.1374,-1.1453,-1.1889,-1.2312,-1.2402,-1.2735,-1.2946,-1.2843,-1.3146,-1.3453,-1.3249,-1.3249,-1.3351,-1.3351,-1.3658,-1.3907,-1.4149,-1.4389,-1.4781,-1.5352,-1.5399,-1.5541,-1.5867,-1.5891,-1.5855,-1.5741,-1.5819,-1.5891,-1.5891,-1.5891,-1.5891,-1.5891,-1.5891,-1.5891,-1.5891,-1.603,-1.6115,-1.6115,-1.6115,-1.6229,-1.6337,-1.6229,-1.6229,-1.6337,-1.6502,-1.6582,-1.6582,-1.6691,-1.6795,-1.7007,-1.7123,-1.7232,-1.611,-1.5866,0.0,-1.4741,-1.4075,-1.3815,-1.3899,-1.3899,-1.373,-1.373,-1.373,-1.3815,-1.3899,-1.3737,-1.3646,-1.3977,-1.3646,-1.3483,-1.3652,-1.3719,-1.3567,-1.3105,-1.3254,-1.3451,-1.3442,-1.2553,-1.205,-1.2284,-1.1643,-1.118,-1.0883,-1.0927,-1.0724,-1.0233,-1.0594,-1.0749,-1.0688,-1.0692,-1.0692,-1.0692,-1.0692,-1.0692,-1.0692,-1.0692,-1.0599,-1.0543,-1.0543,-1.0437,-1.0373,-1.0527,-1.0447,-1.0451,-1.0501,-1.0729,-1.1045,-1.1151,-1.1081,-1.0889,-1.0988,-1.1714,-1.2452,-1.2511,-1.3044,-1.367,-1.3631,-1.3756,-1.386,-1.386,-1.4062,-1.4166,-1.4166,-1.4166,-1.4166,-1.4166,-1.4482,-1.4746,-1.503,-1.5392,-1.5662,-1.5855,-1.5891,-1.5891,-1.5891,-1.5891,-1.5891,-1.5891,-1.5952,-1.597,-1.5897,-1.5891,-1.5922,-1.5988,-1.6,-1.603,-1.6109,-1.6284,-1.6398,-1.6398,-1.6398,-1.6508,-1.6735,-1.6618,-1.6618,-1.6838,-1.7043,-1.7148,-1.7148,-1.7148,-1.7365,-1.7805,-1.8033,-1.8366,-1.7529,0.0,-1.6221,-1.556,-1.4985,-1.465,-1.465,-1.465,-1.465,-1.465,-1.465,-1.4566,-1.4398,-1.4243,-1.4004,-1.3737,-1.3561,-1.3483,-1.3652,-1.3719,-1.3995,-1.4449,-1.4643,-1.474,0.0,-1.2992,-1.1818,-1.195,-1.2173,-1.1993,-1.1185,-1.1458,-1.1256,-1.0424,-1.0586,-1.068,-1.0692,-1.0692,-1.0692,-1.0692,-1.0692,-1.0692,-1.0692,-1.0692,-1.0816,-1.0864,-1.0864,-1.0966,-1.1006,-1.1199,-1.1065,-1.0873,-1.1372,-1.1769,-1.1987,-1.2639,-1.2167,-1.1403,-1.1403,-1.1921,-1.2683,-1.2895,-1.3388,-1.3963,-1.4078,-1.4578,-1.4905,-1.4905,-1.5334,-1.5867,-1.5867,-1.5867,-1.5867,-1.5867,-1.5867,-1.5867,-1.5873,-1.5879,-1.5879,-1.5891,-1.5891,-1.5891,-1.5891,-1.5891,-1.5891,-1.5891,-1.6103,-1.6175,-1.5922,-1.5891,-1.5988,-1.6241,-1.6266,-1.638,-1.6652,-1.6682,-1.6688,-1.6688,-1.6688,-1.6688,-1.6688,-1.7018,-1.7129,-1.7235,-1.7805,-1.8033,-1.8033,-1.8373,-1.8705,-1.9353,-1.9353,-1.9676,-1.7367,0.0,-1.5974,-1.5151,-1.4817,-1.4734,-1.4734,-1.4734,-1.4734,-1.4734,-1.4734,-1.4734,-1.4824,-1.4657,-1.458,-1.4748,-1.4405,-1.4304,-1.4857,-1.471,-1.4738,-1.5119,-1.5219,0.0,0.0,0.0,0.0,-1.3811,-1.3363,-1.2899,-1.2704,-1.2782,-1.2601,-1.212,-1.251,-1.2612,-1.2422,-1.2427,-1.2427,-1.2427,-1.2427,-1.2427,-1.2427,-1.2427,-1.2497,-1.2543,-1.2543,-1.25,-1.2544,-1.2617,-1.2543,-1.2548,-1.262,-1.2861,-1.3186,-1.3408,-1.3311,-1.329,-1.329,-1.372,-1.4267,-1.4349,-1.4697,-1.524,-1.5328,-1.5464,-1.5571,-1.5571,-1.5785,-1.5891,-1.5891,-1.5891,-1.5891,-1.5891,-1.5891,-1.5891,-1.5891,-1.5891,-1.5891,-1.5891,-1.5891,-1.5946,-1.6115,-1.6151,-1.6211,-1.6398,-1.6193,-1.6121,-1.6392,-1.6266,-1.6254,-1.6531,-1.6561,-1.6709,-1.7024,-1.719,-1.7408,-1.7528,-1.7528,-1.7635,-1.7855,-1.7748,-1.7862,-1.7968,-1.8604,-1.8924,-1.8924,-1.9394,-1.9849,-2.0295,-2.0295,-2.0627,-1.7683,-1.7033,-1.6378,-1.5477,-1.5159,-1.4908,-1.4908,-1.4908,-1.4908,-1.4908,-1.4908,-1.4999,-1.5173,-1.4999,-1.4951,-1.5408,-1.4993,-1.4928,-1.5684,-1.5473,-1.5372,-1.5647,-1.5745,-1.5704,0.0,0.0,0.0,-1.47,-1.4433,-1.409,-1.3706,-1.389,-1.3728,-1.3172,-1.3471,-1.3474,-1.329,-1.329,-1.329,-1.329,-1.329,-1.329,-1.329,-1.329,-1.3398,-1.3398,-1.3398,-1.3511,-1.3619,-1.3506,-1.3398,-1.3398,-1.3398,-1.3727,-1.4056,-1.4164,-1.4487,-1.4708,-1.4385,-1.46,-1.5041,-1.5041,-1.5464,-1.5891,-1.5891,-1.5891,-1.5891,-1.5891,-1.5891,-1.5891,-1.5891,-1.5891,-1.5891,-1.5891,-1.5891,-1.5891,-1.5891,-1.5891,-1.5922,-1.6018,-1.6144,-1.6337,-1.66,-1.6649,-1.6858,-1.7135,-1.6796,-1.663,-1.6875,-1.6765,-1.687,-1.7147,-1.7178,-1.7328,-1.7648,-1.7817,-1.7918,-1.8154,-1.8154,-1.8263,-1.8371,-1.8378,-1.8378,-1.8601,-1.9347,-1.9788,-1.9788,-2.0601,-2.1067,-2.1288,-2.1288,-2.1631,-1.8496,-1.7853,-1.7277,-1.6558,-1.5914,-1.5431,-1.5431,-1.5431,-1.5431,-1.5431,-1.5431,-1.5431,0.0,0.0,-1.5197,-1.5598,-1.5382,-1.5409,-1.6006,-1.5868,-1.5872,0.0,0.0,0.0,0.0,0.0,0.0,-1.4827,0.0,-1.5369,-1.412,-1.47,-1.4674,-1.3714,-1.35,-1.3398,-1.3398,-1.3398,-1.3398,-1.3398,-1.3398,-1.3398,-1.3398,-1.3398,-1.3614,-1.3835,-1.3835,-1.3943,-1.4277,-1.3943,-1.3835,-1.3835,-1.3835,-1.4164,-1.4713,-1.4928,-1.5464,-1.5785,-1.4702,-1.46,-1.5035,-1.5035,-1.5464,-1.5891,-1.5891,-1.5891,-1.5891,-1.5891,-1.5891,-1.5891,-1.5891,-1.5891,-1.5891,-1.5891,-1.5891,-1.5897,-1.6016,-1.6016,-1.6101,-1.6387,-1.6661,-1.6967,-1.7229,-1.7397,-1.7728,-1.7989,-1.7804,-1.7521,-1.7291,-1.7508,-1.7722,-1.8002,-1.8027,-1.8135,-1.8396,-1.8415,-1.8538,-1.8538,-1.8532,-1.8532,-1.8532,-1.8881,-1.8991,-1.8991,-2.0141,-2.0831,-2.0831,-2.1737,-2.2312,-2.2554,-2.2554,-2.2901,-1.8336,-1.7853,-1.7277,-1.6558,-1.6229,-1.5989,-1.5506,-1.5431,-1.5431,-1.5431,-1.5431,-1.5431,0.0,0.0,0.0,-1.5777,-1.5648,0.0,-1.6562,-1.6183,0.0,-1.6736,0.0,-1.637,-1.6579,-1.6377,0.0,0.0,-1.5614,-1.5556,-1.5388,-1.5778,-1.5959,-1.587,-1.5636,-1.5565,-1.5565,-1.5345,-1.5238,-1.5238,-1.5238,-1.5238,-1.5238,-1.5238,-1.5238,-1.5345,-1.5345,-1.5351,-1.5458,-1.5351,-1.5345,-1.5345,-1.5345,-1.5458,-1.5571,-1.5678,-1.5785,-1.5891,-1.5565,-1.5571,-1.5678,-1.5678,-1.5785,-1.5891,-1.5891,-1.5891,-1.5891,-1.5891,-1.5891,-1.5891,-1.5891,-1.5891,-1.5998,-1.6111,-1.5998,-1.616,-1.701,-1.7054,-1.7028,-1.754,-1.7534,-1.7472,-1.7774,-1.7849,-1.8012,-1.8307,-1.8481,-1.8436,-1.809,-1.8027,-1.8008,-1.8288,-1.8313,-1.8577,-1.9345,-1.9468,-1.9693,-2.0486,-2.0486,-2.0486,-2.0486,-2.0601,-2.0709,-2.0931,-2.1638,-2.2199,-2.241,-2.3111,-2.3352,-2.3247,-2.3247,-2.3472,-1.8665,-1.8175,-1.7448,-1.696,-1.6632,-1.6229,-1.5665,-1.5499,-1.5582,-1.5673,-1.559,0.0,-1.569,-1.5635,0.0,0.0,0.0,0.0,-1.6996,-1.6615,-1.6507,0.0,-1.6677,0.0,-1.6676,-1.6474,-1.6273,0.0,-1.6091,-1.6043,-1.6105,-1.6497,-1.6787,-1.6948,-1.6636,-1.6424,-1.6324,-1.5998,-1.5891,-1.5891,-1.5891,-1.5891,-1.5891,-1.5998,-1.6111,-1.6111,-1.6111,-1.6105,-1.6205,-1.6105,-1.6105,-1.6205,-1.6205,-1.6205,-1.6205,-1.6205,-1.6205,-1.6205,-1.6205,-1.6205,-1.6205,-1.6105,-1.6111,-1.6105,-1.6205,-1.6205,-1.6205,-1.6205,-1.6205,-1.6311,-1.6424,-1.6318,-1.6342,-1.6794,-1.6712,-1.6673,-1.7399,-1.7457,-1.754,-1.8164,-1.833,-1.8416,-1.8538,-1.8558,-1.8667,-1.8777,-1.9004,-1.9004,-1.8894,-1.8751,-1.8827,-1.955,-1.9339,-1.9461,-1.9924,-2.027,-2.0493,-2.0838,-2.1067,-2.1174,-2.1174,-2.1281,-2.1395,-2.1616,-2.2418,-2.2982,-2.2974,-2.3904,-2.4033,-2.3697,-2.3809,-2.3921,-1.9222,-1.8656,-1.7853,-1.7602,-1.7033,-1.6394,-1.5899,-1.5733,-1.5741,-1.6004,0.0,-1.5823,-1.6115,-1.6041,-1.6104,-1.6786,0.0,-1.6967,-1.7282,-1.716,-1.6979,-1.7073,-1.6875,-1.6773,-1.6773,-1.6572,-1.6384,-1.6431,-1.6666,-1.6707,-1.6319,-1.697,-1.7279,-1.7179,-1.6955,-1.663,-1.6324,-1.6105,-1.5998,-1.5998,-1.5998,-1.5998,-1.5998,-1.6211,-1.6324,-1.6324,-1.6324,-1.653,-1.673,-1.6424,-1.653,-1.673,-1.673,-1.673,-1.673,-1.673,-1.673,-1.673,-1.673,-1.673,-1.6624,-1.6424,-1.6324,-1.6424,-1.663,-1.673,-1.673,-1.673,-1.673,-1.673,-1.7067,-1.698,-1.6957,-1.7538,-1.7514,-1.7508,-1.7916,-1.8013,-1.8222,-1.8691,-1.9057,-1.9359,-1.9482,-1.9482,-1.9482,-1.9591,-1.9591,-1.9707,-1.9822,-1.9707,-1.9931,-2.0945,-2.0723,-2.05,-2.05,-2.106,-2.1181,-2.073,-2.1181,-2.1517,-2.1517,-2.1744,-2.1851,-2.1964,-2.2974,-2.3432,-2.3207,-2.4248,-2.4479,-2.3921,-2.4264,-2.4376,-1.9301,-1.9143,-1.8895,-1.8256,-1.7683,-1.7115,-1.664,-1.6064,0.0,0.0,-1.6087,-1.602,-1.5816,-1.5963,-1.6189,-1.6477,0.0,0.0,0.0,0.0,-1.7066,0.0,-1.7046,-1.7043,-1.7251,-1.7043,0.0,0.0,-1.7179,-1.7107,-1.6707,-1.7164,-1.7378,-1.7179,-1.7173,-1.6961,-1.6624,-1.663,-1.6518,-1.6518,-1.6518,-1.6518,-1.6518,-1.663,-1.6624,-1.6624,-1.6624,-1.6624,-1.673,-1.663,-1.6624,-1.673,-1.673,-1.673,-1.673,-1.673,-1.673,-1.673,-1.673,-1.673,-1.673,-1.663,-1.6624,-1.663,-1.673,-1.673,-1.673,-1.673,-1.673,-1.673,-1.7067,-1.7349,-1.7646,-1.8239,-1.8326,-1.8574,-1.9661,-2.004,-2.023,-2.028,-2.0005,-1.9815,-2.0046,-1.9931,-2.004,-2.0723,-2.0838,-2.1288,-2.2305,-2.1281,-2.0493,-2.05,-2.1288,-2.1744,-2.1767,-2.2312,-2.2644,-2.2554,-2.2901,-2.3127,-2.3127,-2.3127,-2.3352,-2.3921,-2.4144,-2.4368,-2.4479,-2.471,-2.4599,-2.4264,-2.4376,-2.4376,-1.9222,-1.9063,-1.8754,-1.8273,-1.7691,-1.7123,-1.6812,0.0,0.0,0.0,-1.6327,-1.6291,-1.6301,0.0,0.0,0.0,0.0,0.0,0.0,0.0,0.0,0.0,-1.7094,-1.7003,0.0,-1.6908,-1.6842,-1.7057,-1.7315,-1.7375,-1.7029,-1.7459,-1.7694,-1.7378,-1.7384,-1.7272,-1.6955,-1.6842,-1.673,-1.673,-1.673,-1.673,-1.673,-1.6842,-1.6955,-1.6955,-1.6955,-1.7054,-1.716,-1.706,-1.7166,-1.7378,-1.7265,-1.7265,-1.7378,-1.7265,-1.7153,-1.7153,-1.7153,-1.7265,-1.7378,-1.7378,-1.7264,-1.7173,-1.7281,-1.76,-1.7826,-1.7826,-1.7935,-1.8144,-1.8475,-1.8584,-1.8742,-1.9236,-1.9389,-1.9638,-2.0132,-2.0501,-2.0601,-2.0493,-2.0608,-2.0716,-2.0723,-2.0952,-2.1174,-2.1623,-2.1623,-2.1851,-2.2418,-2.2297,-2.2078,-2.2207,-2.2418,-2.2531,-2.2546,-2.3111,-2.3336,-2.2998,-2.3464,-2.3697,-2.3697,-2.3929,-2.4153,-2.4376,-2.4487,-2.4599,-2.4599,-2.471,-2.471,-2.4376,-2.4487,-2.4599,-1.9063,-1.8745,-1.8353,-1.804,-1.7456,-1.6878,-1.6894,-1.6492,0.0,0.0,-1.6566,-1.6586,-1.6846,0.0,-1.7159,0.0,0.0,0.0,0.0,0.0,0.0,0.0,-1.7153,0.0,-1.7066,-1.6871,0.0,-1.7218,-1.7491,-1.7604,-1.7434,-1.7782,-1.7911,-1.7793,-1.7687,-1.7589,-1.7384,-1.7054,-1.6836,-1.6836,-1.6836,-1.6836,-1.6942,-1.7279,-1.7391,-1.7384,-1.7384,-1.7589,-1.7793,-1.7589,-1.7701,-1.8016,-1.7799,-1.7799,-1.8016,-1.7799,-1.7687,-1.7793,-1.7793,-1.7905,-1.8122,-1.8122,-1.7962,-1.7842,-1.8131,-1.8523,-1.894,-1.9009,-1.9243,-1.9463,-1.9778,-1.9725,-1.975,-2.0308,-2.0566,-2.073,-2.073,-2.0952,-2.1181,-2.0952,-2.1402,-2.1858,-2.1631,-2.1972,-2.2312,-2.2425,-2.2539,-2.2539,-2.2644,-2.3311,-2.388,-2.4136,-2.3672,-2.332,-2.3207,-2.3792,-2.3801,-2.3215,-2.368,-2.4033,-2.4033,-2.4264,-2.4376,-2.4487,-2.471,-2.471,-2.4487,-2.471,-2.471,-2.4487,-2.471,-2.4821,-1.8585,-1.8336,-1.8264,-1.8031,-1.7212,-1.664,-1.7456,0.0,0.0,-1.6656,-1.6648,-1.6759,-1.6846,-1.7196,-1.7342,0.0,0.0,-1.788,0.0,0.0,0.0,0.0,0.0,0.0,-1.7239,-1.7232,-1.7399,-1.7831,-1.8112,-1.8352,-1.8276,-1.8101,-1.8122,-1.8318,-1.8122,-1.7911,-1.7911,-1.7687,-1.7477,-1.7477,-1.7477,-1.7477,-1.7477,-1.7806,-1.7911,-1.7911,-1.822,-1.8318,-1.8318,-1.8318,-1.822,-1.8016,-1.8016,-1.8016,-1.8016,-1.8016,-1.8115,-1.8318,-1.8318,-1.8318,-1.8318,-1.8318,-1.8338,-1.8415,-1.87,-1.8912,-1.8989,-1.9276,-1.9353,-1.9463,-1.9778,-1.9993,-2.0406,-2.0972,-2.1524,-2.1881,-2.1881,-2.2335,-2.2788,-2.2788,-2.2788,-2.2901,-2.2788,-2.2901,-2.3119,-2.3689,-2.3689,-2.3913,-2.4479,-2.4787,-2.5,-2.5119,-2.4795,-2.4368,-2.3913,-2.4368,-2.4479,-2.3913,-2.4144,-2.4376,-2.4376,-2.4376,-2.4487,-2.471,-2.4821,-2.4821,-2.471,-2.4821,-2.4821,-2.471,-2.4821,-2.4821,-1.8975,-1.8825,-1.8594,-1.8121,-1.7375,-1.6796,-1.7049,0.0,-1.6252,-1.6656,-1.673,-1.6759,-1.7122,-1.7368,-1.7597,0.0,0.0,0.0,0.0,0.0,0.0,0.0,-1.7501,0.0,0.0,0.0,-1.7508,-1.8057,-1.8497,-1.875,-1.8952,-1.8653,-1.8541,-1.8422,-1.8541,-1.8443,-1.822,-1.801,-1.7799,-1.7799,-1.7799,-1.7799,-1.7806,-1.8115,-1.822,-1.822,-1.8318,-1.8422,-1.8422,-1.8422,-1.8436,-1.8548,-1.8325,-1.8331,-1.8548,-1.8325,-1.8325,-1.8422,-1.8422,-1.8534,-1.8653,-1.8653,-1.8855,-1.8912,-1.89,-1.9266,-1.9818,-1.9946,-2.0222,-2.059,-2.1033,-2.1571,-2.1933,-2.2191,-2.2456,-2.2675,-2.2675,-2.2788,-2.3014,-2.3014,-2.3239,-2.3576,-2.3576,-2.4016,-2.4454,-2.4676,-2.4795,-2.5026,-2.5357,-2.5459,-2.5459,-2.5459,-2.5357,-2.5136,-2.4676,-2.5136,-2.5136,-2.4684,-2.5026,-2.5136,-2.5136,-2.5136,-2.5247,-2.5357,-2.5357,-2.5247,-2.5017,-2.5017,-2.4915,-2.4821,-2.4821,-2.4821,-1.9063,-1.8745,-1.8425,-1.7861,-1.7123,-1.6632,0.0,0.0,-1.6327,-1.673,-1.673,-1.6873,-1.7342,-1.7612,-1.7803,0.0,0.0,-1.8264,-1.781,0.0,0.0,0.0,0.0,-1.7684,0.0,-1.7508,-1.7845,-1.8401,-1.8759,-1.9078,-1.9279,-1.9071,-1.8862,-1.8639,-1.8862,-1.8757,-1.8534,-1.822,-1.8122,-1.8122,-1.8122,-1.8122,-1.8122,-1.8429,-1.8534,-1.8534,-1.8639,-1.8639,-1.8639,-1.8639,-1.875,-1.8869,-1.8646,-1.8646,-1.8869,-1.8646,-1.8639,-1.8639,-1.8639,-1.8959,-1.9279,-1.9279,-1.948,-1.9732,-1.9528,-1.9954,-2.0603,-2.0706,-2.1188,-2.1774,-2.2222,-2.2675,-2.3014,-2.3014,-2.3127,-2.3239,-2.3239,-2.3352,-2.3576,-2.368,-2.4016,-2.4239,-2.4239,-2.4906,-2.5331,-2.5221,-2.5459,-2.5688,-2.5688,-2.5798,-2.5798,-2.5798,-2.5907,-2.5798,-2.534,-2.5569,-2.5569,-2.534,-2.5569,-2.5688,-2.5688,-2.5688,-2.5688,-2.5688,-2.5688,-2.5569,-2.534,-2.534,-2.5238,-2.4923,-2.4923,-2.4923,-1.8496,-1.7844,-1.7359,-1.7115,-1.6386,-1.5982,0.0,0.0,-1.6558,-1.6968,-1.6894,-1.6945,-1.7636,-1.7763,-1.7882,-1.824,0.0,0.0,-1.7908,0.0,0.0,0.0,0.0,-1.7729,-1.7721,-1.8015,-1.843,-1.876,-1.9089,0.0,-1.9279,-1.9279,-1.9272,-1.9272,-1.9078,-1.8869,-1.8869,-1.8534,-1.8422,-1.8422,-1.8422,-1.8422,-1.8422,-1.8757,-1.8869,-1.8869,-1.9175,-1.9272,-1.9272,-1.9272,-1.9175,-1.8869,-1.8869,-1.8869,-1.8869,-1.8869,-1.9078,-1.9272,-1.9272,-1.968,-2.0086,-2.0086,-2.0498,-2.0925,-2.0925,-2.0997,-2.117,-2.1505,-2.2297,-2.3014,-2.3014,-2.3014,-2.3014,-2.3014,-2.3464,-2.3913,-2.3913,-2.4368,-2.4812,-2.5119,-2.5221,-2.5221,-2.5221,-2.545,-2.5569,-2.5221,-2.5459,-2.5688,-2.5688,-2.5907,-2.6127,-2.6127,-2.6354,-2.6364,-2.5798,-2.5688,-2.5688,-2.5688,-2.5688,-2.5688,-2.5688,-2.5688,-2.5688,-2.5688,-2.5688,-2.5688,-2.5679,-2.5679,-2.5569,-2.5221,-2.5221,-2.5017,-1.9063,-1.8816,-1.8576,-1.8006,-1.761,-1.7294,-1.7456,0.0,-1.6968,-1.7456,-1.7212,-1.7193,-1.7911,-1.7858,-1.7969,-1.8399,-1.8503,0.0,0.0,0.0,0.0,0.0,-1.7621,-1.7515,0.0,0.0,-1.8438,-1.8767,-1.9096,-1.9279,-1.9279,-1.9279,-1.9279,-1.9279,-1.9175,-1.9175,-1.9175,-1.8862,-1.8757,-1.8757,-1.8757,-1.8757,-1.8757,-1.9071,-1.9175,-1.9175,-1.9279,-1.9279,-1.9279,-1.9279,-1.9279,-1.9175,-1.9175,-1.9376,-1.968,-1.968,-1.999,-2.0403,-2.0403,-2.0506,-2.0609,-2.0609,-2.0712,-2.0917,-2.1121,-2.1346,-2.1679,-2.2013,-2.2581,-2.3312,-2.3533,-2.3871,-2.4259,-2.4505,-2.4676,-2.4787,-2.4787,-2.4804,-2.4923,-2.5459,-2.534,-2.5221,-2.5459,-2.5789,-2.5907,-2.5789,-2.6127,-2.6364,-2.6364,-2.6364,-2.6473,-2.6473,-2.6591,-2.6473,-2.6017,-2.6136,-2.6245,-2.6017,-2.6136,-2.6364,-2.6364,-2.6364,-2.6364,-2.6364,-2.6364,-2.6245,-2.6017,-2.6017,-2.5679,-2.5221,-2.545,-2.5247,0.0,-1.9143,-1.8816,-1.8416,-1.8031,0.0,0.0,0.0,-1.7456,-1.7781,-1.7465,-1.7359,-1.7997,-1.7953,-1.8001,-1.854,-1.8473,0.0,0.0,0.0,0.0,0.0,0.0,0.0,0.0,-1.8364,-1.8621,-1.895,-1.9162,-1.9279,-1.9279,-1.9279,-1.9279,-1.9279,-1.9279,-1.9279,-1.9279,-1.9175,-1.9078,-1.9078,-1.9078,-1.9078,-1.9078,-1.9175,-1.9279,-1.9279,-1.9279,-1.9376,0.0,-1.9576,-1.968,-1.9894,-1.9894,-2.0094,-2.0395,-2.0395,-2.0609,-2.0925,-2.0925,-2.1019,-2.1224,-2.1326,-2.1632,-2.1928,-2.2131,-2.2297,-2.2377,-2.2971,-2.3494,-2.3821,-2.4183,-2.4663,-2.4942,-2.5287,-2.534,-2.534,-2.534,-2.5247,-2.5247,-2.5798,-2.5679,-2.556,-2.5789,-2.6127,-2.6245,-2.6127,-2.6364,-2.6591,-2.6591,-2.6591,-2.6591,-2.6591,-2.6591,-2.6473,-2.6354,-2.6473,-2.6473,-2.6354,-2.6473,-2.6591,-2.6591,-2.6591,-2.6591,-2.6591,-2.6591,-2.6473,-2.6245,-2.6127,-2.5898,-2.556,-2.5569,-2.5357,0.0,0.0,0.0,0.0,0.0,0.0,0.0,0.0,0.0,-1.8031,-1.7716,-1.7532,-1.8083,-1.7953,-1.8001,-1.8716,0.0,0.0,0.0,0.0,0.0,0.0,-1.8149,0.0,-1.873,-1.8789,-1.8921,-1.925,-1.9279,-1.9279,-1.9279,-1.9279,-1.9272,-1.9376,-1.9376,-1.9376,-1.9376,-1.9376,-1.9376,-1.9376,-1.9376,-1.9376,-1.9376,-1.9376,-1.9376,-1.9376,-1.9376,-1.968,-2.0189,-2.0189,-2.0498,-2.0925,-2.0925,-2.0925,-2.0917,-2.0917,-2.1019,-2.1019,-2.1019,-2.1326,-2.1827,-2.2131,-2.2736,-2.3447,-2.3755,-2.352,-2.3367,-2.4277,-2.4602,-2.4706,-2.5081,-2.5186,-2.5305,-2.567,-2.5679,-2.5688,-2.5688,-2.5679,-2.5798,-2.6127,-2.6127,-2.6127,-2.6127,-2.6354,-2.6473,-2.6127,-2.6364,-2.6591,-2.6591,-2.6591,-2.6591,-2.6591,-2.6591,-2.6591,-2.6591,-2.6591,-2.6591,-2.6591,-2.6591,-2.6591,-2.6591,-2.6591,-2.6591,-2.6591,-2.6591,-2.6591,-2.6591,-2.6245,-2.6127,-2.6127,-2.556,-2.545,-1.9219,0.0,-1.9063,-1.9063,-1.8825,-1.8674,0.0,0.0,0.0,0.0,0.0,0.0,-1.8521,-1.8316,0.0,0.0,0.0,0.0,0.0,0.0,0.0,-1.8008,-1.814,-1.8449,-1.8752,-1.8789,-1.8921,-1.925,-1.9279,-1.9279,-1.9279,-1.9279,-1.948,-1.9879,-1.9879,-1.9879,-1.9879,-1.9879,-2.0094,-2.0506,-2.0506,-2.0506,-2.0506,-2.0506,-2.0506,-2.0506,-2.0506,-2.0609,-2.0712,-2.0712,-2.0814,-2.0925,-2.0925,-2.1121,-2.1522,-2.1522,-2.1827,-2.2241,-2.2241,-2.2241,-2.2443,-2.2745,-2.3247,-2.3755,-2.3755,-2.3723,-2.3771,-2.4275,-2.4533,-2.4633,-2.503,-2.5343,-2.5523,-2.5726,-2.5907,-2.6017,-2.6017,-2.5798,-2.5907,-2.6364,-2.6245,-2.6127,-2.6473,-2.6582,-2.6582,-2.6473,-2.6582,-2.6591,-2.6591,-2.6591,-2.6591,-2.6591,-2.6591,-2.6591,-2.6591,-2.6591,-2.6591,-2.6591,-2.6591,-2.6591,-2.6591,-2.6591,-2.6591,-2.6591,-2.6591,-2.6591,-2.6591,-2.6473,-2.6354,-2.6127,-2.6245,-2.5907,-1.9515,-1.946,-1.9301,-1.9301,-1.9152,-1.9073,0.0,0.0,0.0,0.0,0.0,0.0,0.0,0.0,0.0,0.0,-1.9471,0.0,0.0,0.0,0.0,-1.9287,-1.9193,-1.9337,0.0,-2.0124,-2.0194,-2.0181,-2.0197,-2.0197,-2.0197,-2.0101,-2.0197,-2.0601,-2.0498,-2.0498,-2.0498,-2.0498,-2.0609,-2.0925,-2.0925,-2.0925,-2.0925,-2.0925,-2.0925,-2.1121,-2.1121,-2.1318,-2.1623,-2.1623,-2.1827,-2.2038,-2.2038,-2.2131,-2.2333,-2.2333,-2.2443,-2.2644,-2.2745,-2.2946,-2.3147,-2.3347,-2.3655,-2.3954,-2.3954,-2.3999,-2.4115,-2.4305,-2.4526,-2.4807,-2.5228,-2.5568,-2.5856,-2.6082,-2.6245,-2.6354,-2.6354,-2.6245,-2.6245,-2.6591,-2.6473,-2.6364,-2.6582,-2.6591,-2.6591,-2.6591,-2.6591,-2.6591,-2.6591,-2.6591,-2.6591,-2.6591,-2.6591,-2.6591,-2.6591,-2.6591,-2.6591,-2.6591,-2.6591,-2.6591,-2.6591,-2.6591,-2.6591,-2.6591,-2.6591,-2.6591,-2.6591,-2.6591,-2.6473,-2.6354,-2.6364,-2.6136,-1.9809,-1.9618,-1.9381,-1.9301,-1.9152,-1.9073,0.0,0.0,0.0,0.0,0.0,0.0,0.0,0.0,0.0,0.0,0.0,0.0,-2.0129,-1.9525,-1.9638,-2.0917,-2.0584,0.0,-2.1591,-2.1725,-2.1623,-2.1326,-2.1326,-2.1326,-2.1224,-2.1019,-2.1019,-2.1318,-2.1121,-2.1019,-2.1121,-2.1121,-2.1121,-2.1121,-2.1224,-2.1224,-2.1121,-2.1224,-2.1326,-2.153,-2.1632,-2.203,-2.2627,-2.2627,-2.2937,-2.3447,-2.3447,-2.3247,-2.3046,-2.3046,-2.2946,-2.2745,-2.2946,-2.3347,-2.3755,-2.3755,-2.3954,-2.4152,-2.4152,-2.4152,-2.4225,-2.4262,-2.4539,-2.4954,-2.5423,-2.5793,-2.6164,-2.6455,-2.6582,-2.6591,-2.6591,-2.6591,-2.6591,-2.6591,-2.6591,-2.6591,-2.6591,-2.6591,-2.6591,-2.6591,-2.6591,-2.6591,-2.6591,-2.6591,-2.6591,-2.6591,-2.6591,-2.6591,-2.6591,-2.6591,-2.6591,-2.6591,-2.6591,-2.6591,-2.6591,-2.6591,-2.6591,-2.6591,-2.6591,-2.6591,-2.6591,-2.6591,-2.6591,-2.6582,-2.6354,-2.6354,-1.9733,-1.9863,-1.9706,-1.9381,-1.9301,-1.9222,0.0,0.0,0.0,0.0,0.0,0.0,0.0,0.0,0.0,0.0,0.0,-2.1015,0.0,0.0,-2.1336,-2.0782,0.0,-2.1558,-2.1717,-2.1725,-2.1623,-2.1326,-2.1326,-2.1224,-2.1019,-2.0925,-2.1121,-2.1623,-2.1623,-2.1827,-2.2342,-2.203,-2.203,-2.2342,-2.2544,-2.2544,-2.2342,-2.2544,-2.2745,-2.2745,-2.2946,-2.3147,-2.3247,-2.3247,-2.3347,-2.3447,-2.3447,-2.3347,-2.3347,-2.3347,-2.3347,-2.3247,-2.3347,-2.3347,-2.3546,-2.3755,-2.3954,-2.4152,-2.4152,-2.4152,-2.4161,-2.4225,-2.4546,-2.4939,-2.536,-2.58,-2.6034,-2.6164,-2.6354,-2.6591,-2.6591,-2.6591,-2.6591,-2.6591,-2.6591,-2.6591,-2.6591,-2.6591,-2.6591,-2.6591,-2.6591,-2.6591,-2.6591,-2.6591,-2.6591,-2.6591,-2.6591,-2.6591,-2.6591,-2.6591,-2.6591,-2.6591,-2.6591,-2.6591,-2.6591,-2.6591,-2.6591,-2.6591,-2.6591,-2.6591,-2.6591,-2.6591,-2.6591,-2.6591,-2.6582,-2.6364,-2.0255,-2.0401,-2.0323,-1.9775,-1.9618,-1.9618,-1.9618,0.0,0.0,0.0,0.0,0.0,0.0,0.0,0.0,-2.098,0.0,-2.1527,-2.1554,-2.1617,-2.1857,0.0,0.0,-2.2526,-2.3038,-2.3038,-2.2837,-2.2434,-2.2434,-2.2342,-2.2038,-2.1937,-2.2038,-2.2434,-2.2241,-2.2342,-2.2644,-2.2745,-2.2846,-2.2846,-2.2946,-2.3046,-2.3046,-2.3046,-2.3147,-2.3447,-2.3546,-2.3646,-2.3845,-2.3845,-2.3845,-2.3845,-2.3845,-2.3755,-2.3546,-2.3447,-2.3447,-2.3646,-2.3646,-2.3746,-2.3845,-2.3954,-2.4053,-2.4152,-2.4152,-2.4152,-2.4152,-2.4152,-2.4455,-2.4867,-2.5027,-2.5541,-2.6004,-2.608,-2.6308,-2.6591,-2.6591,-2.6591,-2.6591,-2.6591,-2.6591,-2.6591,-2.6591,-2.6591,-2.6591,-2.6591,-2.6591,-2.6591,-2.6591,-2.6591,-2.6591,-2.6591,-2.6591,-2.6591,-2.6591,-2.6591,-2.6591,-2.6591,-2.6591,-2.6591,-2.6591,-2.6591,-2.6591,-2.6591,-2.6591,-2.6591,-2.6591,-2.6591,-2.6591,-2.6591,-2.6591,-2.6473,-2.0735,-2.0954,-2.0789,-2.0255,0.0,-1.9942,-1.9942,0.0,0.0,0.0,0.0,0.0,0.0,0.0,0.0,-2.1728,-2.1919,-2.202,-2.2325,-2.2137,-2.2378,-2.3363,-2.3341,-2.3538,-2.4152,-2.4152,-2.3954,-2.3555,-2.3447,-2.3347,-2.3147,-2.2946,-2.2846,-2.3046,-2.2846,-2.2745,-2.2745,-2.3247,-2.3347,-2.3046,-2.3147,-2.3247,-2.3447,-2.3247,-2.3447,-2.3755,-2.3854,-2.4053,-2.4152,-2.4152,-2.4152,-2.4152,-2.4152,-2.4053,-2.3854,-2.3646,-2.3646,-2.3854,-2.3845,-2.3954,-2.4152,-2.4152,-2.4152,-2.4152,-2.4152,-2.4152,-2.4152,-2.4152,-2.4381,-2.4656,-2.4757,-2.5298,-2.5848,-2.594,-2.6279,-2.6591,-2.6591,-2.6591,-2.6591,-2.6591,-2.6591,-2.6591,-2.6591,-2.6591,-2.6591,-2.6591,-2.6591,-2.6591,-2.6591,-2.6591,-2.6591,-2.6591,-2.6591,-2.6591,-2.6591,-2.6591,-2.6591,-2.6591,-2.6591,-2.6591,-2.6591,-2.6591,-2.6591,-2.6591,-2.6591,-2.6591,-2.6591,-2.6591,-2.6591,-2.6591,-2.6591,-2.6591,-2.0854,-2.1051,-2.1051,-2.0644,-2.0411,0.0,-1.9942,-1.9863,0.0,0.0,0.0,0.0,0.0,0.0,-2.2189,-2.2087,-2.2451,-2.2637,-2.2391,0.0,-2.3682,-2.3373,-2.3966,-2.4341,-2.4251,-2.4152,-2.4053,-2.3746,-2.3746,-2.3646,-2.3356,-2.3347,-2.3347,-2.3347,-2.3347,-2.3347,-2.3347,-2.3655,-2.3546,-2.3046,-2.3546,-2.3646,-2.3456,-2.3646,-2.3755,-2.3845,-2.4053,-2.4152,-2.4152,-2.4152,-2.4152,-2.4152,-2.4152,-2.4152,-2.4152,-2.4152,-2.3954,-2.3854,-2.4053,-2.4053,-2.3854,-2.4152,-2.4152,-2.4152,-2.4152,-2.4152,-2.4152,-2.4152,-2.417,-2.429,-2.4684,-2.5096,-2.5509,-2.5876,-2.6279,-2.6591,-2.6591,-2.6591,-2.6591,-2.6591,-2.6591,-2.6591,-2.6591,-2.6591,-2.6591,-2.6591,-2.6591,-2.6591,-2.6591,-2.6591,-2.6591,-2.6591,-2.6591,-2.6591,-2.6591,-2.6591,-2.6591,-2.6591,-2.6591,-2.6591,-2.6591,-2.6591,-2.6591,-2.6591,-2.6591,-2.6591,-2.6591,-2.6591,-2.6591,-2.6591,-2.6591,-2.6591,-2.1237,-2.1436,-2.1573,-2.1469,0.0,0.0,0.0,0.0,0.0,0.0,0.0,0.0,0.0,0.0,-2.2696,-2.2353,-2.2627,-2.2715,-2.2441,-2.3243,-2.3682,-2.3336,-2.4044,-2.444,-2.4251,-2.4152,-2.4053,-2.3854,-2.3755,-2.3646,-2.3447,-2.3447,-2.3447,-2.3447,-2.3447,-2.3447,-2.3447,-2.3655,-2.3646,-2.3546,-2.3646,-2.3845,-2.3854,-2.3854,-2.3845,-2.4053,-2.4152,-2.4152,-2.4152,-2.4152,-2.4152,-2.4152,-2.4152,-2.4152,-2.4152,-2.4152,-2.4152,-2.4053,-2.4152,-2.4152,-2.4053,-2.4152,-2.4152,-2.4152,-2.4152,-2.4152,-2.4152,-2.4152,-2.4152,-2.4189,-2.4345,-2.4693,-2.5106,-2.55,-2.5903,-2.627,-2.6536,-2.6591,-2.6591,-2.6591,-2.6591,-2.6591,-2.6591,-2.6591,-2.6591,-2.6591,-2.6591,-2.6691,-2.6791,-2.689,-2.689,-2.689,-2.6691,-2.6591,-2.6591,-2.6591,-2.6591,-2.6591,-2.6591,-2.6591,-2.6591,-2.6591,-2.6691,-2.6899,-2.689,-2.689,-2.7116,-2.7116,-2.6999,-2.689,-2.7431,-2.7539,-2.1497,-2.1655,-2.1768,0.0,0.0,0.0,0.0,0.0,0.0,0.0,0.0,0.0,0.0,0.0,0.0,0.0,-2.2706,-2.2794,-2.2618,-2.3334,-2.3868,-2.3505,-2.4228,-2.4637,-2.4449,-2.4449,-2.4341,-2.4143,-2.4044,-2.3945,-2.3746,-2.3646,-2.3646,-2.3646,-2.3646,-2.3646,-2.3746,-2.3845,-2.3954,-2.4044,-2.4044,-2.4152,-2.4251,-2.4053,-2.4044,-2.4251,-2.4251,-2.4152,-2.4152,-2.4251,-2.4251,-2.4251,-2.4251,-2.4251,-2.4152,-2.4152,-2.4152,-2.4152,-2.4152,-2.4152,-2.4152,-2.4152,-2.4152,-2.4152,-2.4152,-2.4152,-2.4152,-2.4152,-2.4152,-2.4152,-2.4152,-2.4464,-2.4886,-2.5271,-2.5674,-2.6078,-2.6499,-2.6591,-2.6591,-2.6591,-2.6591,-2.6591,-2.6591,-2.6691,-2.6691,-2.6691,-2.68,-2.6899,-2.7098,-2.7098,-2.7098,-2.7098,-2.6899,-2.6691,-2.6691,-2.6691,-2.6591,-2.6591,-2.6691,-2.6691,-2.6691,-2.6691,-2.6899,-2.7098,-2.7098,-2.7314,-2.7647,-2.7539,-2.7422,-2.7422,-2.7745,-2.796,-2.1578,-2.1655,0.0,0.0,0.0,0.0,0.0,0.0,0.0,0.0,0.0,-2.1938,-2.2196,0.0,0.0,-2.2803,-2.2969,-2.3135,-2.3135,-2.3867,-2.4312,-2.4034,-2.4804,-2.5226,-2.4932,-2.4932,-2.4932,-2.4932,-2.4627,-2.4529,-2.4529,-2.4341,-2.4251,-2.4251,-2.4152,-2.4341,-2.4529,-2.4341,-2.4341,-2.4529,-2.4529,-2.4529,-2.4529,-2.4251,-2.435,-2.4538,-2.4251,-2.4152,-2.4251,-2.444,-2.4529,-2.4529,-2.4529,-2.4341,-2.4152,-2.4152,-2.4152,-2.4152,-2.4251,-2.4251,-2.4251,-2.4152,-2.4152,-2.4152,-2.4152,-2.4152,-2.4152,-2.4152,-2.4152,-2.4152,-2.4152,-2.4464,-2.4876,-2.528,-2.5674,-2.6068,-2.6499,-2.6591,-2.6591,-2.6591,-2.6591,-2.6591,-2.6591,-2.6791,-2.6989,-2.6989,-2.7215,-2.7431,-2.7431,-2.7431,-2.7431,-2.7431,-2.7206,-2.6989,-2.6989,-2.6791,-2.6591,-2.6591,-2.689,-2.6989,-2.6989,-2.6989,-2.7098,-2.7431,-2.7431,-2.7755,-2.8291,-2.7755,-2.7755,-2.8291,-2.7422,-2.753,-2.1959,-2.1883,0.0,0.0,0.0,0.0,0.0,0.0,0.0,0.0,0.0,-2.2012,-2.2357,0.0,0.0,-2.3057,-2.3057,-2.3135,-2.3135,-2.3623,-2.3991,-2.3996,-2.4544,-2.4919,-2.4913,-2.4932,-2.4932,-2.4932,-2.4833,-2.4735,-2.4735,-2.4735,-2.4735,-2.4735,-2.4538,-2.444,-2.4529,-2.444,-2.4341,-2.4251,-2.4637,-2.4637,-2.4529,-2.444,-2.444,-2.4529,-2.444,-2.444,-2.444,-2.4637,-2.4735,-2.4735,-2.4529,-2.443,-2.444,-2.444,-2.444,-2.444,-2.4637,-2.4735,-2.4637,-2.444,-2.444,-2.4341,-2.4251,-2.4152,-2.4152,-2.4152,-2.4152,-2.4251,-2.4341,-2.4532,-2.4802,-2.5516,-2.5776,-2.6055,-2.6957,-2.6999,-2.689,-2.7116,-2.6999,-2.689,-2.7107,-2.7215,-2.7314,-2.7314,-2.7323,-2.7539,-2.7745,-2.7745,-2.7745,-2.7745,-2.7422,-2.7314,-2.7314,-2.6999,-2.689,-2.689,-2.6989,-2.7196,-2.7511,-2.7413,-2.7638,-2.8271,-2.8271,-2.8281,-2.8291,-2.893,-2.8814,-2.8067,-2.8814,-2.892,-2.2025,0.0,0.0,0.0,0.0,0.0,0.0,0.0,0.0,0.0,0.0,-2.2434,-2.2942,-2.3142,0.0,-2.3232,-2.3232,-2.3232,-2.3135,-2.3604,-2.3935,-2.4181,-2.4533,-2.4967,-2.5197,-2.5235,-2.5235,-2.5235,-2.5137,-2.5039,-2.5039,-2.4932,-2.4932,-2.4932,-2.4735,-2.4735,-2.4833,-2.4735,-2.4637,-2.4646,-2.4941,-2.4932,-2.4833,-2.4735,-2.4735,-2.4833,-2.4735,-2.4735,-2.4833,-2.503,-2.5039,-2.5039,-2.4833,-2.4735,-2.4637,-2.4637,-2.4637,-2.4637,-2.4833,-2.4932,-2.4833,-2.4637,-2.4529,-2.444,-2.4251,-2.4251,-2.4341,-2.4341,-2.4449,-2.4538,-2.4637,-2.4637,-2.4805,-2.5479,-2.5862,-2.6163,-2.6937,-2.721,-2.7215,-2.7323,-2.7323,-2.7206,-2.7314,-2.753,-2.7638,-2.7638,-2.7647,-2.7862,-2.8067,-2.8067,-2.8067,-2.8067,-2.7745,-2.7638,-2.7638,-2.7314,-2.7206,-2.7206,-2.7314,-2.7628,-2.8155,-2.7853,-2.796,-2.8804,-2.8698,-2.8708,-2.893,-2.9248,-2.9036,-2.8378,-2.892,-2.9132,0.0,0.0,0.0,0.0,0.0,0.0,0.0,0.0,0.0,0.0,0.0,-2.3083,-2.376,-2.3667,-2.3503,-2.359,-2.3503,-2.3416,-2.3135,-2.3654,-2.4147,-2.4307,-2.4746,-2.5185,-2.5635,-2.5713,-2.5742,-2.5742,-2.544,-2.5333,-2.5333,-2.5137,-2.503,-2.503,-2.503,-2.5128,-2.5333,-2.5128,-2.503,-2.5333,-2.5333,-2.5333,-2.5333,-2.5039,-2.5039,-2.5333,-2.5039,-2.5137,-2.5333,-2.5333,-2.5333,-2.5333,-2.5342,-2.5137,-2.4932,-2.4932,-2.4932,-2.4932,-2.4932,-2.4932,-2.4932,-2.4637,-2.4529,-2.4538,-2.435,-2.4341,-2.4529,-2.4529,-2.4735,-2.4932,-2.4932,-2.4932,-2.5026,-2.5405,-2.5841,-2.6399,-2.6836,-2.7138,-2.7431,-2.7431,-2.7422,-2.7431,-2.7431,-2.7745,-2.796,-2.796,-2.8184,-2.8291,-2.8291,-2.8291,-2.8291,-2.8291,-2.8067,-2.796,-2.796,-2.7638,-2.7539,-2.7431,-2.7745,-2.8165,-2.8688,-2.8165,-2.8281,-2.9132,-2.8717,-2.893,-2.9889,-2.9036,-2.8814,-2.9132,-2.8485,-2.8814,0.0,0.0,0.0,0.0,0.0,0.0,0.0,0.0,0.0,0.0,-2.2802,-2.3338,-2.4029,-2.3937,-2.3754,-2.4024,-2.3841,-2.3667,-2.3406,-2.3583,-2.3713,-2.3877,-2.4297,-2.4727,-2.5166,-2.5527,-2.5742,-2.5742,-2.5645,-2.5635,-2.5635,-2.5713,-2.58,-2.58,-2.5606,-2.5596,-2.5596,-2.5596,-2.5411,-2.5342,-2.5713,-2.58,-2.5606,-2.5323,-2.5235,-2.5333,-2.5235,-2.5342,-2.5635,-2.5635,-2.5635,-2.5635,-2.5333,-2.5235,-2.5235,-2.5235,-2.5235,-2.5235,-2.543,-2.5538,-2.544,-2.5235,-2.5137,-2.5039,-2.4843,-2.4735,-2.4833,-2.4833,-2.4833,-2.4941,-2.5137,-2.5235,-2.5264,-2.5546,-2.6145,-2.6708,-2.736,-2.767,-2.7853,-2.8077,-2.796,-2.7853,-2.8077,-2.8184,-2.8184,-2.8184,-2.8291,-2.8291,-2.8291,-2.8291,-2.8291,-2.8291,-2.8291,-2.8184,-2.8184,-2.8388,-2.8271,-2.7853,-2.8271,-2.8591,-2.8688,-2.8388,-2.8495,-2.9132,-2.9459,-2.9564,-2.9343,-3.038,-3.0484,-2.9774,-3.0068,-3.0068,0.0,0.0,0.0,0.0,0.0,0.0,0.0,0.0,0.0,-2.3227,-2.3449,-2.3835,-2.4241,-2.411,-2.4024,-2.4206,-2.411,-2.3937,-2.3677,-2.3667,-2.375,-2.4098,-2.4165,-2.4457,-2.5387,-2.5569,-2.57,-2.5907,-2.6024,-2.6024,-2.5917,-2.611,-2.6294,-2.6294,-2.6197,-2.6091,-2.6091,-2.6091,-2.6004,-2.5917,-2.6207,-2.6197,-2.61,-2.5625,-2.5538,-2.5538,-2.5538,-2.5538,-2.5742,-2.5742,-2.5742,-2.5645,-2.5538,-2.5538,-2.5538,-2.5538,-2.5538,-2.5538,-2.5635,-2.5742,-2.5635,-2.544,-2.5333,-2.5235,-2.4932,-2.5039,-2.5128,-2.5128,-2.5137,-2.5333,-2.5616,-2.5713,-2.5713,-2.582,-2.623,-2.6623,-2.7266,-2.7581,-2.7941,-2.8252,-2.8184,-2.8184,-2.8291,-2.8291,-2.8291,-2.8291,-2.8291,-2.8291,-2.8291,-2.8291,-2.8291,-2.8291,-2.8291,-2.8398,-2.8708,-2.8804,-2.891,-2.892,-2.9132,-2.9343,-2.9343,-2.9142,-2.9343,-2.9858,-2.9984,-2.9984,-2.9963,-3.0495,-3.0505,-2.9994,-3.0287,-3.0391,0.0,0.0,0.0,0.0,0.0,0.0,0.0,0.0,0.0,-2.3991,-2.4122,-2.4282,-2.4454,-2.4368,-2.4292,-2.4292,-2.4292,-2.4196,-2.3937,-2.3841,-2.3981,-2.4354,-2.4108,-2.4374,-2.5548,-2.5605,-2.5729,-2.6167,-2.639,-2.64,-2.6197,-2.64,-2.6592,-2.6688,-2.6688,-2.6688,-2.6688,-2.6688,-2.6688,-2.6602,-2.6602,-2.6496,-2.6496,-2.6024,-2.583,-2.583,-2.583,-2.583,-2.583,-2.583,-2.583,-2.583,-2.583,-2.583,-2.583,-2.583,-2.5732,-2.5732,-2.5742,-2.5742,-2.5635,-2.544,-2.5342,-2.5342,-2.5137,-2.5235,-2.543,-2.543,-2.5635,-2.5927,-2.61,-2.6197,-2.6197,-2.6284,-2.6388,-2.6506,-2.6904,-2.7363,-2.7793,-2.8319,-2.8408,-2.8398,-2.8291,-2.8291,-2.8291,-2.8291,-2.8291,-2.8291,-2.8291,-2.8398,-2.8398,-2.8398,-2.8504,-2.8824,-2.9237,-2.9343,-2.9554,-2.9994,-3.0099,-3.0099,-3.0099,-3.0099,-3.0391,-3.0888,-3.0391,-3.0391,-3.0785,-3.0505,-3.0308,-3.0308,-3.0308,-3.0495,0.0,0.0,0.0,0.0,0.0,0.0,0.0,0.0,0.0,0.0,-2.4413,-2.4454,-2.454,-2.4454,-2.4454,-2.4454,-2.4454,-2.4368,-2.4206,-2.412,-2.4044,-2.3921,-2.4185,-2.4626,-2.5219,-2.5611,-2.5919,-2.637,-2.6496,-2.6496,-2.64,-2.6699,-2.6986,-2.7441,-2.7441,-2.7441,-2.7441,-2.7441,-2.7262,-2.6805,-2.6805,-2.6699,-2.6496,-2.641,-2.64,-2.64,-2.64,-2.64,-2.64,-2.64,-2.64,-2.64,-2.64,-2.64,-2.64,-2.61,-2.6004,-2.6004,-2.5732,-2.5742,-2.5732,-2.5635,-2.5645,-2.5635,-2.5635,-2.582,-2.6004,-2.6004,-2.6207,-2.64,-2.64,-2.64,-2.6582,-2.6955,-2.6719,-2.6623,-2.6947,-2.7363,-2.7898,-2.8542,-2.8631,-2.8621,-2.8291,-2.8291,-2.8291,-2.8291,-2.8291,-2.8291,-2.8291,-2.8717,-2.9026,-2.9026,-2.9459,-2.9784,-2.9889,-3.0287,-3.038,-2.9994,-3.0391,-3.0692,-3.0692,-3.0692,-3.0899,-3.1516,-3.1002,-3.0681,-3.0785,-3.1208,-3.1424,-3.1424,-3.1424,-3.1414,0.0,0.0,0.0,0.0,0.0,0.0,0.0,0.0,0.0,-2.454,-2.454,-2.454,-2.454,-2.454,-2.454,-2.454,-2.454,-2.4454,-2.4368,-2.4282,-2.4196,-2.4196,-2.4099,-2.4402,-2.5125,-2.5259,-2.5574,-2.6273,-2.6502,-2.6615,-2.6688,-2.7262,-2.7631,-2.782,-2.8092,-2.8175,-2.8175,-2.8175,-2.7998,-2.7536,-2.782,-2.7726,-2.7336,-2.761,-2.7241,-2.6496,-2.6496,-2.6496,-2.6496,-2.6496,-2.6496,-2.6496,-2.6496,-2.6496,-2.6496,-2.64,-2.6294,-2.6304,-2.6014,-2.5917,-2.5917,-2.5732,-2.5742,-2.5732,-2.6207,-2.6197,-2.6197,-2.6572,-2.6582,-2.6592,-2.6976,-2.7167,-2.7251,-2.7726,-2.7536,-2.715,-2.74,-2.7592,-2.8008,-2.88,-2.8834,-2.8621,-2.8514,-2.8408,-2.8291,-2.8291,-2.8611,-2.8708,-2.8708,-2.9248,-2.9564,-2.9564,-2.9889,-3.0088,-3.0391,-3.0692,-3.0795,-3.0909,-3.1105,-3.1208,-3.1208,-3.1208,-3.1311,-3.1618,-3.1414,-3.1208,-3.1208,-3.1516,-3.1618,-3.1618,-3.1618,-3.1618,0.0,0.0,0.0,0.0,0.0,0.0,0.0,0.0,-2.4861,0.0,-2.47,-2.4786,-2.4786,-2.4625,-2.454,-2.454,-2.454,-2.454,-2.4615,-2.454,-2.454,-2.4615,-2.4358,-2.4456,-2.5093,-2.5057,-2.5296,-2.6074,-2.6414,-2.6724,-2.6981,-2.7662,-2.8081,-2.8362,-2.8735,-2.891,-2.891,-2.8724,-2.8538,-2.8175,-2.856,-2.856,-2.8175,-2.8538,-2.807,-2.7051,-2.6965,-2.6774,-2.6688,-2.6688,-2.6688,-2.6688,-2.6688,-2.6688,-2.6688,-2.6602,-2.6602,-2.6602,-2.639,-2.638,-2.638,-2.6304,-2.6304,-2.639,-2.6955,-2.686,-2.6572,-2.7146,-2.7051,-2.6965,-2.7536,-2.782,-2.7998,-2.8571,-2.829,-2.7883,-2.7878,-2.7974,-2.8319,-2.8981,-2.9142,-2.9142,-2.9036,-2.9026,-2.892,-2.892,-2.9237,-2.9448,-2.9448,-2.9869,-3.0193,-3.0193,-3.0297,-3.0599,-3.1002,-3.0991,-3.1208,-3.1516,-3.1618,-3.1618,-3.1618,-3.1618,-3.1618,-3.1618,-3.1618,-3.1618,-3.1618,-3.1618,-3.1618,-3.1618,-3.1618,-3.1618,0.0,0.0,0.0,0.0,0.0,0.0,0.0,0.0,0.0,-2.4946,-2.52,-2.5454,-2.5454,-2.4956,-2.454,-2.454,-2.454,-2.4625,-2.5115,-2.5115,-2.5115,-2.52,-2.5115,-2.5135,-2.5192,-2.5233,-2.543,-2.5885,-2.632,-2.6754,-2.7225,-2.7753,-2.8456,-2.9393,-2.9485,-2.9485,-2.9485,-2.891,-2.8724,-2.8631,-2.8724,-2.8724,-2.8631,-2.8724,-2.8631,-2.8538,-2.8081,-2.762,-2.7262,-2.7262,-2.7262,-2.7262,-2.7262,-2.7262,-2.7262,-2.6986,-2.69,-2.689,-2.7051,-2.7136,-2.7231,-2.7704,-2.7904,-2.7893,-2.7893,-2.7715,-2.7536,-2.7536,-2.7715,-2.7904,-2.7998,-2.8269,-2.8828,-2.9301,-2.9013,-2.8516,-2.7882,-2.835,-2.891,-2.9041,-2.9764,-3.0183,-2.9953,-3.037,-3.0681,-3.0681,-3.0484,-3.0287,-3.0287,-3.0588,-3.0785,-3.0785,-3.1208,-3.1527,-3.1527,-3.1527,-3.1516,-3.1618,-3.1618,-3.1618,-3.1618,-3.1618,-3.1618,-3.1618,-3.1618,-3.1618,-3.1618,-3.1618,-3.1618,-3.1618,-3.1618,-3.1618,0.0,0.0,0.0,0.0,0.0,0.0,0.0,-2.6302,-2.6207,-2.5946,-2.5946,-2.5946,-2.5946,-2.5359,-2.5041,-2.5391,-2.5126,-2.5126,-2.5549,-2.5633,-2.5633,-2.5633,-2.538,-2.5179,-2.5188,-2.5198,-2.5388,-2.5851,-2.6317,-2.6807,-2.7166,-2.7708,-2.832,-2.9004,-2.9297,-2.9624,-2.9943,-2.9749,-2.9474,-2.9198,-2.9566,-2.9474,-2.9198,-2.9566,-2.9474,-2.9198,-2.9024,-2.8642,-2.8175,-2.8175,-2.7987,-2.7715,-2.7715,-2.7536,-2.7347,-2.7536,-2.7631,-2.7631,-2.7914,-2.8008,-2.8008,-2.7998,-2.7998,-2.8081,-2.856,-2.8477,-2.8207,-2.8653,-2.8642,-2.8549,-2.8828,-2.9106,-2.929,-2.9485,-2.9535,-2.958,-2.9373,-2.9774,-3.0344,-3.0596,-3.0785,-3.0877,-3.0774,-3.0785,-3.0785,-3.0588,-3.0899,-3.1002,-3.0692,-3.1197,-3.1505,-3.1311,-3.1618,-3.1823,-3.1823,-3.1823,-3.1823,-3.1823,-3.1721,-3.1618,-3.1618,-3.1618,-3.1618,-3.1618,-3.1823,-3.1823,-3.1618,-3.1618,-3.1618,-3.1618,-3.1618,-3.1618,-2.5313,0.0,0.0,0.0,0.0,0.0,0.0,0.0,-2.6962,-2.6704,-2.661,-2.661,-2.661,-2.6196,-2.5863,-2.5968,-2.5706,-2.5695,-2.6302,-2.6313,-2.624,-2.624,-2.5874,-2.5611,-2.5454,-2.5464,-2.5593,-2.5916,-2.6357,-2.6758,-2.7206,-2.7732,-2.824,-2.8666,-2.9224,-2.9653,-2.9975,-3.0135,-3.0034,-2.976,-3.0034,-3.0034,-2.976,-3.0034,-3.0034,-2.976,-2.976,-2.9382,-2.8724,-2.8724,-2.8538,-2.8269,-2.8269,-2.8081,-2.7809,-2.8081,-2.8269,-2.8269,-2.8653,-2.8757,-2.8757,-2.8735,-2.8735,-2.8828,-2.9301,-2.9128,-2.885,-2.9393,-2.9198,-2.9013,-2.9393,-2.9577,-2.976,-2.976,-3.028,-3.0773,-3.0726,-3.0866,-3.104,-3.1531,-3.1607,-3.1597,-3.1597,-3.1607,-3.1618,-3.1424,-3.1732,-3.1936,-3.1516,-3.1924,-3.2128,-3.1924,-3.2026,-3.2128,-3.2128,-3.2128,-3.2128,-3.2128,-3.2026,-3.1936,-3.1936,-3.1936,-3.1936,-3.1936,-3.2026,-3.2026,-3.1936,-3.1823,-3.1721,-3.1618,-3.1618,-3.1618,0.0,0.0,0.0,0.0,0.0,0.0,-2.7603,0.0,-2.7185,-2.6974,-2.729,-2.7522,-2.7522,-2.7348,-2.7021,-2.6351,-2.6268,-2.6434,-2.7103,-2.7044,-2.6891,-2.6891,-2.6704,-2.6373,-2.5979,-2.5895,-2.5906,-2.5906,-2.6343,-2.6852,-2.7234,-2.7715,-2.8245,-2.8677,-2.9194,-2.9481,-2.9481,-2.9952,-3.0193,-3.0193,-3.0204,-3.0216,-3.0216,-3.0216,-3.0216,-3.0216,-3.0216,-2.9658,-2.8724,-2.8724,-2.8724,-2.8724,-2.8724,-2.8724,-2.8724,-2.8724,-2.8724,-2.8817,-2.9301,-2.9485,-2.9577,-3.0034,-3.0216,-3.0216,-3.0216,-2.9852,-2.9485,-2.9485,-2.9485,-2.9485,-2.9485,-2.9852,-3.0216,-3.0239,-3.1019,-3.1777,-3.1789,-3.1379,-3.1162,-3.1531,-3.2117,-3.242,-3.242,-3.2958,-3.3281,-3.3281,-3.3081,-3.2891,-3.288,-3.2667,-3.2555,-3.2544,-3.2555,-3.2544,-3.2544,-3.2544,-3.2544,-3.2544,-3.2544,-3.2544,-3.2544,-3.2544,-3.2544,-3.2544,-3.2555,-3.2555,-3.2544,-3.2128,-3.1924,-3.1618,-3.1629,-3.1618,-2.6707,0.0,0.0,0.0,0.0,0.0,0.0,0.0,-2.8099,-2.8111,-2.8018,-2.8007,-2.8007,-2.7857,-2.7708,-2.7684,-2.7267,-2.7103,-2.7626,-2.7638,-2.7638,-2.7638,-2.7138,-2.6727,-2.6644,-2.6467,-2.6373,-2.6373,-2.6768,-2.7096,-2.7261,-2.774,-2.8099,-2.8184,-2.8666,-2.8919,-2.8919,-2.9435,-2.9699,-2.9699,-3.0055,-3.0216,-3.0216,-3.0216,-3.0216,-3.0216,-3.0216,-3.0034,-2.9749,-2.9749,-2.9566,-2.929,-2.929,-2.9013,-2.8724,-2.9106,-2.929,-2.9382,-2.9852,-3.0034,-3.0034,-3.0125,-3.0216,-3.0216,-3.0216,-3.0125,-3.0034,-3.0034,-3.0034,-3.0034,-3.0034,-3.0125,-3.0308,-3.0698,-3.1295,-3.1857,-3.2213,-3.2499,-3.2698,-3.2835,-3.2958,-3.3069,-3.3069,-3.317,-3.3181,-3.3092,-3.3081,-3.3081,-3.2656,-3.2768,-3.2768,-3.2544,-3.2667,-3.2779,-3.2779,-3.2779,-3.2779,-3.2779,-3.2555,-3.2544,-3.2544,-3.2544,-3.2544,-3.2544,-3.2667,-3.2667,-3.2544,-3.2443,-3.2342,-3.224,-3.2026,-3.1913,-2.726,-2.7657,-2.8053,-2.8053,0.0,0.0,-2.851,-2.851,-2.851,0.0,-2.8431,-2.8351,-2.8351,-2.8191,-2.8191,-2.8351,-2.8018,-2.7857,-2.8111,-2.8042,-2.7962,-2.803,-2.7638,-2.7313,-2.7313,-2.7208,-2.7033,-2.694,-2.7196,-2.7301,-2.7231,-2.7506,-2.7667,-2.7667,-2.8138,-2.8402,-2.8402,-2.8907,-2.9274,-2.9504,-2.9791,-3.0021,-3.0216,-3.0216,-3.0216,-3.0216,-3.0216,-3.0216,-3.0216,-3.0216,-3.0034,-2.976,-2.976,-2.9566,-2.9371,-2.9658,-2.976,-2.9852,-3.0125,-3.0216,-3.0216,-3.0216,-3.0216,-3.0216,-3.0216,-3.0216,-3.0216,-3.0216,-3.0216,-3.0216,-3.0216,-3.0216,-3.0354,-3.0882,-3.1398,-3.188,-3.2386,-3.2902,-3.3281,-3.3281,-3.3281,-3.3281,-3.3281,-3.3281,-3.3281,-3.3092,-3.3192,-3.3181,-3.2869,-3.298,-3.298,-3.2857,-3.298,-3.3081,-3.3081,-3.3081,-3.3081,-3.3081,-3.2869,-3.2857,-3.2857,-3.2857,-3.2857,-3.2857,-3.298,-3.298,-3.2857,-3.2768,-3.2555,-3.2544,-3.2331,-3.2229,-2.7717,-2.8065,-2.8438,-2.8498,-2.851,0.0,-2.851,-2.851,-2.851,0.0,-2.851,-2.851,-2.851,-2.851,-2.851,-2.851,-2.851,-2.851,-2.851,-2.8203,-2.8042,-2.8179,-2.803,-2.7962,-2.7962,-2.7893,-2.78,-2.7522,-2.7522,-2.7452,-2.7313,-2.7231,-2.7231,-2.7231,-2.7667,-2.7897,-2.7897,-2.8379,-2.8861,-2.9332,-2.9389,-2.9665,-3.0135,-3.0135,-3.017,-3.0216,-3.0216,-3.0216,-3.0216,-3.0216,-3.0216,-3.0216,-3.0216,-3.0216,-3.0216,-3.0216,-3.0216,-3.0216,-3.0216,-3.0216,-3.0216,-3.0216,-3.0216,-3.0216,-3.0216,-3.0216,-3.0216,-3.0216,-3.0216,-3.0216,-3.0216,-3.0216,-3.0365,-3.0962,-3.1421,-3.1892,-3.2454,-3.2948,-3.3281,-3.3281,-3.3281,-3.3281,-3.3281,-3.3281,-3.3281,-3.3281,-3.3281,-3.3281,-3.3281,-3.3281,-3.3281,-3.3281,-3.3281,-3.3281,-3.3281,-3.3281,-3.3281,-3.3281,-3.3281,-3.3281,-3.3281,-3.3281,-3.3281,-3.3281,-3.3281,-3.3281,-3.3281,-3.3092,-3.2779,-3.2555,-3.2555,-3.2555,-2.7717,-2.7801,-2.7981,-2.8402,-2.851,0.0,-2.851,-2.851,-2.851,0.0,-2.851,-2.851,-2.851,-2.851,-2.851,-2.851,-2.8339,-2.8339,-2.851,-2.8431,-2.8431,-2.8431,-2.8259,-2.8099,-2.8099,-2.8042,-2.7881,-2.78,-2.78,-2.78,-2.7812,-2.7534,-2.7441,-2.7441,-2.7393,-2.738,-2.738,-2.7874,-2.8172,-2.8287,-2.8677,-2.9125,-2.9642,-2.9642,-2.9848,-3.0216,-3.0216,-3.0216,-3.0216,-3.0216,-3.0216,-3.0216,-3.0216,-3.0216,-3.0216,-3.0216,-3.0216,-3.0216,-3.0216,-3.0216,-3.0216,-3.0216,-3.0216,-3.0216,-3.0216,-3.0216,-3.0216,-3.0216,-3.0216,-3.0216,-3.0216,-3.0216,-3.0445,-3.1375,-3.1674,-3.2018,-3.2925,-3.3212,-3.3281,-3.3281,-3.3281,-3.3281,-3.3281,-3.3281,-3.3281,-3.3281,-3.3281,-3.3281,-3.3281,-3.3281,-3.3281,-3.3281,-3.3281,-3.3281,-3.3281,-3.3281,-3.3281,-3.3281,-3.3281,-3.3281,-3.3281,-3.3281,-3.3281,-3.3281,-3.3281,-3.3281,-3.3281,-3.3281,-3.3181,-3.3181,-3.288,-3.2779,-2.7697,-2.7742,-2.792,-2.8186,-2.8385,0.0,0.0,-2.851,-2.851,-2.851,-2.851,-2.851,-2.851,-2.851,-2.851,-2.851,-2.8431,-2.8339,-2.851,-2.8431,-2.8419,-2.851,-2.8431,-2.8339,-2.8339,-2.8271,-2.8203,-2.803,-2.7962,-2.7893,-2.7893,-2.7788,-2.7708,-2.7708,-2.7452,-2.7371,-2.7371,-2.7554,-2.7736,-2.7977,-2.823,-2.8609,-2.9102,-2.9378,-2.963,-2.9871,-3.0112,-3.0216,-3.0216,-3.0216,-3.0216,-3.0216,-3.0216,-3.0216,-3.0216,-3.0216,-3.0216,-3.0216,-3.0216,-3.0216,-3.0216,-3.0216,-3.0216,-3.0216,-3.0216,-3.0216,-3.0216,-3.0216,-3.0216,-3.0216,-3.0216,-3.0411,-3.0801,-3.157,-3.1938,-3.234,-3.312,-3.3281,-3.3281,-3.3281,-3.3281,-3.3281,-3.3281,-3.3281,-3.3281,-3.3281,-3.3281,-3.3281,-3.3281,-3.3281,-3.3281,-3.3281,-3.3281,-3.3281,-3.3281,-3.3281,-3.3281,-3.3281,-3.3281,-3.3281,-3.3281,-3.3281,-3.3281,-3.3281,-3.3281,-3.3281,-3.3281,-3.3281,-3.3281,-3.3281,-3.3181,-3.3081,-2.7766,-2.7763,-2.798,-2.8098,-2.8331,-2.859,0.0,0.0,0.0,-2.851,-2.851,-2.851,0.0,0.0,0.0,-2.8378,0.0,0.0,0.0,-2.8279,0.0,-2.851,-2.851,-2.851,-2.851,-2.851,-2.8419,-2.8259,-2.8111,-2.8042,-2.8042,-2.7962,-2.7962,-2.7962,-2.7696,-2.7522,-2.7522,-2.7383,-2.752,-2.7911,-2.7923,-2.826,-2.8648,-2.9097,-2.9397,-2.9604,-2.9906,-3.0135,-3.0216,-3.0216,-3.0216,-3.0216,-3.0216,-3.0216,-3.0216,-3.0216,-3.0216,-3.0216,-3.0216,-3.0216,-3.0216,-3.0216,-3.0216,-3.0216,-3.0216,-3.0216,-3.0216,-3.0216,-3.0216,-3.0239,-3.0342,-3.0686,-3.1169,-3.1766,-3.2202,-3.2627,-3.3166,-3.3281,-3.3281,-3.3281,-3.3281,-3.3281,-3.3281,-3.3281,-3.3281,-3.3281,-3.3281,-3.3281,-3.3281,-3.3281,-3.3281,-3.3281,-3.3281,-3.3281,-3.3281,-3.3281,-3.3281,-3.3281,-3.3281,-3.3281,-3.3281,-3.3281,-3.3281,-3.3281,-3.3281,-3.3281,-3.3281,-3.3281,-3.3281,-3.3281,-3.3281,-3.3281,-2.8186,-2.7851,-2.7765,-2.8553,-2.8755,-2.8724,-2.851,0.0,-2.851,-2.851,0.0,-2.851,-2.851,0.0,0.0,-2.7885,-2.821,-2.8342,-2.7885,-2.821,-2.851,-2.851,-2.851,-2.851,-2.851,-2.851,-2.851,-2.851,-2.8431,-2.8431,-2.8431,-2.8259,-2.8179,-2.8179,-2.795,-2.7708,-2.7522,-2.7708,-2.7743,-2.7534,-2.7801,-2.8152,-2.8632,-2.8463,-2.89,-2.9734,-2.9627,-2.9825,-3.0216,-3.0216,-3.0216,-3.0216,-3.0216,-3.0216,-3.0216,-3.0216,-3.0216,-3.0216,-3.0216,-3.0216,-3.0216,-3.0216,-3.0216,-3.0216,-3.0216,-3.0216,-3.0216,-3.0216,-3.0216,-3.0331,-3.0801,-3.0973,-3.1249,-3.2179,-3.2443,-3.2627,-3.3166,-3.3281,-3.3281,-3.3281,-3.3281,-3.3281,-3.3281,-3.3281,-3.3281,-3.3281,-3.3281,-3.3281,-3.3281,-3.3281,-3.3281,-3.3281,-3.3281,-3.3281,-3.3281,-3.3281,-3.3281,-3.3281,-3.3281,-3.3281,-3.3281,-3.3281,-3.3281,-3.3281,-3.3281,-3.3281,-3.3281,-3.3281,-3.3281,-3.3281,-3.3281,-3.3281,-2.8164,-2.8226,-2.8387,-2.8605,-2.895,-2.9106,-2.8895,-2.8816,-2.8816,-2.8736,0.0,0.0,0.0,0.0,0.0,0.0,-2.8366,-2.8426,0.0,0.0,-2.851,-2.851,-2.851,-2.851,-2.851,-2.851,-2.851,-2.851,-2.851,-2.851,-2.851,-2.8431,-2.8339,-2.8339,-2.8191,-2.8018,-2.7926,-2.7869,-2.78,-2.7708,-2.7881,-2.7998,-2.821,-2.8421,-2.8701,-2.9133,-2.9677,-2.9962,-2.9981,-3.027,-3.0397,-3.0397,-3.0306,-3.0216,-3.0216,-3.0216,-3.0216,-3.0216,-3.0216,-3.0216,-3.0216,-3.0216,-3.0216,-3.0216,-3.0216,-3.0216,-3.0216,-3.0216,-3.0434,-3.0732,-3.0962,-3.1444,-3.1972,-3.2386,-3.273,-3.3005,-3.3235,-3.3281,-3.3281,-3.3281,-3.3281,-3.3281,-3.3281,-3.3281,-3.3281,-3.3281,-3.3281,-3.3281,-3.3281,-3.3281,-3.3281,-3.3281,-3.3281,-3.3281,-3.3281,-3.3281,-3.3281,-3.3281,-3.3281,-3.3281,-3.3281,-3.3281,-3.3281,-3.3281,-3.3281,-3.3281,-3.3281,-3.3281,-3.3281,-3.3281,-3.3281,-3.3281,-2.8672,-2.8812,-2.8963,-2.8874,-2.912,-2.9341,-2.9131,-2.9131,-2.9052,-2.8882,-2.8882,0.0,0.0,0.0,-2.8462,-2.8318,0.0,-2.8462,-2.8318,-2.8414,-2.851,-2.851,-2.851,-2.851,-2.851,-2.851,-2.851,-2.851,-2.851,-2.851,-2.851,-2.851,-2.851,-2.851,-2.8339,-2.8259,-2.8179,-2.8111,-2.8042,-2.7962,-2.8042,-2.8042,-2.8054,-2.8327,-2.8575,-2.8751,-2.9444,-2.9839,-2.9945,-3.0318,-3.0551,-3.0679,-3.0397,-3.0306,-3.0408,-3.0216,-3.0216,-3.0306,-3.0216,-3.0216,-3.0216,-3.0216,-3.0216,-3.0216,-3.0216,-3.0216,-3.0216,-3.0216,-3.0606,-3.1042,-3.118,-3.1846,-3.2523,-3.2661,-3.3005,-3.3281,-3.3281,-3.3281,-3.3281,-3.3281,-3.3281,-3.3281,-3.3281,-3.3281,-3.3281,-3.3281,-3.3281,-3.3281,-3.3281,-3.3281,-3.3281,-3.3281,-3.3281,-3.3281,-3.3281,-3.3281,-3.3281,-3.3281,-3.3281,-3.3281,-3.3281,-3.3281,-3.3281,-3.3281,-3.3281,-3.3281,-3.3281,-3.3281,-3.3281,-3.3281,-3.3281,-3.3281,-3.0024,-2.9618,-2.9176,-2.9334,-2.9406,-2.9341,-2.9131,-2.9131,-2.9131,-2.9052,-2.8961,-2.8791,-2.8803,-2.8657,-2.8342,-2.7837,-2.8174,0.0,0.0,-2.8186,-2.851,-2.851,-2.851,-2.851,-2.851,-2.851,-2.851,-2.851,-2.851,-2.851,-2.851,-2.851,-2.851,-2.851,-2.851,-2.8431,-2.8179,-2.8431,-2.8339,-2.8179,-2.8431,-2.851,-2.851,-2.8271,-2.8476,-2.8881,-2.874,-2.9256,-3.0208,-3.0232,-3.0526,-3.0972,-3.0679,-3.0769,-3.0883,-3.0408,-3.0397,-3.0578,-3.0306,-3.0216,-3.0216,-3.0216,-3.0216,-3.0216,-3.0216,-3.0216,-3.0216,-3.0216,-3.0606,-3.1123,-3.1593,-3.2099,-3.2615,-3.3132,-3.3269,-3.3281,-3.3281,-3.3281,-3.3281,-3.3281,-3.3281,-3.3281,-3.3281,-3.3281,-3.3281,-3.3281,-3.3281,-3.3281,-3.3281,-3.3281,-3.3281,-3.3281,-3.3281,-3.3281,-3.3281,-3.3281,-3.3281,-3.3281,-3.3281,-3.3281,-3.3281,-3.3281,-3.3281,-3.3281,-3.3281,-3.3281,-3.3281,-3.3281,-3.3281,-3.3281,-3.3281,-3.3281,-3.0215,-3.024,-3.0138,-2.9947,-2.9973,-2.9973,-2.9611,-2.9546,-2.9534,-2.9353,-2.9263,-2.9184,-2.904,-2.8973,-2.8834,-2.8663,-2.8785,-2.8755,0.0,-2.8469,-2.8378,-2.8029,-2.8294,-2.851,-2.851,-2.8657,-2.8657,-2.851,-2.8657,-2.8724,-2.8724,-2.8724,-2.8736,-2.8895,-2.8736,-2.8645,-2.8566,-2.8498,-2.851,-2.8431,-2.851,-2.851,-2.851,-2.8431,-2.8527,-2.8638,-2.8985,-2.9166,-2.939,-3.0087,-3.0466,-3.0655,-3.0831,-3.1139,-3.1407,-3.0668,-3.0589,-3.0871,-3.0589,-3.0306,-3.0216,-3.0216,-3.0306,-3.0487,-3.0487,-3.0589,-3.0772,-3.0927,-3.1379,-3.1794,-3.2099,-3.2615,-3.3063,-3.3247,-3.3281,-3.3281,-3.3281,-3.3281,-3.3281,-3.3281,-3.3281,-3.3281,-3.3281,-3.3281,-3.3281,-3.3281,-3.3281,-3.3281,-3.3281,-3.3281,-3.3281,-3.3281,-3.3281,-3.3281,-3.3281,-3.3281,-3.3281,-3.3281,-3.3281,-3.3281,-3.3281,-3.3281,-3.3281,-3.3281,-3.3281,-3.3281,-3.3281,-3.3281,-3.3281,-3.3281,-3.3281,-3.3281,-3.0693,-3.0748,-3.0622,-3.0305,-3.0292,-3.0292,-3.0011,-2.9934,-2.9856,-2.9599,-2.9509,-2.9341,-2.9197,-2.9131,-2.9131,-2.9131,-2.9131,-2.9052,0.0,-2.8816,-2.8615,-2.8276,-2.8216,-2.8222,-2.83,-2.8367,-2.853,-2.8724,-2.8736,-2.8803,-2.8882,-2.8882,-2.8961,-2.9131,-2.8961,-2.8882,-2.8791,-2.8657,-2.8578,-2.851,-2.851,-2.851,-2.851,-2.851,-2.851,-2.8522,-2.8871,-2.9042,-2.9106,-2.9785,-3.0274,-3.0644,-3.0738,-3.1151,-3.1661,-3.0949,-3.0871,-3.0984,-3.0781,-3.0589,-3.0499,-3.0499,-3.0589,-3.0769,-3.0769,-3.0871,-3.1125,-3.1634,-3.2055,-3.2369,-3.2982,-3.3325,-3.358,-3.3481,-3.3481,-3.3381,-3.3281,-3.3281,-3.3281,-3.3281,-3.3281,-3.3281,-3.3281,-3.3281,-3.3281,-3.3281,-3.3281,-3.3281,-3.3281,-3.3281,-3.3281,-3.3281,-3.3281,-3.3281,-3.3281,-3.3281,-3.3281,-3.3281,-3.3281,-3.3281,-3.3281,-3.3281,-3.3281,-3.3281,-3.3281,-3.3281,-3.3281,-3.3281,-3.3281,-3.3281,-3.3281,-3.3281]},{"header":{"parameterUnit":"m.s-1","parameterCategory":1,"la1":30.6,"la2":29.2853,"lo1":-89.7004,"lo2":-87.6739,"dy":0.0162,"dx":0.0183,"nx":112,"ny":82,"refTime":"2023-06-09T12:00:00:Z","depth":0,"parameterNumber":3,"parameterNumberName":"V-component_of_WINDS"},"data":[0.0,0.0,0.0,0.0,0.0,0.0,0.0,0.0,0.0,0.0,0.0,0.0,0.0,0.0,0.0,0.0,0.0,0.0,0.0,0.0,0.0,0.0,0.0,0.0,0.0,0.0,0.0,0.0,0.0,0.0,0.0,0.0,0.0,0.0,0.0,0.0,0.0,0.0,0.0,0.0,0.0,0.0,0.0,0.0,0.0,0.0,0.0,0.0,0.0,0.0,0.0,0.0,0.0,0.0,0.0,0.0,0.0,0.0,0.0,0.0,0.0,0.0,0.0,0.0,0.0,0.0,0.0,0.0,0.0,0.0,0.0,0.0,0.0,0.0,0.0,0.0,0.0,0.0,0.0,0.0,0.0,0.0,0.0,0.0,0.0,0.0,0.0,0.0,0.0,0.0,-3.3634,-3.3686,-3.4975,-3.5818,-3.5803,-3.5747,-3.5359,-3.4545,0.0,0.0,0.0,0.0,0.0,0.0,0.0,0.0,0.0,0.0,0.0,0.0,0.0,0.0,0.0,0.0,0.0,0.0,0.0,0.0,0.0,0.0,0.0,0.0,0.0,0.0,0.0,0.0,0.0,0.0,0.0,0.0,0.0,0.0,0.0,0.0,0.0,0.0,0.0,0.0,0.0,0.0,0.0,0.0,0.0,0.0,0.0,0.0,0.0,0.0,0.0,0.0,0.0,0.0,0.0,0.0,0.0,0.0,0.0,0.0,0.0,0.0,0.0,0.0,0.0,0.0,0.0,0.0,0.0,0.0,0.0,0.0,0.0,0.0,0.0,0.0,0.0,0.0,0.0,0.0,0.0,0.0,0.0,0.0,0.0,0.0,0.0,0.0,0.0,0.0,0.0,0.0,0.0,0.0,0.0,0.0,0.0,0.0,0.0,0.0,0.0,0.0,0.0,0.0,-3.4767,-3.5437,-3.573,-3.5869,-3.5803,-3.5794,-3.5388,-3.4468,0.0,0.0,0.0,0.0,0.0,0.0,0.0,0.0,0.0,0.0,0.0,0.0,0.0,0.0,0.0,0.0,0.0,0.0,0.0,0.0,0.0,0.0,0.0,0.0,0.0,0.0,0.0,0.0,0.0,0.0,0.0,0.0,0.0,0.0,0.0,0.0,0.0,0.0,0.0,0.0,0.0,0.0,0.0,0.0,0.0,0.0,0.0,0.0,0.0,0.0,0.0,0.0,0.0,0.0,0.0,0.0,0.0,0.0,0.0,0.0,0.0,0.0,0.0,0.0,0.0,0.0,0.0,0.0,0.0,0.0,0.0,0.0,0.0,0.0,0.0,0.0,0.0,0.0,0.0,0.0,0.0,0.0,0.0,0.0,0.0,0.0,0.0,0.0,0.0,0.0,0.0,0.0,0.0,0.0,0.0,0.0,0.0,0.0,0.0,0.0,0.0,0.0,0.0,-3.4393,-3.4945,-3.5767,-3.5842,-3.5829,-3.5747,-3.5747,-3.5553,-3.5125,-3.5074,0.0,0.0,0.0,0.0,0.0,0.0,0.0,0.0,0.0,0.0,0.0,0.0,0.0,0.0,0.0,0.0,0.0,0.0,0.0,0.0,0.0,0.0,0.0,0.0,0.0,0.0,0.0,0.0,0.0,0.0,0.0,0.0,0.0,0.0,0.0,0.0,0.0,0.0,0.0,0.0,0.0,0.0,0.0,0.0,0.0,0.0,0.0,0.0,0.0,0.0,0.0,0.0,0.0,0.0,0.0,0.0,0.0,0.0,0.0,0.0,0.0,0.0,0.0,0.0,0.0,0.0,0.0,0.0,0.0,0.0,0.0,0.0,0.0,0.0,0.0,0.0,0.0,0.0,0.0,0.0,0.0,0.0,0.0,0.0,0.0,0.0,0.0,0.0,0.0,0.0,0.0,0.0,0.0,0.0,0.0,0.0,0.0,0.0,0.0,0.0,0.0,0.0,-3.5203,-3.5492,-3.6323,-3.6395,-3.6358,-3.6297,-3.6297,-3.6276,-3.6261,-3.6219,0.0,0.0,0.0,0.0,0.0,0.0,0.0,0.0,0.0,0.0,0.0,0.0,0.0,0.0,0.0,0.0,0.0,0.0,0.0,0.0,0.0,0.0,0.0,0.0,0.0,0.0,0.0,0.0,0.0,0.0,0.0,0.0,0.0,0.0,0.0,0.0,0.0,0.0,0.0,0.0,0.0,0.0,0.0,0.0,0.0,0.0,0.0,0.0,0.0,0.0,0.0,0.0,0.0,0.0,0.0,0.0,0.0,0.0,0.0,0.0,0.0,0.0,0.0,0.0,0.0,0.0,0.0,0.0,0.0,0.0,0.0,0.0,0.0,0.0,0.0,0.0,0.0,0.0,0.0,0.0,0.0,0.0,0.0,0.0,0.0,0.0,0.0,0.0,0.0,0.0,0.0,0.0,0.0,0.0,0.0,0.0,0.0,0.0,0.0,0.0,0.0,0.0,-3.6961,-3.7261,-3.813,-3.8161,-3.8093,-3.8036,-3.8025,-3.8001,-3.7945,-3.7926,0.0,0.0,0.0,0.0,0.0,0.0,0.0,0.0,0.0,0.0,0.0,0.0,0.0,0.0,0.0,0.0,0.0,0.0,0.0,0.0,0.0,0.0,0.0,0.0,0.0,0.0,0.0,0.0,0.0,0.0,0.0,0.0,0.0,0.0,0.0,0.0,0.0,0.0,0.0,0.0,0.0,0.0,0.0,0.0,0.0,0.0,0.0,0.0,0.0,0.0,0.0,0.0,0.0,0.0,0.0,0.0,0.0,0.0,0.0,0.0,0.0,0.0,0.0,0.0,0.0,0.0,0.0,0.0,0.0,0.0,0.0,0.0,0.0,0.0,0.0,0.0,0.0,0.0,0.0,0.0,0.0,0.0,0.0,0.0,0.0,0.0,0.0,0.0,0.0,0.0,0.0,0.0,0.0,0.0,0.0,0.0,0.0,0.0,0.0,0.0,0.0,0.0,-3.7591,-3.8013,-3.8316,-3.8326,-3.8277,-3.8202,-3.8202,-3.8199,-3.8157,0.0,0.0,0.0,0.0,0.0,0.0,0.0,0.0,0.0,0.0,0.0,0.0,0.0,0.0,0.0,0.0,0.0,0.0,0.0,0.0,0.0,0.0,0.0,0.0,0.0,0.0,0.0,0.0,0.0,0.0,0.0,0.0,0.0,0.0,0.0,0.0,0.0,0.0,0.0,0.0,0.0,0.0,0.0,0.0,0.0,0.0,0.0,0.0,0.0,0.0,0.0,0.0,0.0,0.0,0.0,0.0,0.0,0.0,0.0,0.0,0.0,0.0,0.0,0.0,0.0,0.0,0.0,0.0,0.0,0.0,0.0,0.0,0.0,0.0,0.0,0.0,0.0,0.0,0.0,0.0,0.0,0.0,0.0,0.0,0.0,0.0,0.0,0.0,0.0,0.0,0.0,0.0,0.0,0.0,0.0,0.0,0.0,0.0,0.0,0.0,0.0,0.0,-3.7866,-3.8403,-3.884,-3.9043,-3.9062,-3.9041,-3.8972,-3.8972,-3.8936,-3.8942,0.0,0.0,0.0,0.0,0.0,0.0,0.0,0.0,0.0,0.0,0.0,0.0,0.0,0.0,0.0,0.0,0.0,0.0,0.0,0.0,0.0,0.0,0.0,0.0,0.0,0.0,0.0,0.0,0.0,0.0,0.0,0.0,0.0,0.0,0.0,0.0,0.0,0.0,0.0,0.0,0.0,0.0,0.0,0.0,0.0,0.0,0.0,0.0,0.0,0.0,0.0,0.0,0.0,0.0,0.0,0.0,0.0,0.0,0.0,0.0,0.0,0.0,0.0,0.0,0.0,0.0,0.0,0.0,0.0,0.0,0.0,0.0,0.0,0.0,0.0,0.0,0.0,0.0,0.0,0.0,0.0,0.0,0.0,0.0,0.0,0.0,0.0,0.0,0.0,0.0,0.0,0.0,0.0,0.0,0.0,0.0,0.0,0.0,0.0,0.0,0.0,0.0,-3.951,-3.9615,-3.9893,-4.0629,-4.0694,-4.0668,-4.0621,-4.0588,-4.0579,0.0,0.0,0.0,0.0,0.0,0.0,0.0,0.0,0.0,0.0,0.0,0.0,0.0,0.0,0.0,0.0,0.0,0.0,0.0,0.0,0.0,0.0,0.0,0.0,0.0,0.0,0.0,0.0,0.0,0.0,0.0,0.0,0.0,0.0,0.0,0.0,0.0,0.0,0.0,0.0,0.0,0.0,0.0,0.0,0.0,0.0,0.0,0.0,0.0,0.0,0.0,0.0,0.0,0.0,0.0,0.0,0.0,0.0,0.0,0.0,0.0,0.0,0.0,0.0,0.0,0.0,0.0,0.0,0.0,0.0,0.0,0.0,0.0,0.0,0.0,0.0,0.0,0.0,0.0,0.0,0.0,0.0,0.0,0.0,0.0,0.0,0.0,0.0,0.0,0.0,0.0,0.0,0.0,0.0,0.0,0.0,0.0,0.0,0.0,0.0,0.0,0.0,0.0,-3.9568,-4.0048,-4.0467,-4.0674,-4.0688,-4.0681,-4.0621,-4.0588,-4.0545,-4.0438,0.0,0.0,0.0,0.0,0.0,0.0,0.0,0.0,0.0,0.0,0.0,0.0,0.0,0.0,0.0,0.0,0.0,0.0,0.0,0.0,0.0,0.0,0.0,0.0,0.0,0.0,0.0,0.0,0.0,0.0,0.0,0.0,0.0,0.0,0.0,0.0,0.0,0.0,0.0,0.0,0.0,0.0,0.0,0.0,0.0,0.0,0.0,0.0,0.0,0.0,0.0,0.0,0.0,0.0,0.0,0.0,0.0,0.0,0.0,0.0,0.0,0.0,0.0,0.0,0.0,0.0,0.0,0.0,0.0,0.0,0.0,0.0,0.0,0.0,0.0,0.0,0.0,0.0,0.0,0.0,0.0,0.0,0.0,0.0,0.0,0.0,0.0,0.0,0.0,0.0,0.0,0.0,0.0,0.0,0.0,0.0,0.0,0.0,0.0,0.0,0.0,0.0,-4.0048,-4.0725,-4.121,-4.1183,-4.1465,-4.1629,-4.1596,-4.1566,-4.152,-4.1443,0.0,0.0,0.0,0.0,0.0,0.0,0.0,0.0,0.0,0.0,0.0,0.0,0.0,0.0,0.0,0.0,0.0,0.0,0.0,0.0,0.0,0.0,0.0,0.0,0.0,0.0,0.0,0.0,0.0,0.0,0.0,0.0,0.0,0.0,0.0,0.0,0.0,0.0,0.0,0.0,0.0,0.0,0.0,0.0,0.0,0.0,0.0,0.0,0.0,0.0,0.0,0.0,0.0,0.0,0.0,0.0,0.0,0.0,0.0,0.0,0.0,0.0,0.0,0.0,0.0,0.0,0.0,0.0,0.0,0.0,0.0,0.0,0.0,0.0,0.0,0.0,0.0,0.0,0.0,0.0,0.0,0.0,0.0,0.0,0.0,0.0,0.0,0.0,0.0,0.0,0.0,0.0,0.0,0.0,0.0,0.0,0.0,0.0,0.0,0.0,0.0,0.0,-4.0945,-4.1614,-4.2068,-4.2029,-4.2668,-4.3111,-4.3076,-4.3025,-4.2994,-4.2981,0.0,0.0,0.0,0.0,0.0,0.0,0.0,0.0,0.0,0.0,0.0,0.0,0.0,0.0,0.0,0.0,0.0,0.0,0.0,0.0,0.0,0.0,0.0,0.0,0.0,0.0,0.0,0.0,0.0,0.0,0.0,0.0,0.0,0.0,0.0,0.0,0.0,0.0,0.0,0.0,0.0,0.0,0.0,0.0,0.0,0.0,0.0,0.0,0.0,0.0,0.0,0.0,0.0,0.0,0.0,0.0,0.0,0.0,0.0,0.0,-3.3006,-3.2407,0.0,0.0,0.0,0.0,0.0,0.0,0.0,0.0,0.0,0.0,0.0,0.0,0.0,0.0,0.0,0.0,0.0,0.0,0.0,0.0,0.0,0.0,0.0,0.0,0.0,0.0,0.0,0.0,0.0,0.0,0.0,0.0,0.0,0.0,0.0,0.0,0.0,0.0,0.0,0.0,-4.2671,-4.2787,-4.2857,-4.2842,-4.3002,-4.3085,-4.3032,-4.3015,-4.2963,-4.2852,-4.2814,0.0,0.0,0.0,0.0,0.0,0.0,0.0,0.0,0.0,0.0,0.0,0.0,0.0,0.0,0.0,0.0,0.0,0.0,0.0,0.0,0.0,0.0,0.0,0.0,0.0,0.0,0.0,0.0,0.0,0.0,0.0,0.0,0.0,0.0,0.0,0.0,0.0,0.0,0.0,0.0,0.0,0.0,0.0,0.0,0.0,0.0,0.0,0.0,0.0,0.0,0.0,0.0,0.0,0.0,0.0,0.0,0.0,0.0,0.0,-3.3905,-3.3158,0.0,0.0,0.0,0.0,0.0,0.0,0.0,0.0,0.0,0.0,0.0,0.0,0.0,0.0,0.0,0.0,0.0,0.0,0.0,0.0,0.0,0.0,0.0,0.0,0.0,0.0,0.0,0.0,0.0,0.0,0.0,0.0,0.0,0.0,0.0,0.0,0.0,0.0,0.0,0.0,-4.3119,-4.3474,-4.3712,-4.3676,-4.4028,-4.4243,-4.4189,-4.4116,-4.4019,-4.3956,-4.383,0.0,0.0,0.0,0.0,0.0,0.0,0.0,0.0,0.0,0.0,0.0,0.0,0.0,0.0,0.0,0.0,0.0,0.0,0.0,0.0,0.0,0.0,0.0,0.0,0.0,0.0,0.0,0.0,0.0,0.0,0.0,0.0,0.0,0.0,0.0,0.0,0.0,0.0,0.0,0.0,0.0,0.0,0.0,0.0,0.0,0.0,0.0,0.0,0.0,0.0,0.0,0.0,0.0,-3.4191,-3.4693,-3.6026,-3.6079,-3.6508,-3.7069,-3.4961,-3.4371,-3.4826,-3.4331,0.0,0.0,0.0,0.0,0.0,0.0,0.0,0.0,0.0,0.0,0.0,0.0,0.0,0.0,0.0,0.0,0.0,0.0,0.0,0.0,0.0,0.0,-3.9869,-4.0042,-4.0577,-4.0907,-4.0256,0.0,0.0,0.0,0.0,0.0,0.0,0.0,0.0,0.0,0.0,0.0,-4.3451,-4.4122,-4.4564,-4.4491,-4.509,-4.5476,-4.5476,-4.5339,-4.5213,-4.5213,-4.501,-4.4846,0.0,0.0,0.0,0.0,0.0,0.0,0.0,0.0,0.0,0.0,0.0,0.0,0.0,0.0,0.0,0.0,0.0,0.0,0.0,0.0,0.0,0.0,0.0,0.0,0.0,0.0,0.0,0.0,0.0,0.0,0.0,0.0,-3.1424,-3.1424,0.0,0.0,0.0,0.0,0.0,0.0,0.0,0.0,0.0,0.0,0.0,0.0,0.0,-3.441,-3.5149,-3.5861,-3.6304,-3.6485,-3.7068,-3.7506,-3.7771,-3.7771,-3.781,-3.786,-3.7578,0.0,-3.6792,-3.7441,0.0,0.0,0.0,0.0,0.0,0.0,0.0,0.0,0.0,0.0,0.0,0.0,0.0,0.0,0.0,0.0,0.0,0.0,0.0,0.0,0.0,0.0,-4.0876,-4.148,-4.1691,-4.1933,-4.2499,-4.1712,-4.1082,-4.18,-4.2008,-4.2318,0.0,0.0,0.0,0.0,0.0,0.0,-4.5185,-4.5282,-4.5322,-4.5266,-4.5343,-4.5419,-4.5419,-4.5379,-4.5338,-4.5297,-4.5148,-4.5014,-4.4986,-4.4846,0.0,0.0,0.0,0.0,0.0,0.0,0.0,0.0,0.0,0.0,0.0,0.0,0.0,0.0,0.0,0.0,0.0,0.0,0.0,0.0,0.0,0.0,0.0,0.0,0.0,0.0,0.0,0.0,0.0,-3.1187,-3.1666,-3.211,-3.257,-3.2842,0.0,0.0,0.0,0.0,0.0,0.0,0.0,0.0,0.0,-3.4759,-3.523,-3.5667,-3.6051,-3.6903,-3.7606,-3.8142,-3.8016,-3.8454,-3.9418,-3.8975,-3.9028,-3.946,-3.9494,-3.9373,-3.9131,-3.8498,-3.8033,-3.7744,0.0,0.0,0.0,0.0,-3.8447,-3.852,-3.8965,-3.9116,-3.908,-3.9116,0.0,0.0,0.0,0.0,0.0,0.0,0.0,-4.1075,-4.1435,-4.1889,-4.2318,-4.2609,-4.2659,-4.2728,-4.313,-4.2646,-4.2241,-4.2593,-4.2999,-4.3397,-4.3747,-4.4498,0.0,0.0,0.0,-4.5494,-4.5438,-4.5438,-4.5438,-4.54,-4.54,-4.536,-4.5297,-4.5192,-4.5061,-4.4967,-4.4821,-4.4764,-4.4738,-4.4659,-4.4605,0.0,0.0,0.0,0.0,0.0,0.0,0.0,0.0,0.0,0.0,0.0,0.0,0.0,0.0,0.0,0.0,0.0,0.0,0.0,0.0,0.0,0.0,0.0,0.0,0.0,0.0,0.0,0.0,-3.1867,-3.2275,-3.2921,-3.3444,-3.3647,0.0,0.0,0.0,0.0,0.0,0.0,-3.5557,-3.5626,-3.5822,-3.6233,-3.6826,-3.7247,-3.7477,-3.8127,-3.8793,-3.9471,-3.8837,-3.9234,-4.0473,-3.9873,-3.9957,-4.0579,-4.081,-4.0949,-4.0939,-3.9431,-3.8793,-3.8806,-3.8844,-3.8907,-3.8947,-3.9005,-3.9021,-3.9105,-3.976,-3.9946,-3.9927,-3.9966,-4.0539,-4.114,-4.0762,0.0,0.0,0.0,0.0,-4.2331,-4.2331,-4.2802,-4.3349,-4.355,-4.3537,-4.3573,-4.3815,-4.3779,-4.3638,-4.3442,-4.3857,-4.4267,-4.446,-4.5035,0.0,-4.5339,-4.538,-4.54,-4.5399,-4.538,-4.5341,-4.5321,-4.5319,-4.5297,-4.517,-4.5057,-4.4895,-4.4815,-4.4632,-4.4542,-4.4542,-4.4487,-4.443,-4.443,0.0,0.0,0.0,0.0,0.0,0.0,0.0,0.0,0.0,0.0,0.0,0.0,0.0,0.0,0.0,0.0,0.0,0.0,0.0,0.0,0.0,0.0,0.0,0.0,0.0,0.0,0.0,0.0,0.0,-3.3997,-3.5381,0.0,0.0,0.0,0.0,-3.5293,-3.5228,-3.5595,-3.6394,-3.6495,-3.7239,-3.8763,-3.8839,-3.9279,-4.01,-4.0157,-4.0195,-4.023,-4.0264,-4.0336,-4.0502,-4.0454,-4.0466,-4.0562,-4.1373,-4.1739,-4.1694,-4.0958,-4.0657,-4.0671,-4.0664,-4.0674,-4.0664,-4.0674,-4.0674,-4.0684,-4.0731,-4.0738,-4.0742,-4.0742,-4.1338,-4.2194,-4.2978,-4.3249,0.0,0.0,-4.3208,-4.3234,-4.3227,-4.3272,-4.3477,-4.4183,-4.4344,-4.454,-4.5315,-4.538,-4.5074,-4.4378,-4.4226,-4.444,-4.5208,0.0,-4.54,-4.54,-4.54,-4.54,-4.5399,-4.5297,-4.5192,-4.5106,-4.5125,-4.5125,-4.5103,-4.5103,-4.5103,-4.508,-4.477,-4.4578,-4.4578,-4.443,-4.4285,-4.4214,-4.4255,0.0,0.0,0.0,0.0,0.0,0.0,0.0,0.0,0.0,0.0,0.0,0.0,0.0,0.0,0.0,0.0,0.0,0.0,0.0,0.0,0.0,0.0,0.0,0.0,0.0,0.0,0.0,0.0,-3.468,-3.5321,0.0,-3.6077,-3.6353,-3.6621,-3.69,-3.7381,-3.7555,-3.7292,-3.7842,-3.8148,-3.8151,-3.8706,-3.9145,-3.947,-4.0024,-4.0577,-4.1149,-4.1167,-4.149,-4.2115,-4.2112,-4.2129,-4.2181,-4.2508,-4.2643,-4.2624,-4.2375,-4.2271,-4.2281,-4.227,-4.2311,-4.2351,-4.2395,-4.24,-4.2416,-4.2404,-4.2412,-4.24,-4.2407,-4.262,-4.2942,-4.3234,-4.3324,-4.3264,-4.325,-4.3573,-4.3933,-4.3952,-4.436,-4.4845,-4.5066,-4.5071,-4.513,-4.5399,-4.54,-4.5263,-4.5036,-4.4959,-4.4996,-4.5282,-4.538,-4.538,-4.5279,-4.5319,-4.5339,-4.5338,-4.5297,-4.5213,-4.5125,-4.5103,-4.5014,-4.4846,-4.4796,-4.4745,-4.4667,-4.4496,-4.4401,-4.4401,-4.4344,-4.4285,-4.4255,-4.4244,-4.4426,0.0,0.0,0.0,0.0,0.0,0.0,0.0,0.0,0.0,0.0,0.0,0.0,0.0,0.0,0.0,0.0,0.0,0.0,0.0,0.0,0.0,0.0,0.0,0.0,0.0,0.0,-3.4954,-3.5454,-3.6112,-3.6657,-3.6908,-3.7177,-3.7445,-3.7728,-3.8265,-3.8438,-3.8151,-3.8686,-3.8877,-3.8591,-3.9393,-3.9833,-3.9888,-4.0711,-4.1456,-4.2029,-4.2047,-4.2408,-4.2998,-4.3015,-4.3052,-4.3124,-4.3393,-4.3508,-4.3528,-4.3816,-4.3932,-4.3893,-4.331,-4.3127,-4.3173,-4.3207,-4.3231,-4.3233,-4.3233,-4.3233,-4.3291,-4.3581,-4.3659,-4.3736,-4.4018,-4.4071,-4.4025,-4.4013,-4.435,-4.4703,-4.4703,-4.5126,-4.555,-4.5495,-4.5438,-4.5419,-4.54,-4.538,-4.5338,-4.5398,-4.5338,-4.5297,-4.5297,-4.5338,-4.5413,-4.5551,-4.5426,-4.5466,-4.5951,-4.5738,-4.5525,-4.5385,-4.5607,-4.5565,-4.5119,-4.5264,-4.535,-4.5265,-4.4875,-4.4666,-4.4666,-4.4655,-4.4624,-4.4575,-4.4513,-4.4711,-4.518,0.0,0.0,0.0,0.0,0.0,0.0,0.0,0.0,0.0,0.0,0.0,0.0,0.0,0.0,0.0,0.0,0.0,0.0,0.0,0.0,0.0,0.0,0.0,-3.5948,-3.6156,-3.6331,-3.6348,-3.7888,-3.8666,-3.7898,-3.8532,-3.8667,-3.7846,-3.7769,-3.8151,-3.903,-3.9088,-3.9489,-4.0348,-4.1132,-4.1571,-4.1646,-4.2412,-4.2833,-4.2927,-4.3,-4.3054,-4.3092,-4.3145,-4.3181,-4.322,-4.3989,-4.4335,-4.4412,-4.524,-4.5586,-4.5432,-4.3816,-4.3181,-4.3181,-4.3181,-4.3181,-4.3181,-4.3181,-4.3181,-4.3313,-4.4164,-4.4446,-4.46,-4.543,-4.57,-4.5684,-4.562,-4.555,-4.5495,-4.5495,-4.5495,-4.5495,-4.5419,-4.5438,-4.5476,-4.5419,-4.5419,-4.5417,-4.5417,-4.5376,-4.5316,-4.5297,-4.5297,-4.5521,-4.6187,-4.5726,0.0,-4.7195,-4.662,-4.6038,-4.59,-4.6553,-4.6685,-4.5895,-4.6477,-4.6851,-4.6851,-4.591,-4.5357,-4.5357,-4.5332,-4.5254,-4.5138,-4.5175,-4.5175,-4.5175,0.0,0.0,0.0,0.0,0.0,0.0,0.0,0.0,0.0,0.0,0.0,0.0,0.0,0.0,0.0,0.0,0.0,0.0,0.0,0.0,0.0,0.0,-3.6696,-3.6944,-3.7127,-3.7262,-3.7296,-3.7752,-3.8209,-3.8628,-3.8858,-3.9164,-3.9565,-3.9603,-3.9947,-4.0769,-4.0807,-4.1208,-4.2087,-4.2335,-4.245,-4.247,-4.268,-4.312,-4.3771,-4.3847,-4.4191,-4.4803,-4.4821,-4.4858,-4.4913,-4.5143,-4.524,-4.5259,-4.549,-4.5586,-4.5547,-4.5086,-4.4913,-4.4913,-4.4913,-4.4913,-4.4913,-4.4913,-4.4913,-4.4949,-4.5197,-4.5271,-4.531,-4.556,-4.5637,-4.562,-4.555,-4.5513,-4.5495,-4.5438,-4.5457,-4.5476,-4.5438,-4.54,-4.54,-4.5339,-4.5797,-4.6197,-4.6197,-4.6175,-4.5984,-4.5392,-4.5297,-4.5564,-4.6342,-4.5726,-4.5483,-4.641,-4.6234,-4.5972,-4.5763,-4.6459,-4.6794,-4.6469,-4.6071,-4.5805,-4.5805,-4.4898,-4.4371,-4.4371,-4.4952,-4.5565,-4.6108,-4.6635,-4.6897,0.0,0.0,0.0,0.0,0.0,0.0,0.0,0.0,0.0,0.0,0.0,0.0,0.0,0.0,0.0,0.0,0.0,0.0,0.0,0.0,0.0,0.0,-3.7582,-3.7555,-3.8199,-3.8085,-3.7981,-3.8061,-3.8461,-3.8918,-3.9489,-3.9546,-3.989,-4.075,-4.0807,-4.117,-4.1991,-4.203,-4.2278,-4.2775,-4.3138,-4.331,-4.3349,-4.3694,-4.4154,-4.4652,-4.4672,-4.4978,-4.5457,-4.5495,-4.5513,-4.5568,-4.5586,-4.5586,-4.5586,-4.5586,-4.5586,-4.5586,0.0,0.0,0.0,0.0,-4.5586,-4.5586,-4.5586,-4.5586,-4.5605,-4.5568,-4.5568,-4.555,-4.5513,-4.5513,-4.5513,-4.5476,-4.5457,-4.5458,-4.54,-4.5438,-4.5438,-4.5379,-4.538,-4.538,-4.5298,-4.566,-4.6003,-4.6003,-4.5919,0.0,-4.5246,-4.5235,-4.5521,-4.6187,-4.5879,-4.5892,-4.6814,-4.691,-4.6817,-4.6679,-4.7348,-4.7623,-4.7191,-4.6997,0.0,0.0,0.0,-4.5547,-4.5547,-4.6015,0.0,0.0,0.0,-4.7451,-4.7151,-4.7046,0.0,0.0,-4.5793,-4.5885,0.0,0.0,0.0,0.0,0.0,0.0,0.0,0.0,0.0,0.0,0.0,0.0,0.0,0.0,0.0,0.0,-3.8149,-3.8495,-3.9339,-3.8906,-3.855,-3.8748,-3.9559,-4.0157,-4.0291,-4.0387,-4.0731,-4.1437,-4.159,-4.2011,-4.2889,-4.2947,0.0,0.0,0.0,-4.419,-4.423,-4.5092,-4.5533,-4.5554,-4.563,-4.563,-4.5554,-4.5611,-4.5591,-4.5495,-4.555,-4.5568,-4.5568,-4.5568,-4.5586,-4.5586,-4.5586,-4.5586,-4.5586,-4.5586,-4.5586,-4.5586,-4.5586,0.0,0.0,-4.5513,-4.5495,-4.5476,-4.5419,-4.54,-4.54,-4.54,-4.54,-4.5398,-4.5398,-4.5398,-4.5359,-4.5297,-4.5338,-4.5378,-4.5297,-4.5352,-4.5447,-4.5502,-4.5388,-4.529,-4.5385,-4.5373,-4.5544,-4.6051,-4.6215,-4.6698,-4.7854,-4.8053,-4.8035,-4.7951,-4.8632,0.0,-4.7988,-4.8441,-4.876,-4.876,-4.8017,-4.7608,-4.7701,-4.7652,-4.7689,-4.7831,-4.7782,-4.7429,-4.6773,-4.668,-4.6643,-4.6624,-4.6363,-4.5941,0.0,0.0,0.0,0.0,0.0,0.0,0.0,0.0,0.0,0.0,0.0,0.0,0.0,0.0,0.0,-3.8729,-3.8887,-3.897,-3.9146,-3.9088,-3.9227,-3.9747,-4.0081,-4.0253,-4.031,-4.0883,-4.1323,-4.1495,-4.2144,-4.2908,-4.373,-4.3768,-4.4093,-4.4781,-4.4972,-4.5048,-4.5069,-4.5932,-4.6374,-4.6395,-4.7144,0.0,-4.6455,-4.6455,-4.6091,-4.5419,-4.5438,-4.5438,-4.5438,-4.5438,-4.5476,-4.5513,-4.5586,-4.5586,-4.5586,-4.5586,-4.5586,-4.5586,-4.5586,-4.5568,-4.5513,-4.5495,-4.5457,-4.5419,-4.54,-4.54,0.0,-4.5399,-4.5338,-4.5235,-4.5317,-4.5317,-4.5297,-4.5254,-4.5275,-4.5297,-4.517,-4.57,-4.634,-4.6884,-4.6948,-4.7124,-4.7662,-4.666,-4.6036,-4.6776,-4.6826,-4.7078,-4.796,-4.7946,-4.783,-4.7768,-4.8479,-4.8887,-4.872,-4.8203,-4.7924,-4.7924,-4.7181,-4.7014,-4.7664,-4.7701,-4.7999,-4.8649,-4.8651,-4.8558,-4.8426,-4.7776,-4.746,-4.746,-4.6758,-4.6721,0.0,0.0,0.0,0.0,0.0,0.0,0.0,0.0,0.0,0.0,0.0,-3.7514,0.0,0.0,-3.8618,-3.9027,-3.9101,-3.9129,-3.9156,-3.9237,-3.9427,-3.9758,-3.9889,-3.9975,-4.0077,-4.0519,-4.1149,-4.1988,-4.2526,-4.3348,-4.459,-4.4647,-4.5029,-4.587,-4.5908,-4.6118,-4.6557,-4.698,-4.7212,-4.7212,-4.7673,-4.7676,-4.7254,-4.7294,-4.7066,-4.6626,-4.6224,-4.6052,-4.6014,-4.5573,-4.5419,-4.5438,-4.5495,-4.5513,-4.555,-4.5513,-4.5495,-4.5495,-4.5495,-4.5495,-4.5438,-4.5419,-4.5341,-4.53,-4.526,-4.5237,-4.5254,-4.5254,-4.5192,-4.5148,-4.5192,-4.5192,-4.5192,-4.5148,-4.5125,-4.5175,-4.5523,-4.5886,-4.6386,-4.7095,-4.7164,-4.7212,-4.754,-4.7159,-4.6829,-4.6928,-4.7226,-4.7566,-4.7858,-4.817,-4.833,-4.8296,-4.8667,-4.8909,-4.8909,-4.8537,-4.8296,-4.8296,-4.7924,-4.7887,-4.8277,-4.8296,-4.85,-4.889,-4.8909,-4.8909,-4.8909,-4.85,-4.8296,-4.8296,-4.7853,-4.7463,0.0,0.0,0.0,0.0,0.0,0.0,0.0,0.0,-3.698,-3.7914,-3.8053,-3.8229,-3.8962,-3.9073,-3.9073,-3.9101,-3.9101,-3.9129,-3.9183,-3.9272,-3.9451,-3.9652,-3.9669,-3.9815,-4.0182,-4.0458,-4.1241,-4.2766,-4.3135,-4.394,-4.5449,-4.5526,-4.5908,-4.6729,-4.6748,-4.7092,-4.7799,-4.7971,-4.8048,-4.8048,-4.822,-4.82,-4.8048,-4.8111,-4.8037,-4.7846,-4.7007,-4.6568,-4.6376,-4.5821,-4.561,-4.5649,-4.5783,-4.5899,-4.5918,-4.5534,-4.54,-4.54,-4.54,-4.538,-4.5376,-4.5468,-4.5483,-4.5456,-4.5563,-4.5555,-4.5532,-4.5532,-4.5508,-4.5442,-4.5466,-4.5485,-4.5466,-4.5466,-4.5388,-4.5483,-4.6119,-4.6172,-4.6308,-4.7109,-4.7132,-4.7037,-4.7174,-4.7611,-4.7713,-4.7049,-4.766,-4.8119,-4.7958,-4.85,-4.8909,-4.8909,-4.8909,-4.8909,-4.8909,-4.8909,-4.8909,-4.8909,-4.8909,-4.8909,-4.8909,-4.8909,-4.8909,-4.8909,-4.8874,-4.8874,-4.8874,-4.8855,-4.882,-4.882,-4.8768,-4.8118,-3.478,-3.5966,-3.6929,-3.7125,-3.7271,-3.7621,0.0,0.0,-3.7745,-3.8596,-3.8792,-3.881,-3.896,-3.9007,-3.9036,-3.9101,-3.9101,-3.9101,-3.9101,-3.9129,-3.9435,-4.03,-4.0137,-4.0302,-4.1246,-4.2029,-4.2869,-4.3786,-4.4571,-4.5411,-4.6328,-4.6366,-4.6768,-4.7646,-4.7665,-4.7704,-4.7799,-4.8563,-4.8945,-4.8945,-4.9671,-4.9652,-4.8945,-4.8968,-4.8525,-4.7761,-4.6904,-4.612,-4.5509,-4.6056,-4.6366,-4.6527,-4.7185,-4.7513,-4.7448,-4.5937,-4.54,-4.5399,-4.5399,-4.5317,-4.5347,-4.6053,-4.6275,-4.6397,-4.7101,-4.7207,-4.7072,-4.715,-4.6927,-4.6723,-4.6835,-4.6835,-4.6798,-4.6798,-4.677,-4.676,-4.6807,-4.6797,-4.7001,-4.7673,-4.781,-4.7956,-4.8568,-4.8704,-4.85,-4.7716,-4.8274,-4.8795,-4.876,-4.8834,-4.8909,-4.8909,-4.8909,-4.8909,-4.8909,-4.8909,-4.8909,-4.8909,-4.8909,-4.8909,-4.8909,-4.8909,-4.8909,-4.8909,-4.8839,-4.8822,-4.8822,-4.8678,-4.8623,-4.8623,-4.8642,-4.8586,-3.5771,-3.6847,-3.7693,0.0,-3.8205,-3.8416,-3.8759,-3.8593,-3.8475,-3.8818,-3.891,-3.891,-3.8881,-3.8939,-3.8921,0.0,-3.8902,-3.8979,-3.8921,-3.9357,-3.988,-4.043,-4.0776,-4.1161,-4.1637,-4.2068,-4.2664,-4.3459,-4.452,-4.5278,-4.5601,-4.6138,-4.6873,-4.778,-4.7713,-4.819,-4.9251,-4.9614,-4.9805,-4.9805,-5.0149,-5.013,-4.9805,-4.9805,-4.9347,-4.8544,-4.8162,-4.7532,-4.6787,-4.7089,-4.7242,-4.7324,-4.7643,-4.7754,-4.7701,-4.6997,-4.6729,-4.6727,-4.6705,-4.6568,-4.648,-4.6803,-4.6814,-4.6766,-4.7106,-4.7118,-4.7081,-4.7109,-4.7005,-4.6918,-4.6976,-4.6976,-4.6947,-4.6947,-4.6859,-4.6948,-4.7386,-4.7436,-4.7602,-4.8323,-4.8472,-4.855,-4.8834,-4.8909,-4.8797,-4.8444,-4.8686,-4.8909,-4.8909,-4.8909,-4.8909,-4.8909,-4.8909,-4.8909,-4.8909,-4.9336,-4.9596,-4.9596,-4.9596,-4.9579,-4.9544,-4.9579,-4.9579,-4.9544,-5.0045,-5.0286,-5.0286,-5.0249,-5.0194,-5.0102,-5.0083,-5.0046,-3.6612,-3.7377,0.0,-3.8401,-3.867,-3.8743,-3.8713,-3.8713,-3.8773,-3.8773,-3.8773,-3.8743,-3.8713,-3.8792,-3.8803,-3.8664,-3.8803,-3.8881,-3.8822,-3.9564,-4.0256,-4.0634,-4.1407,-4.2021,-4.231,-4.2379,-4.2728,-4.3555,-4.4619,-4.5261,-4.5333,-4.6407,-4.7395,-4.8143,-4.8285,-4.8991,-5.0283,-5.0302,-5.0302,-5.0302,-5.0302,-5.0302,-5.0302,-5.0302,-4.9862,-4.9075,-4.9075,-4.8579,-4.7774,-4.798,-4.8117,-4.8136,-4.8365,-4.8395,-4.8324,-4.83,-4.7995,-4.7638,-4.7596,-4.7422,-4.7294,-4.7521,-4.7438,-4.7282,-4.7537,-4.7582,-4.7552,-4.7552,-4.7473,-4.7442,-4.7442,-4.7442,-4.7442,-4.7442,-4.7367,-4.749,-4.8035,-4.8085,-4.8203,-4.8797,-4.8909,-4.8909,-4.8909,-4.8909,-4.8909,-4.8909,-4.9094,-4.915,-4.8927,-4.8909,-4.9002,-4.9206,-4.9243,-4.9336,-4.9577,-5.0116,-5.0469,-5.0469,-5.0469,-5.0433,-5.0379,-5.0397,-5.0397,-5.0324,-5.0935,-5.125,-5.125,-5.125,-5.1156,-5.0984,-5.0925,-5.0805,-3.7167,0.0,-3.7756,-3.8034,-3.8285,-3.8415,-3.8415,-3.8415,-3.8415,-3.8415,-3.8415,-3.8446,-3.851,-3.8609,-3.8738,-3.8792,-3.8833,-3.8881,-3.8822,-3.9564,-4.0357,-4.1088,-4.1931,-4.2807,0.0,-4.3512,-4.3724,-4.4599,-4.5429,-4.5961,-4.6144,-4.7726,-4.8756,-4.9041,-4.9805,-5.0245,-5.0302,-5.0302,-5.0302,-5.0302,-5.0302,-5.0302,-5.0302,-5.0302,-4.9816,-4.9005,-4.9005,-4.8462,-4.7672,-4.8509,-4.89,-4.9044,-4.9752,-4.9981,-4.9929,-4.9768,-4.8799,-4.7498,-4.7498,-4.7371,-4.7334,-4.8126,-4.8276,-4.8295,-4.9096,-4.9214,-4.9137,-4.9137,-4.9005,-4.8834,-4.8834,-4.8834,-4.8834,-4.8834,-4.8834,-4.8834,-4.8853,-4.8872,-4.8872,-4.8909,-4.8909,-4.8909,-4.8909,-4.8909,-4.8909,-4.8909,-4.9559,-4.9782,-4.9002,-4.8909,-4.9206,-4.9986,-5.006,-5.0413,-5.1249,-5.1342,-5.1361,-5.1361,-5.1361,-5.1361,-5.1361,-5.1232,-5.1195,-5.1139,-5.0984,-5.0925,-5.0925,-5.0824,-5.0703,-5.0417,-5.0417,-5.0271,-3.7243,0.0,-3.7862,-3.8219,-3.835,-3.8382,-3.8382,-3.8382,-3.8382,-3.8382,-3.8382,-3.8382,-3.8368,-3.8433,-3.8483,-3.8419,-3.8528,-3.8774,-3.9213,-4.0143,-4.1048,-4.1824,-4.268,0.0,0.0,0.0,0.0,-4.414,-4.5113,-4.5735,-4.581,-4.6883,-4.7861,-4.8609,-4.8813,-4.921,-4.9822,-4.9841,-4.9841,-4.9841,-4.9841,-4.9841,-4.9841,-4.9841,-4.9662,-4.9389,-4.9389,-4.9219,-4.8945,-4.9229,-4.9389,-4.9408,-4.9692,-4.9731,-4.9646,-4.9607,-4.9248,-4.8748,-4.8748,-4.8649,-4.8553,-4.8834,-4.8832,-4.8706,-4.8986,-4.9046,-4.9012,-4.9012,-4.8943,-4.8909,-4.8909,-4.8909,-4.8909,-4.8909,-4.8909,-4.8909,-4.8909,-4.8909,-4.8909,-4.8909,-4.8909,-4.9076,-4.9596,-4.9707,-4.9893,-5.0469,-4.9837,-4.9615,-5.045,-5.006,-5.0023,-5.0878,-5.0971,-5.1046,-5.125,-5.1751,-5.2028,-5.2008,-5.2008,-5.1952,-5.1856,-5.1913,-5.1874,-5.1817,-5.2173,-5.2348,-5.2348,-5.2218,-5.2047,-5.1853,-5.1853,-5.1701,-3.7073,-3.7376,-3.7667,-3.8068,-3.8238,-3.8336,-3.8336,-3.8336,-3.8336,-3.8336,-3.8336,-3.8322,-3.8274,-3.8322,-3.8445,-3.8622,-3.8806,-3.9144,-3.9815,-4.0839,-4.1669,-4.213,-4.3259,-4.4042,0.0,0.0,0.0,-4.3934,-4.509,-4.573,-4.5541,-4.6892,-4.7875,-4.8315,-4.8577,-4.9001,-4.9598,-4.9598,-4.9598,-4.9598,-4.9598,-4.9598,-4.9598,-4.9598,-4.9569,-4.9569,-4.9569,-4.9558,-4.9529,-4.9539,-4.9569,-4.9569,-4.9569,-4.9499,-4.9427,-4.9396,-4.9302,-4.9257,-4.9352,-4.9289,-4.9197,-4.9197,-4.9046,-4.8909,-4.8909,-4.8909,-4.8909,-4.8909,-4.8909,-4.8909,-4.8909,-4.8909,-4.8909,-4.8909,-4.8909,-4.8909,-4.8909,-4.8909,-4.9002,-4.9299,-4.9319,-4.9544,-5.0341,-5.049,-5.075,-5.1584,-5.0565,-5.0064,-5.1176,-5.0842,-5.0787,-5.1621,-5.1714,-5.1787,-5.1989,-5.2488,-5.2784,-5.2724,-5.2724,-5.2665,-5.2607,-5.2625,-5.2625,-5.2526,-5.2797,-5.2926,-5.2926,-5.2635,-5.2472,-5.2361,-5.2361,-5.2221,-3.6696,-3.7013,-3.7264,-3.7631,-3.7951,-3.8192,-3.8192,-3.8192,-3.8192,-3.8192,-3.8192,-3.8192,0.0,0.0,-3.858,-3.9345,-3.9556,-3.9881,-4.0633,-4.1608,-4.2171,0.0,0.0,0.0,0.0,0.0,0.0,-4.3994,0.0,-4.5934,-4.5475,-4.7708,-4.8757,-4.8224,-4.9096,-4.9569,-4.9569,-4.9569,-4.9569,-4.9569,-4.9569,-4.9569,-4.9569,-4.9569,-4.951,-4.9469,-4.9469,-4.9439,-4.9384,-4.9439,-4.9469,-4.9469,-4.9469,-4.9396,-4.9276,-4.9211,-4.9046,-4.8943,-4.9239,-4.9289,-4.9179,-4.9179,-4.9046,-4.8909,-4.8909,-4.8909,-4.8909,-4.8909,-4.8909,-4.8909,-4.8909,-4.8909,-4.8909,-4.8909,-4.8909,-4.8927,-4.893,-4.893,-4.9189,-5.0062,-5.0157,-5.0343,-5.112,-5.1249,-5.1486,-5.2243,-5.1708,-5.1248,-5.1305,-5.1211,-5.1468,-5.228,-5.2354,-5.2668,-5.3425,-5.3481,-5.3459,-5.3459,-5.344,-5.344,-5.344,-5.3318,-5.3258,-5.3258,-5.2813,-5.2545,-5.2545,-5.2155,-5.1933,-5.1871,-5.1871,-5.174,-3.6776,-3.7013,-3.7264,-3.7631,-3.7774,-3.7898,-3.814,-3.8192,-3.8192,-3.8192,-3.8192,-3.8192,0.0,0.0,0.0,-3.9295,-3.9472,0.0,-4.1252,-4.1885,0.0,-4.2759,0.0,-4.4673,-4.4638,-4.4691,0.0,0.0,-4.5026,-4.55,-4.599,-4.7157,-4.8044,-4.8484,-4.8847,-4.8993,-4.8993,-4.9042,-4.9075,-4.9075,-4.9075,-4.9075,-4.9075,-4.9075,-4.9075,-4.9042,-4.9042,-4.9061,-4.9027,-4.9061,-4.9042,-4.9042,-4.9042,-4.9027,-4.9012,-4.8978,-4.8943,-4.8909,-4.8993,-4.9012,-4.8978,-4.8978,-4.8943,-4.8909,-4.8909,-4.8909,-4.8909,-4.8909,-4.8909,-4.8909,-4.8909,-4.8909,-4.8874,-4.8857,-4.8874,-4.9006,-4.94,-4.9529,-4.9806,-5.058,-5.1285,-5.1842,-5.1987,-5.258,-5.3061,-5.3167,-5.292,-5.2791,-5.2911,-5.2354,-5.2299,-5.3111,-5.3185,-5.3197,-5.3151,-5.3127,-5.3023,-5.268,-5.268,-5.268,-5.268,-5.2635,-5.2572,-5.2463,-5.2239,-5.1982,-5.1848,-5.1604,-5.1538,-5.1607,-5.1607,-5.1505,-3.6632,-3.6856,-3.7206,-3.7431,-3.7577,-3.7774,-3.8054,-3.8122,-3.8088,-3.8072,-3.8106,0.0,-3.8592,-3.8699,0.0,0.0,0.0,0.0,-4.2067,-4.245,-4.2723,0.0,-4.4017,0.0,-4.4602,-4.4656,-4.4709,0.0,-4.5127,-4.5621,-4.6116,-4.7241,-4.8071,-4.8532,-4.866,-4.8732,-4.8787,-4.8874,-4.8909,-4.8909,-4.8909,-4.8909,-4.8909,-4.8874,-4.8857,-4.8857,-4.8857,-4.8839,-4.8785,-4.8839,-4.8839,-4.8785,-4.8785,-4.8785,-4.8785,-4.8785,-4.8785,-4.8785,-4.8785,-4.8785,-4.8785,-4.8839,-4.8857,-4.8839,-4.8785,-4.8785,-4.8785,-4.8785,-4.8785,-4.875,-4.8732,-4.8768,-4.8842,-4.9122,-4.9233,-4.9473,-5.0174,-5.034,-5.058,-5.1293,-5.2125,-5.2736,-5.2714,-5.3142,-5.3455,-5.3396,-5.3295,-5.3295,-5.3355,-5.295,-5.2798,-5.2993,-5.3133,-5.3109,-5.2937,-5.2806,-5.2698,-5.2563,-5.2472,-5.2408,-5.2408,-5.2343,-5.2297,-5.2185,-5.1866,-5.1619,-5.1601,-5.1263,-5.1246,-5.1402,-5.135,-5.1298,-3.6343,-3.6615,-3.7013,-3.7111,-3.7376,-3.7703,-3.7915,-3.7984,-3.8002,-3.7934,0.0,-3.82,-3.8904,-3.9209,-3.9858,-4.1288,0.0,-4.1995,-4.2774,-4.3012,-4.3104,-4.3067,-4.3962,-4.4565,-4.4565,-4.462,-4.471,-4.4838,-4.548,-4.5902,-4.6083,-4.7592,-4.8457,-4.8513,-4.855,-4.8642,-4.8787,-4.8839,-4.8874,-4.8874,-4.8874,-4.8874,-4.8874,-4.8804,-4.8787,-4.8787,-4.8787,-4.8697,-4.8587,-4.8732,-4.8697,-4.8587,-4.8587,-4.8587,-4.8587,-4.8587,-4.8587,-4.8587,-4.8587,-4.8587,-4.8623,-4.8732,-4.8787,-4.8732,-4.8642,-4.8587,-4.8587,-4.8587,-4.8587,-4.8587,-4.8532,-4.8624,-4.8901,-4.9525,-4.9803,-5.0136,-5.0945,-5.1222,-5.1459,-5.2059,-5.2716,-5.3188,-5.3164,-5.3164,-5.3164,-5.3103,-5.3103,-5.306,-5.3017,-5.306,-5.2955,-5.2499,-5.2608,-5.2717,-5.2717,-5.2454,-5.2426,-5.2627,-5.2426,-5.2268,-5.2268,-5.2173,-5.2108,-5.206,-5.1601,-5.1416,-5.1518,-5.1123,-5.1034,-5.1298,-5.1158,-5.1105,-3.6301,-3.6385,-3.6492,-3.6816,-3.7073,-3.7339,-3.7595,-3.7845,0.0,0.0,-3.7899,-3.797,-3.8182,-3.8776,-3.957,-4.0528,0.0,0.0,0.0,0.0,-4.3049,0.0,-4.3833,-4.44,-4.4361,-4.44,0.0,0.0,-4.5644,-4.5754,-4.5902,-4.7481,-4.8401,-4.8513,-4.8494,-4.8569,-4.8623,-4.8642,-4.866,-4.866,-4.866,-4.866,-4.866,-4.8642,-4.8623,-4.8623,-4.8623,-4.8623,-4.8587,-4.8642,-4.8623,-4.8587,-4.8587,-4.8587,-4.8587,-4.8587,-4.8587,-4.8587,-4.8587,-4.8587,-4.8587,-4.8642,-4.8623,-4.8642,-4.8587,-4.8587,-4.8587,-4.8587,-4.8587,-4.8587,-4.8532,-4.8991,-4.9487,-4.9438,-5.001,-5.0688,-5.1219,-5.1868,-5.236,-5.2488,-5.2802,-5.2999,-5.2912,-5.2955,-5.2893,-5.2608,-5.2563,-5.2361,-5.1915,-5.2343,-5.2698,-5.2717,-5.2361,-5.2173,-5.2228,-5.1933,-5.1768,-5.1871,-5.174,-5.164,-5.164,-5.164,-5.1538,-5.1298,-5.1193,-5.1088,-5.1034,-5.0945,-5.0998,-5.1158,-5.1105,-5.1105,-3.6343,-3.6426,-3.6609,-3.6851,-3.7091,-3.7356,-3.754,0.0,0.0,0.0,-3.7775,-3.7918,-3.8402,0.0,0.0,0.0,0.0,0.0,0.0,0.0,0.0,0.0,-4.3395,-4.3724,0.0,-4.3761,-4.4163,-4.5022,-4.5404,-4.5862,-4.647,-4.7644,-4.8286,-4.8401,-4.8419,-4.8438,-4.855,-4.8569,-4.8587,-4.8587,-4.8587,-4.8587,-4.8587,-4.8569,-4.855,-4.855,-4.855,-4.8495,-4.8458,-4.8513,-4.8476,-4.8401,-4.842,-4.842,-4.8401,-4.842,-4.8439,-4.8439,-4.8439,-4.842,-4.8401,-4.8401,-4.8752,-4.9177,-4.914,-4.9358,-4.9651,-4.9651,-4.9612,-4.9515,-4.9413,-4.9706,-5.0126,-5.0441,-5.1177,-5.1834,-5.2105,-5.2381,-5.2635,-5.2698,-5.2654,-5.259,-5.2608,-5.2518,-5.2408,-5.2203,-5.2203,-5.2108,-5.1866,-5.1897,-5.2012,-5.2,-5.1866,-5.1817,-5.1853,-5.1604,-5.1503,-5.1654,-5.1487,-5.1402,-5.1402,-5.1316,-5.1211,-5.1105,-5.1052,-5.0998,-5.0998,-5.0945,-5.0945,-5.1105,-5.1052,-5.0998,-3.6426,-3.6591,-3.6811,-3.6987,-3.7223,-3.7468,-3.7503,-3.7703,0.0,0.0,-3.7649,-3.7918,-3.8742,0.0,-4.0181,0.0,0.0,0.0,0.0,0.0,0.0,0.0,-4.2994,0.0,-4.3049,-4.3105,0.0,-4.4563,-4.5567,-4.6464,-4.7258,-4.7879,-4.8226,-4.8229,-4.8267,-4.8324,-4.8419,-4.8495,-4.855,-4.855,-4.855,-4.855,-4.8514,-4.8457,-4.8437,-4.8419,-4.8419,-4.8324,-4.8229,-4.8324,-4.8304,-4.8187,-4.8247,-4.8247,-4.8187,-4.8247,-4.8267,-4.8229,-4.8229,-4.8208,-4.8148,-4.8148,-4.8687,-4.9354,-4.9478,-4.9874,-5.0323,-5.0506,-5.0459,-5.0375,-5.021,-5.0398,-5.0787,-5.1554,-5.2209,-5.2627,-5.2627,-5.2518,-5.2426,-5.2518,-5.2315,-5.2126,-5.2221,-5.2078,-5.1933,-5.1884,-5.1835,-5.1835,-5.1768,-5.1449,-5.121,-5.1176,-5.1349,-5.1467,-5.1518,-5.1315,-5.1333,-5.1536,-5.1367,-5.1246,-5.1246,-5.1158,-5.1105,-5.1052,-5.0945,-5.0945,-5.1052,-5.0945,-5.0945,-5.1052,-5.0945,-5.0891,-3.6673,-3.6776,-3.6834,-3.697,-3.7337,-3.7595,-3.7223,0.0,0.0,-3.7631,-3.7613,-3.7863,-3.8742,-3.9548,-4.0123,0.0,0.0,-4.2379,0.0,0.0,0.0,0.0,0.0,0.0,-4.2938,-4.292,-4.361,-4.5267,-4.6877,-4.7809,-4.7922,-4.8093,-4.8148,-4.8032,-4.8148,-4.8226,-4.8226,-4.8267,-4.8344,-4.8344,-4.8344,-4.8344,-4.8344,-4.8265,-4.8226,-4.8226,-4.809,-4.8032,-4.8032,-4.8032,-4.809,-4.8187,-4.8187,-4.8187,-4.8187,-4.8187,-4.813,-4.8032,-4.8032,-4.8032,-4.8032,-4.8032,-4.8087,-4.8287,-4.9036,-4.9268,-4.9469,-5.0216,-5.0417,-5.0375,-5.021,-5.0755,-5.1474,-5.2236,-5.2286,-5.218,-5.218,-5.1987,-5.179,-5.179,-5.179,-5.174,-5.179,-5.174,-5.1622,-5.1384,-5.1384,-5.1281,-5.1034,-5.082,-5.0694,-5.0657,-5.0838,-5.1088,-5.1281,-5.1088,-5.1034,-5.1281,-5.1193,-5.1105,-5.1105,-5.1105,-5.1052,-5.0945,-5.0891,-5.0891,-5.0945,-5.0891,-5.0891,-5.0945,-5.0891,-5.0891,-3.6451,-3.655,-3.669,-3.6948,-3.7261,-3.7504,-3.7411,0.0,-3.7828,-3.7631,-3.7577,-3.7863,-3.8685,-3.9473,-3.9991,0.0,0.0,0.0,0.0,0.0,0.0,0.0,-4.3317,0.0,0.0,0.0,-4.3609,-4.5261,-4.6957,-4.7907,-4.7806,-4.7966,-4.7988,-4.7992,-4.7988,-4.8046,-4.809,-4.8169,-4.8247,-4.8247,-4.8247,-4.8247,-4.8265,-4.813,-4.809,-4.809,-4.8032,-4.7992,-4.7992,-4.7992,-4.8028,-4.8006,-4.805,-4.8068,-4.8006,-4.805,-4.805,-4.7992,-4.7992,-4.797,-4.7966,-4.7966,-4.7866,-4.8011,-4.8917,-4.9864,-5.0635,-5.0962,-5.1336,-5.161,-5.1411,-5.1441,-5.167,-5.1964,-5.1956,-5.184,-5.184,-5.179,-5.169,-5.169,-5.1589,-5.1436,-5.1436,-5.1211,-5.0982,-5.0874,-5.0838,-5.0747,-5.0582,-5.0509,-5.0509,-5.0509,-5.0582,-5.0692,-5.0874,-5.0692,-5.0692,-5.0892,-5.0747,-5.0692,-5.0692,-5.0692,-5.0637,-5.0582,-5.0582,-5.0637,-5.0729,-5.0729,-5.0801,-5.0891,-5.0891,-5.0891,-3.6426,-3.6591,-3.6753,-3.7031,-3.7356,-3.7577,0.0,0.0,-3.7775,-3.7577,-3.7577,-3.7898,-3.895,-3.9557,-3.9985,0.0,0.0,-4.2257,-4.1453,0.0,0.0,0.0,0.0,-4.3496,0.0,-4.3335,-4.4168,-4.5544,-4.7021,-4.7819,-4.7717,-4.7801,-4.7884,-4.7929,-4.7884,-4.7925,-4.797,-4.809,-4.8148,-4.8148,-4.8148,-4.8148,-4.8148,-4.801,-4.797,-4.797,-4.7929,-4.7929,-4.7929,-4.7929,-4.7907,-4.7902,-4.7947,-4.7947,-4.7902,-4.7947,-4.7929,-4.7929,-4.7929,-4.7824,-4.7717,-4.7717,-4.7615,-4.7637,-4.8333,-4.9699,-5.0995,-5.1249,-5.179,-5.2246,-5.2036,-5.184,-5.169,-5.169,-5.164,-5.1589,-5.1589,-5.1538,-5.1436,-5.1367,-5.1211,-5.1105,-5.1105,-5.0784,-5.053,-5.0585,-5.0509,-5.0415,-5.0415,-5.0359,-5.0359,-5.0359,-5.0302,-5.0359,-5.0547,-5.0453,-5.0453,-5.0547,-5.0453,-5.0415,-5.0415,-5.0415,-5.0415,-5.0415,-5.0415,-5.0453,-5.0547,-5.0547,-5.062,-5.0819,-5.0819,-5.0819,-3.6696,-3.6995,-3.7226,-3.7339,-3.7685,-3.788,0.0,0.0,-3.7631,-3.7449,-3.7503,-3.8058,-3.9611,-3.9896,-4.0164,-4.0967,0.0,0.0,-4.1432,0.0,0.0,0.0,0.0,-4.2802,-4.2783,-4.431,-4.5617,-4.6432,-4.7246,0.0,-4.7717,-4.7717,-4.7699,-4.7699,-4.7819,-4.7902,-4.7902,-4.797,-4.7992,-4.7992,-4.7992,-4.7992,-4.7992,-4.7925,-4.7902,-4.7902,-4.7759,-4.7699,-4.7699,-4.7699,-4.7759,-4.7902,-4.7902,-4.7902,-4.7902,-4.7902,-4.7819,-4.7699,-4.7699,-4.7511,-4.732,-4.732,-4.7143,-4.6998,-4.6998,-4.8289,-4.9873,-5.0664,-5.128,-5.169,-5.169,-5.169,-5.169,-5.169,-5.1487,-5.1281,-5.1281,-5.1088,-5.0873,-5.0657,-5.0585,-5.0585,-5.0585,-5.0492,-5.0453,-5.0585,-5.0509,-5.0415,-5.0415,-5.0302,-5.0189,-5.0189,-5.0092,-5.0109,-5.0359,-5.0415,-5.0415,-5.0415,-5.0415,-5.0415,-5.0415,-5.0415,-5.0415,-5.0415,-5.0415,-5.0415,-5.0397,-5.0397,-5.0453,-5.0585,-5.0585,-5.0729,-3.6426,-3.6533,-3.6655,-3.6917,-3.7129,-3.7299,-3.7223,0.0,-3.7449,-3.7223,-3.7337,-3.7947,-3.953,-3.9875,-4.036,-4.1815,-4.2302,0.0,0.0,0.0,0.0,0.0,-4.2804,-4.3079,0.0,0.0,-4.5635,-4.645,-4.7265,-4.7717,-4.7717,-4.7717,-4.7717,-4.7717,-4.7759,-4.7759,-4.7759,-4.7884,-4.7925,-4.7925,-4.7925,-4.7925,-4.7925,-4.7801,-4.7759,-4.7759,-4.7717,-4.7717,-4.7717,-4.7717,-4.7717,-4.7759,-4.7759,-4.7657,-4.7511,-4.7511,-4.7381,-4.7205,-4.7205,-4.716,-4.7116,-4.7116,-4.707,-4.698,-4.6888,-4.7665,-4.8693,-4.9442,-5.0129,-5.0569,-5.0466,-5.0329,-5.0295,-5.0805,-5.0874,-5.082,-5.082,-5.0855,-5.0819,-5.0509,-5.0547,-5.0585,-5.0509,-5.0341,-5.0302,-5.0341,-5.0189,-5.0109,-5.0109,-5.0109,-5.0051,-5.0051,-5.0011,-5.0051,-5.0246,-5.0206,-5.0149,-5.0246,-5.0206,-5.0109,-5.0109,-5.0109,-5.0109,-5.0109,-5.0109,-5.0149,-5.0246,-5.0246,-5.0397,-5.0585,-5.0492,-5.0637,0.0,-3.6385,-3.6533,-3.6736,-3.697,0.0,0.0,0.0,-3.7223,-3.7069,-3.7241,-3.7871,-3.9491,-3.9854,-4.0431,-4.2136,-4.2486,0.0,0.0,0.0,0.0,0.0,0.0,0.0,0.0,-4.5454,-4.6087,-4.6902,-4.7428,-4.7717,-4.7717,-4.7717,-4.7717,-4.7717,-4.7717,-4.7717,-4.7717,-4.7759,-4.7819,-4.7819,-4.7819,-4.7819,-4.7819,-4.7759,-4.7717,-4.7717,-4.7717,-4.7657,0.0,-4.7554,-4.7511,-4.7443,-4.7443,-4.7338,-4.7187,-4.7187,-4.7116,-4.6998,-4.6998,-4.6934,-4.6842,-4.6795,-4.6655,-4.6495,-4.6398,-4.7011,-4.7988,-4.8983,-4.9535,-4.9942,-5.0136,-5.0011,-5.0025,-5.0442,-5.0547,-5.0547,-5.0547,-5.0637,-5.0637,-5.0359,-5.0397,-5.0436,-5.0341,-5.0189,-5.0149,-5.0189,-5.0109,-5.0011,-5.0011,-5.0011,-5.0011,-5.0011,-5.0011,-5.0051,-5.0092,-5.0051,-5.0051,-5.0092,-5.0051,-5.0011,-5.0011,-5.0011,-5.0011,-5.0011,-5.0011,-5.0051,-5.0149,-5.0189,-5.0285,-5.0436,-5.0453,-5.0582,0.0,0.0,0.0,0.0,0.0,0.0,0.0,0.0,0.0,-3.697,-3.7143,-3.7813,-3.9451,-3.9854,-4.0431,-4.2037,0.0,0.0,0.0,0.0,0.0,0.0,-4.4086,0.0,-4.6359,-4.6504,-4.683,-4.7645,-4.7717,-4.7717,-4.7717,-4.7717,-4.7699,-4.7657,-4.7657,-4.7657,-4.7657,-4.7657,-4.7657,-4.7657,-4.7657,-4.7657,-4.7657,-4.7657,-4.7657,-4.7657,-4.7657,-4.7511,-4.7276,-4.7276,-4.7143,-4.6998,-4.6998,-4.6998,-4.698,-4.698,-4.6934,-4.6934,-4.6934,-4.6795,-4.6542,-4.6398,-4.6105,-4.577,-4.5632,-4.6411,-4.7645,-4.896,-4.9344,-4.9553,-5.0305,-5.0515,-5.0477,-5.038,-5.0397,-5.0415,-5.0415,-5.0397,-5.0359,-5.0189,-5.0189,-5.0189,-5.0189,-5.0092,-5.0051,-5.0189,-5.0109,-5.0011,-5.0011,-5.0011,-5.0011,-5.0011,-5.0011,-5.0011,-5.0011,-5.0011,-5.0011,-5.0011,-5.0011,-5.0011,-5.0011,-5.0011,-5.0011,-5.0011,-5.0011,-5.0011,-5.0011,-5.0149,-5.0189,-5.0189,-5.0436,-5.0492,-3.6146,0.0,-3.6426,-3.6426,-3.655,-3.665,0.0,0.0,0.0,0.0,0.0,0.0,-3.927,-3.9731,0.0,0.0,0.0,0.0,0.0,0.0,0.0,-4.4017,-4.4617,-4.5377,-4.6413,-4.6504,-4.683,-4.7645,-4.7717,-4.7717,-4.7717,-4.7717,-4.7615,-4.7407,-4.7407,-4.7407,-4.7407,-4.7407,-4.7338,-4.716,-4.716,-4.716,-4.716,-4.716,-4.716,-4.716,-4.716,-4.7116,-4.707,-4.707,-4.7025,-4.6998,-4.6998,-4.6888,-4.6684,-4.6684,-4.6542,-4.6368,-4.6368,-4.6368,-4.627,-4.6122,-4.5871,-4.5632,-4.5632,-4.6308,-4.716,-4.7386,-4.789,-4.8607,-4.9391,-4.9472,-4.9556,-5.022,-5.0302,-5.0246,-5.0246,-5.0359,-5.0302,-5.0109,-5.0149,-5.0189,-5.0051,-4.9993,-4.9993,-5.0051,-4.9993,-5.0011,-5.0011,-5.0011,-5.0011,-5.0011,-5.0011,-5.0011,-5.0011,-5.0011,-5.0011,-5.0011,-5.0011,-5.0011,-5.0011,-5.0011,-5.0011,-5.0011,-5.0011,-5.0011,-5.0011,-5.0051,-5.0092,-5.0189,-5.0149,-5.0302,-3.5942,-3.6216,-3.6301,-3.6301,-3.6402,-3.6444,0.0,0.0,0.0,0.0,0.0,0.0,0.0,0.0,0.0,0.0,-4.1995,0.0,0.0,0.0,0.0,-4.4623,-4.5216,-4.5834,0.0,-4.656,-4.6721,-4.7258,-4.7294,-4.7294,-4.7294,-4.7356,-4.7294,-4.7098,-4.7143,-4.7143,-4.7143,-4.7143,-4.7116,-4.6998,-4.6998,-4.6998,-4.6998,-4.6998,-4.6998,-4.6888,-4.6888,-4.6778,-4.6637,-4.6637,-4.6542,-4.6464,-4.6464,-4.6398,-4.6301,-4.6301,-4.627,-4.6172,-4.6122,-4.6023,-4.5922,-4.5821,-4.5684,-4.5528,-4.5528,-4.5857,-4.6325,-4.6689,-4.7367,-4.8167,-4.8983,-4.9378,-4.9669,-5.0102,-5.0149,-5.0092,-5.0092,-5.0149,-5.0149,-5.0011,-5.0051,-5.0109,-4.9993,-5.0011,-5.0011,-5.0011,-5.0011,-5.0011,-5.0011,-5.0011,-5.0011,-5.0011,-5.0011,-5.0011,-5.0011,-5.0011,-5.0011,-5.0011,-5.0011,-5.0011,-5.0011,-5.0011,-5.0011,-5.0011,-5.0011,-5.0011,-5.0011,-5.0011,-5.0051,-5.0092,-5.0109,-5.0206,-3.5736,-3.6131,-3.6259,-3.6301,-3.6402,-3.6444,0.0,0.0,0.0,0.0,0.0,0.0,0.0,0.0,0.0,0.0,0.0,0.0,-4.2679,-4.3344,-4.4107,-4.5113,-4.5695,0.0,-4.6566,-4.659,-4.6637,-4.6795,-4.6795,-4.6795,-4.6842,-4.6934,-4.6934,-4.6778,-4.6888,-4.6934,-4.6888,-4.6888,-4.6888,-4.6888,-4.6842,-4.6842,-4.6888,-4.6842,-4.6795,-4.6702,-4.6655,-4.6447,-4.6137,-4.6137,-4.6005,-4.577,-4.577,-4.5871,-4.5972,-4.5972,-4.6023,-4.6122,-4.6023,-4.5821,-4.5632,-4.5632,-4.5528,-4.5423,-4.5423,-4.5423,-4.5561,-4.6359,-4.714,-4.7937,-4.8837,-4.9548,-4.9993,-5.0017,-4.9993,-5.0011,-5.0011,-5.0011,-5.0011,-5.0011,-5.0011,-5.0011,-5.0011,-5.0011,-5.0011,-5.0011,-5.0011,-5.0011,-5.0011,-5.0011,-5.0011,-5.0011,-5.0011,-5.0011,-5.0011,-5.0011,-5.0011,-5.0011,-5.0011,-5.0011,-5.0011,-5.0011,-5.0011,-5.0011,-5.0011,-5.0011,-5.0011,-5.0011,-5.0011,-4.9993,-5.0092,-5.0092,-3.56,-3.6019,-3.6105,-3.6259,-3.6301,-3.6343,0.0,0.0,0.0,0.0,0.0,0.0,0.0,0.0,0.0,0.0,0.0,-4.1244,0.0,0.0,-4.3746,-4.4314,0.0,-4.6495,-4.6572,-4.659,-4.6637,-4.6795,-4.6795,-4.6842,-4.6934,-4.6998,-4.6888,-4.6637,-4.6637,-4.6542,-4.6319,-4.6447,-4.6447,-4.6319,-4.6221,-4.6221,-4.6319,-4.6221,-4.6122,-4.6122,-4.6023,-4.5922,-4.5871,-4.5871,-4.5821,-4.577,-4.577,-4.5821,-4.5821,-4.5821,-4.5821,-4.5871,-4.5821,-4.5821,-4.5718,-4.5632,-4.5528,-4.5423,-4.5423,-4.5423,-4.5441,-4.5561,-4.6165,-4.7151,-4.8716,-4.9037,-4.9222,-4.9993,-5.0092,-5.0011,-5.0011,-5.0011,-5.0011,-5.0011,-5.0011,-5.0011,-5.0011,-5.0011,-5.0011,-5.0011,-5.0011,-5.0011,-5.0011,-5.0011,-5.0011,-5.0011,-5.0011,-5.0011,-5.0011,-5.0011,-5.0011,-5.0011,-5.0011,-5.0011,-5.0011,-5.0011,-5.0011,-5.0011,-5.0011,-5.0011,-5.0011,-5.0011,-5.0011,-5.0011,-4.9993,-5.0109,-3.526,-3.5694,-3.5739,-3.6045,-3.6131,-3.6131,-3.6131,0.0,0.0,0.0,0.0,0.0,0.0,0.0,0.0,-4.0954,0.0,-4.1133,-4.1626,-4.2887,-4.3838,0.0,0.0,-4.6186,-4.5955,-4.5955,-4.6055,-4.6253,-4.6253,-4.6319,-4.6464,-4.6512,-4.6464,-4.6253,-4.6368,-4.6319,-4.6172,-4.6122,-4.6073,-4.6073,-4.6023,-4.5972,-4.5972,-4.5972,-4.5922,-4.577,-4.5718,-4.5667,-4.5563,-4.5563,-4.5563,-4.5563,-4.5563,-4.5632,-4.5718,-4.577,-4.577,-4.5667,-4.5667,-4.5615,-4.5563,-4.5528,-4.5476,-4.5423,-4.5423,-4.5423,-4.5423,-4.5423,-4.5992,-4.6769,-4.7568,-4.829,-4.8907,-4.9309,-4.974,-5.0011,-5.0011,-5.0011,-5.0011,-5.0011,-5.0011,-5.0011,-5.0011,-5.0011,-5.0011,-5.0011,-5.0011,-5.0011,-5.0011,-5.0011,-5.0011,-5.0011,-5.0011,-5.0011,-5.0011,-5.0011,-5.0011,-5.0011,-5.0011,-5.0011,-5.0011,-5.0011,-5.0011,-5.0011,-5.0011,-5.0011,-5.0011,-5.0011,-5.0011,-5.0011,-5.0011,-5.0051,-3.5026,-3.5396,-3.547,-3.58,0.0,-3.5975,-3.5975,0.0,0.0,0.0,0.0,0.0,0.0,0.0,0.0,-4.0651,-4.0793,-4.0982,-4.155,-4.2753,-4.3684,-4.394,-4.5077,-4.5701,-4.5423,-4.5423,-4.5528,-4.5736,-4.577,-4.5821,-4.5922,-4.6023,-4.6073,-4.5972,-4.6073,-4.6122,-4.6122,-4.5871,-4.5821,-4.5972,-4.5922,-4.5871,-4.577,-4.5871,-4.577,-4.5632,-4.5581,-4.5476,-4.5423,-4.5423,-4.5423,-4.5423,-4.5423,-4.5476,-4.5581,-4.5667,-4.5667,-4.5581,-4.5563,-4.5528,-4.5423,-4.5423,-4.5423,-4.5423,-4.5423,-4.5423,-4.5423,-4.5423,-4.5855,-4.6372,-4.6562,-4.7579,-4.8614,-4.8786,-4.9424,-5.0011,-5.0011,-5.0011,-5.0011,-5.0011,-5.0011,-5.0011,-5.0011,-5.0011,-5.0011,-5.0011,-5.0011,-5.0011,-5.0011,-5.0011,-5.0011,-5.0011,-5.0011,-5.0011,-5.0011,-5.0011,-5.0011,-5.0011,-5.0011,-5.0011,-5.0011,-5.0011,-5.0011,-5.0011,-5.0011,-5.0011,-5.0011,-5.0011,-5.0011,-5.0011,-5.0011,-5.0011,-3.5227,-3.5383,-3.5383,-3.5577,-3.5711,0.0,-3.5975,-3.6019,0.0,0.0,0.0,0.0,0.0,0.0,-4.0446,-4.068,-4.0502,-4.0421,-4.0603,0.0,-4.2723,-4.3048,-4.4371,-4.53,-4.5371,-4.5423,-4.5476,-4.5615,-4.5615,-4.5667,-4.5838,-4.5821,-4.5821,-4.5821,-4.5821,-4.5821,-4.5821,-4.5684,-4.5718,-4.5972,-4.5718,-4.5667,-4.5787,-4.5667,-4.5632,-4.5563,-4.5476,-4.5423,-4.5423,-4.5423,-4.5423,-4.5423,-4.5423,-4.5423,-4.5423,-4.5423,-4.5528,-4.5581,-4.5476,-4.5476,-4.5581,-4.5423,-4.5423,-4.5423,-4.5423,-4.5423,-4.5423,-4.5423,-4.5458,-4.5682,-4.6424,-4.72,-4.7976,-4.8665,-4.9424,-5.0011,-5.0011,-5.0011,-5.0011,-5.0011,-5.0011,-5.0011,-5.0011,-5.0011,-5.0011,-5.0011,-5.0011,-5.0011,-5.0011,-5.0011,-5.0011,-5.0011,-5.0011,-5.0011,-5.0011,-5.0011,-5.0011,-5.0011,-5.0011,-5.0011,-5.0011,-5.0011,-5.0011,-5.0011,-5.0011,-5.0011,-5.0011,-5.0011,-5.0011,-5.0011,-5.0011,-5.0011,-3.4998,-3.5152,-3.5205,-3.5907,0.0,0.0,0.0,0.0,0.0,0.0,0.0,0.0,0.0,0.0,-4.032,-4.0534,-4.0404,-4.0355,-4.0485,-4.1716,-4.2723,-4.298,-4.4284,-4.5247,-4.5371,-4.5423,-4.5476,-4.5581,-4.5632,-4.5667,-4.577,-4.577,-4.577,-4.577,-4.577,-4.577,-4.577,-4.5684,-4.5667,-4.5718,-4.5667,-4.5563,-4.5581,-4.5581,-4.5563,-4.5476,-4.5423,-4.5423,-4.5423,-4.5423,-4.5423,-4.5423,-4.5423,-4.5423,-4.5423,-4.5423,-4.5423,-4.5476,-4.5423,-4.5423,-4.5476,-4.5423,-4.5423,-4.5423,-4.5423,-4.5423,-4.5423,-4.5423,-4.5423,-4.5492,-4.5786,-4.6441,-4.7217,-4.7958,-4.8717,-4.9407,-4.9907,-5.0011,-5.0011,-5.0011,-5.0011,-5.0011,-5.0011,-5.0011,-5.0011,-5.0011,-5.0011,-4.9935,-4.986,-4.9784,-4.9784,-4.9784,-4.9935,-5.0011,-5.0011,-5.0011,-5.0011,-5.0011,-5.0011,-5.0011,-5.0011,-5.0011,-4.9935,-4.9801,-4.9784,-4.9784,-4.9683,-4.9683,-4.9725,-4.9784,-4.9488,-4.9428,-3.4908,-3.4994,-3.5177,0.0,0.0,0.0,0.0,0.0,0.0,0.0,0.0,0.0,0.0,0.0,0.0,0.0,-4.0337,-4.0288,-4.0387,-4.1665,-4.2619,-4.2843,-4.4162,-4.514,-4.5264,-4.5264,-4.53,-4.5406,-4.5459,-4.5511,-4.5615,-4.5667,-4.5667,-4.5667,-4.5667,-4.5667,-4.5615,-4.5563,-4.5528,-4.5459,-4.5459,-4.5423,-4.5371,-4.5476,-4.5459,-4.5371,-4.5371,-4.5423,-4.5423,-4.5371,-4.5371,-4.5371,-4.5371,-4.5371,-4.5423,-4.5423,-4.5423,-4.5423,-4.5423,-4.5423,-4.5423,-4.5423,-4.5423,-4.5423,-4.5423,-4.5423,-4.5423,-4.5423,-4.5423,-4.5423,-4.5423,-4.601,-4.6803,-4.7527,-4.8286,-4.9045,-4.9838,-5.0011,-5.0011,-5.0011,-5.0011,-5.0011,-5.0011,-4.9935,-4.9935,-4.9935,-4.9877,-4.9801,-4.9649,-4.9649,-4.9649,-4.9649,-4.9801,-4.9935,-4.9935,-4.9935,-5.0011,-5.0011,-4.9935,-4.9935,-4.9935,-4.9935,-4.9801,-4.9649,-4.9649,-4.953,-4.9367,-4.9428,-4.9471,-4.9471,-4.929,-4.9168,-3.5041,-3.4994,0.0,0.0,0.0,0.0,0.0,0.0,0.0,0.0,0.0,-3.819,-3.9033,0.0,0.0,-4.0305,-4.0188,-4.007,-4.007,-4.1339,-4.2323,-4.2481,-4.3841,-4.4814,-4.4978,-4.4978,-4.4978,-4.4978,-4.5123,-4.5177,-4.5177,-4.53,-4.5371,-4.5371,-4.5423,-4.53,-4.5177,-4.53,-4.53,-4.5177,-4.5177,-4.5177,-4.5177,-4.5371,-4.5318,-4.5194,-4.5371,-4.5423,-4.5371,-4.5247,-4.5177,-4.5177,-4.5177,-4.53,-4.5423,-4.5423,-4.5423,-4.5423,-4.5371,-4.5371,-4.5371,-4.5423,-4.5423,-4.5423,-4.5423,-4.5423,-4.5423,-4.5423,-4.5423,-4.5423,-4.5423,-4.601,-4.6786,-4.7545,-4.8286,-4.9028,-4.9838,-5.0011,-5.0011,-5.0011,-5.0011,-5.0011,-5.0011,-4.986,-4.9708,-4.9708,-4.9607,-4.9488,-4.9488,-4.9488,-4.9488,-4.9488,-4.959,-4.9708,-4.9708,-4.986,-5.0011,-5.0011,-4.9784,-4.9708,-4.9708,-4.9708,-4.9649,-4.9488,-4.9488,-4.9307,-4.9001,-4.9307,-4.9307,-4.9001,-4.9471,-4.9411,-3.4804,-3.4851,0.0,0.0,0.0,0.0,0.0,0.0,0.0,0.0,0.0,-3.8125,-3.8918,0.0,0.0,-4.0138,-4.0138,-4.007,-4.007,-4.0916,-4.1764,-4.2413,-4.3382,-4.4269,-4.4944,-4.4978,-4.4978,-4.4978,-4.5032,-4.5086,-4.5086,-4.5086,-4.5086,-4.5086,-4.5194,-4.5247,-4.5177,-4.5247,-4.53,-4.5371,-4.514,-4.514,-4.5177,-4.5247,-4.5247,-4.5177,-4.5247,-4.5247,-4.5247,-4.514,-4.5086,-4.5086,-4.5177,-4.523,-4.5247,-4.5247,-4.5247,-4.5247,-4.514,-4.5086,-4.514,-4.5247,-4.5247,-4.53,-4.5371,-4.5423,-4.5423,-4.5423,-4.5423,-4.5371,-4.53,-4.5419,-4.5917,-4.7241,-4.7722,-4.8237,-4.9392,-4.9725,-4.9784,-4.9683,-4.9725,-4.9784,-4.9666,-4.9607,-4.953,-4.953,-4.9547,-4.9428,-4.929,-4.929,-4.929,-4.929,-4.9471,-4.953,-4.953,-4.9725,-4.9784,-4.9784,-4.9708,-4.9573,-4.9376,-4.9453,-4.935,-4.8968,-4.8968,-4.8984,-4.9001,-4.8627,-4.8673,-4.9107,-4.8673,-4.861,-3.4739,0.0,0.0,0.0,0.0,0.0,0.0,0.0,0.0,0.0,0.0,-3.8468,-3.9143,-3.9682,0.0,-4.0037,-4.0037,-4.0037,-4.007,-4.0679,-4.1457,-4.2308,-4.3141,-4.3905,-4.4763,-4.4831,-4.4831,-4.4831,-4.4886,-4.494,-4.494,-4.4978,-4.4978,-4.4978,-4.5086,-4.5086,-4.5032,-4.5086,-4.514,-4.5157,-4.4995,-4.4978,-4.5032,-4.5086,-4.5086,-4.5032,-4.5086,-4.5086,-4.5032,-4.4923,-4.494,-4.494,-4.5032,-4.5086,-4.514,-4.514,-4.514,-4.514,-4.5032,-4.4978,-4.5032,-4.514,-4.5177,-4.5247,-4.5371,-4.5371,-4.53,-4.53,-4.5264,-4.5194,-4.514,-4.514,-4.5449,-4.6683,-4.7141,-4.7689,-4.8846,-4.9342,-4.9607,-4.9547,-4.9547,-4.959,-4.953,-4.9411,-4.935,-4.935,-4.9367,-4.9246,-4.9107,-4.9107,-4.9107,-4.9107,-4.929,-4.935,-4.935,-4.953,-4.959,-4.959,-4.953,-4.9333,-4.9012,-4.9229,-4.9168,-4.8656,-4.8719,-4.8736,-4.8627,-4.8436,-4.8564,-4.8906,-4.861,-4.8483,0.0,0.0,0.0,0.0,0.0,0.0,0.0,0.0,0.0,0.0,0.0,-3.8992,-3.9543,-3.9781,-3.9901,-3.9849,-3.9901,-3.9952,-4.007,-4.056,-4.1199,-4.21,-4.2861,-4.3623,-4.4401,-4.4536,-4.4587,-4.4587,-4.4737,-4.4776,-4.4776,-4.4886,-4.4923,-4.4923,-4.4923,-4.4869,-4.4776,-4.4869,-4.4923,-4.4776,-4.4776,-4.4776,-4.4776,-4.494,-4.494,-4.4776,-4.494,-4.4886,-4.4776,-4.4776,-4.4776,-4.4776,-4.4793,-4.4886,-4.4978,-4.4978,-4.4978,-4.4978,-4.4978,-4.4978,-4.4978,-4.514,-4.5177,-4.5194,-4.5318,-4.53,-4.5177,-4.5177,-4.5086,-4.4978,-4.4978,-4.4978,-4.5149,-4.5832,-4.6618,-4.738,-4.8165,-4.8958,-4.9488,-4.9488,-4.9471,-4.9488,-4.9488,-4.929,-4.9168,-4.9168,-4.9063,-4.9001,-4.9001,-4.9001,-4.9001,-4.9001,-4.9107,-4.9168,-4.9168,-4.935,-4.9428,-4.9488,-4.929,-4.9029,-4.8702,-4.9029,-4.8984,-4.8483,-4.8753,-4.8627,-4.8066,-4.8564,-4.8673,-4.8483,-4.8844,-4.8673,0.0,0.0,0.0,0.0,0.0,0.0,0.0,0.0,0.0,0.0,-3.8137,-3.884,-3.9404,-3.9642,-3.9729,-3.959,-3.9677,-3.9781,-3.9935,-4.0035,-4.0457,-4.1356,-4.2083,-4.2828,-4.3589,-4.4215,-4.4587,-4.4587,-4.4643,-4.4626,-4.4626,-4.4536,-4.4463,-4.4463,-4.4575,-4.4558,-4.4558,-4.4558,-4.4686,-4.4793,-4.4536,-4.4463,-4.4575,-4.4759,-4.4831,-4.4776,-4.4831,-4.4793,-4.4626,-4.4626,-4.4626,-4.4626,-4.4776,-4.4831,-4.4831,-4.4831,-4.4831,-4.4831,-4.472,-4.4682,-4.4737,-4.4831,-4.4886,-4.494,-4.5049,-4.5086,-4.5032,-4.5032,-4.5032,-4.4995,-4.4886,-4.4831,-4.4882,-4.4924,-4.5977,-4.7206,-4.787,-4.8659,-4.9229,-4.9124,-4.9168,-4.9229,-4.9124,-4.9063,-4.9063,-4.9063,-4.9001,-4.9001,-4.9001,-4.9001,-4.9001,-4.9001,-4.9001,-4.9063,-4.9063,-4.8923,-4.8968,-4.9229,-4.8968,-4.8781,-4.8702,-4.8923,-4.8861,-4.8483,-4.8308,-4.8244,-4.8356,-4.7688,-4.7621,-4.8115,-4.7886,-4.7886,0.0,0.0,0.0,0.0,0.0,0.0,0.0,0.0,0.0,-3.7902,-3.8453,-3.9087,-3.9365,-3.9537,-3.959,-3.9501,-3.9537,-3.9642,-3.9798,-3.9781,-4.0118,-4.091,-4.1437,-4.2148,-4.3098,-4.3625,-4.4069,-4.4423,-4.44,-4.44,-4.444,-4.4327,-4.4196,-4.4196,-4.4253,-4.4293,-4.4293,-4.4293,-4.4367,-4.444,-4.427,-4.4253,-4.431,-4.4609,-4.4682,-4.4682,-4.4682,-4.4682,-4.4587,-4.4587,-4.4587,-4.4643,-4.4682,-4.4682,-4.4682,-4.4682,-4.4682,-4.4682,-4.4626,-4.4587,-4.4626,-4.4737,-4.4776,-4.4831,-4.4978,-4.494,-4.4869,-4.4869,-4.4886,-4.4776,-4.4592,-4.4536,-4.4536,-4.4497,-4.5432,-4.6581,-4.7225,-4.8013,-4.864,-4.8934,-4.9063,-4.9063,-4.9001,-4.9001,-4.9001,-4.9001,-4.9001,-4.9001,-4.9001,-4.9001,-4.9001,-4.9001,-4.9001,-4.894,-4.8736,-4.8656,-4.8593,-4.861,-4.8483,-4.8356,-4.8356,-4.85,-4.8356,-4.8016,-4.7984,-4.7984,-4.7951,-4.7638,-4.7654,-4.8001,-4.777,-4.7704,0.0,0.0,0.0,0.0,0.0,0.0,0.0,0.0,0.0,-3.8394,-3.898,-3.9432,-3.9325,-3.9379,-3.9448,-3.9448,-3.9448,-3.9484,-3.9642,-3.9677,-3.9912,-4.0531,-4.0927,-4.1586,-4.273,-4.3037,-4.3463,-4.4202,-4.4138,-4.4155,-4.4253,-4.4155,-4.4039,-4.3981,-4.3981,-4.3981,-4.3981,-4.3981,-4.3981,-4.4056,-4.4056,-4.4097,-4.4097,-4.44,-4.4514,-4.4514,-4.4514,-4.4514,-4.4514,-4.4514,-4.4514,-4.4514,-4.4514,-4.4514,-4.4514,-4.4514,-4.457,-4.457,-4.4587,-4.4587,-4.4626,-4.4737,-4.4793,-4.4793,-4.4886,-4.4831,-4.472,-4.472,-4.4626,-4.4457,-4.431,-4.4253,-4.4253,-4.4179,-4.4798,-4.5679,-4.6599,-4.7394,-4.8139,-4.8804,-4.8956,-4.894,-4.9001,-4.9001,-4.9001,-4.9001,-4.9001,-4.9001,-4.9001,-4.894,-4.894,-4.894,-4.8877,-4.869,-4.842,-4.8356,-4.8227,-4.8001,-4.7935,-4.7935,-4.7935,-4.7935,-4.7704,-4.7337,-4.7704,-4.7704,-4.7404,-4.7654,-4.7803,-4.7803,-4.7803,-4.7638,0.0,0.0,0.0,0.0,0.0,0.0,0.0,0.0,0.0,0.0,-3.9259,-3.9325,-3.9272,-3.9325,-3.9325,-3.9325,-3.9325,-3.9379,-3.9501,-3.9554,-3.9623,-3.9811,-4.045,-4.1188,-4.1971,-4.2624,-4.335,-4.4105,-4.4097,-4.4097,-4.4155,-4.3998,-4.3822,-4.3492,-4.3492,-4.3492,-4.3492,-4.3492,-4.3628,-4.3956,-4.3956,-4.3998,-4.4097,-4.4172,-4.4155,-4.4155,-4.4155,-4.4155,-4.4155,-4.4155,-4.4155,-4.4155,-4.4155,-4.4155,-4.4155,-4.431,-4.4367,-4.4367,-4.457,-4.4587,-4.457,-4.4626,-4.4643,-4.4626,-4.4626,-4.4497,-4.4367,-4.4367,-4.427,-4.4155,-4.4155,-4.4155,-4.4023,-4.3772,-4.4031,-4.4749,-4.6439,-4.7394,-4.8078,-4.8697,-4.8849,-4.8832,-4.9001,-4.9001,-4.9001,-4.9001,-4.9001,-4.9001,-4.9001,-4.8753,-4.8547,-4.8547,-4.8308,-4.8131,-4.8066,-4.777,-4.7688,-4.8001,-4.7704,-4.7488,-4.7488,-4.7488,-4.7354,-4.6945,-4.7286,-4.7471,-4.7404,-4.715,-4.703,-4.703,-4.703,-4.7014,0.0,0.0,0.0,0.0,0.0,0.0,0.0,0.0,0.0,-3.9272,-3.9272,-3.9272,-3.9272,-3.9272,-3.9272,-3.9272,-3.9272,-3.9325,-3.9379,-3.9432,-3.9484,-3.9484,-3.991,-4.0411,-4.1,-4.1421,-4.2144,-4.3297,-4.3248,-4.3431,-4.3981,-4.3628,-4.3372,-4.3251,-4.3052,-4.2974,-4.2974,-4.2974,-4.3113,-4.3432,-4.3251,-4.3312,-4.3535,-4.3339,-4.3595,-4.4097,-4.4097,-4.4097,-4.4097,-4.4097,-4.4097,-4.4097,-4.4097,-4.4097,-4.4097,-4.4155,-4.4196,-4.4212,-4.4384,-4.444,-4.444,-4.457,-4.4587,-4.457,-4.427,-4.4253,-4.4253,-4.4006,-4.4023,-4.4039,-4.3805,-4.3687,-4.3611,-4.3312,-4.3432,-4.4088,-4.5377,-4.6378,-4.7312,-4.8409,-4.8707,-4.8832,-4.8894,-4.8956,-4.9001,-4.9001,-4.8815,-4.8736,-4.8736,-4.8436,-4.8244,-4.8244,-4.8066,-4.7919,-4.7704,-4.7488,-4.7421,-4.737,-4.7218,-4.715,-4.715,-4.715,-4.7082,-4.6876,-4.7014,-4.715,-4.715,-4.6945,-4.6876,-4.6876,-4.6876,-4.6876,0.0,0.0,0.0,0.0,0.0,0.0,0.0,0.0,-3.9023,0.0,-3.9148,-3.9094,-3.9094,-3.9218,-3.9272,-3.9272,-3.9272,-3.9272,-3.9202,-3.9272,-3.9272,-3.9202,-3.9362,-3.9714,-4.0354,-4.0491,-4.1078,-4.2342,-4.2477,-4.2767,-4.3389,-4.3213,-4.3035,-4.2851,-4.2601,-4.2459,-4.2459,-4.2585,-4.271,-4.2974,-4.2743,-4.2743,-4.2974,-4.271,-4.3019,-4.3713,-4.3789,-4.3906,-4.3981,-4.3981,-4.3981,-4.3981,-4.3981,-4.3981,-4.3981,-4.4056,-4.4056,-4.4056,-4.4138,-4.4121,-4.4121,-4.4212,-4.4212,-4.4138,-4.3772,-4.3831,-4.4006,-4.3654,-4.3713,-4.3789,-4.3432,-4.3251,-4.3113,-4.2759,-4.2945,-4.3558,-4.4832,-4.5874,-4.6898,-4.8232,-4.85,-4.85,-4.8564,-4.8547,-4.861,-4.861,-4.842,-4.8292,-4.8292,-4.8033,-4.7853,-4.7853,-4.7787,-4.7571,-4.7286,-4.727,-4.715,-4.6945,-4.6876,-4.6876,-4.6876,-4.6876,-4.6876,-4.6876,-4.6876,-4.6876,-4.6876,-4.6876,-4.6876,-4.6876,-4.6876,-4.6876,0.0,0.0,0.0,0.0,0.0,0.0,0.0,0.0,0.0,-3.8969,-3.8805,-3.8639,-3.8639,-3.8985,-3.9272,-3.9272,-3.9272,-3.9218,-3.886,-3.886,-3.886,-3.8805,-3.886,-3.9265,-4.0315,-4.0382,-4.0696,-4.1425,-4.2121,-4.2402,-4.2124,-4.2736,-4.2789,-4.2174,-4.2109,-4.2109,-4.2109,-4.2459,-4.2585,-4.2648,-4.2585,-4.2585,-4.2648,-4.2585,-4.2648,-4.271,-4.3035,-4.3355,-4.3628,-4.3628,-4.3628,-4.3628,-4.3628,-4.3628,-4.3628,-4.3822,-4.3898,-4.3881,-4.3713,-4.3638,-4.3578,-4.3279,-4.3174,-4.3157,-4.3157,-4.3295,-4.3432,-4.3432,-4.3295,-4.3174,-4.3113,-4.2912,-4.2539,-4.2238,-4.2412,-4.3287,-4.5724,-4.6719,-4.7408,-4.8333,-4.8098,-4.7836,-4.7934,-4.7671,-4.7471,-4.7471,-4.7621,-4.777,-4.777,-4.7555,-4.7404,-4.7404,-4.715,-4.6961,-4.6961,-4.6961,-4.6945,-4.6876,-4.6876,-4.6876,-4.6876,-4.6876,-4.6876,-4.6876,-4.6876,-4.6876,-4.6876,-4.6876,-4.6876,-4.6876,-4.6876,-4.6876,0.0,0.0,0.0,0.0,0.0,0.0,0.0,-3.8091,-3.8132,-3.8286,-3.8286,-3.8286,-3.8286,-3.8678,-3.8931,-3.8727,-3.8876,-3.8876,-3.86,-3.8544,-3.8544,-3.8544,-3.8711,-3.8958,-3.9347,-3.9364,-3.966,-4.0384,-4.0525,-4.0694,-4.1043,-4.1079,-4.1206,-4.1421,-4.1263,-4.1341,-4.1785,-4.19,-4.2093,-4.2285,-4.2029,-4.2093,-4.2285,-4.2029,-4.2093,-4.2285,-4.2429,-4.2664,-4.2974,-4.2974,-4.3096,-4.3295,-4.3295,-4.3432,-4.3552,-4.3432,-4.3372,-4.3372,-4.319,-4.3129,-4.3129,-4.3113,-4.3113,-4.3035,-4.2743,-4.2821,-4.3023,-4.268,-4.2664,-4.2726,-4.2539,-4.2349,-4.2222,-4.2109,-4.2575,-4.3444,-4.5014,-4.5848,-4.6503,-4.734,-4.7404,-4.7321,-4.7388,-4.7404,-4.7404,-4.7555,-4.7354,-4.7286,-4.7488,-4.7134,-4.6929,-4.7082,-4.6876,-4.6738,-4.6738,-4.6738,-4.6738,-4.6738,-4.6807,-4.6876,-4.6876,-4.6876,-4.6876,-4.6876,-4.6738,-4.6738,-4.6876,-4.6876,-4.6876,-4.6876,-4.6876,-4.6876,-3.2989,0.0,0.0,0.0,0.0,0.0,0.0,0.0,-3.7626,-3.7786,-3.7828,-3.7828,-3.7828,-3.8116,-3.8343,-3.8319,-3.8472,-3.8455,-3.8091,-3.8107,-3.818,-3.818,-3.8359,-3.8511,-3.8639,-3.8655,-3.8851,-3.934,-3.9446,-3.9671,-3.9957,-3.9975,-4.0144,-4.0561,-4.0594,-4.0814,-4.1257,-4.1478,-4.172,-4.1916,-4.172,-4.172,-4.1916,-4.172,-4.172,-4.1916,-4.1916,-4.2158,-4.2585,-4.2585,-4.271,-4.2912,-4.2912,-4.3035,-4.3235,-4.3035,-4.2912,-4.2912,-4.268,-4.2634,-4.2634,-4.2601,-4.2601,-4.2539,-4.2238,-4.2381,-4.2571,-4.2174,-4.2285,-4.2412,-4.2174,-4.2045,-4.1916,-4.1916,-4.2648,-4.3543,-4.4292,-4.5121,-4.6018,-4.6747,-4.686,-4.6844,-4.6844,-4.686,-4.6876,-4.703,-4.6823,-4.6684,-4.6945,-4.6668,-4.6528,-4.6668,-4.6598,-4.6528,-4.6528,-4.6528,-4.6528,-4.6528,-4.6598,-4.6684,-4.6684,-4.6684,-4.6684,-4.6684,-4.6598,-4.6598,-4.6684,-4.6738,-4.6807,-4.6876,-4.6876,-4.6876,0.0,0.0,0.0,0.0,0.0,0.0,-3.7134,0.0,-3.7417,-3.7642,-3.7389,-3.7194,-3.7194,-3.7298,-3.7535,-3.7985,-3.8042,-3.7927,-3.7476,-3.7567,-3.77,-3.77,-3.7786,-3.8017,-3.8335,-3.8391,-3.8408,-3.8408,-3.9055,-3.9253,-3.8894,-3.9582,-3.9782,-3.9471,-4.0182,-4.0577,-4.0577,-4.1225,-4.1557,-4.1557,-4.1573,-4.1588,-4.1588,-4.1588,-4.1588,-4.1588,-4.1588,-4.1964,-4.2585,-4.2585,-4.2585,-4.2585,-4.2585,-4.2585,-4.2585,-4.2585,-4.2585,-4.2522,-4.2238,-4.2109,-4.2045,-4.172,-4.1588,-4.1588,-4.1588,-4.1851,-4.2109,-4.2109,-4.2109,-4.2109,-4.2109,-4.1851,-4.1588,-4.162,-4.2695,-4.3737,-4.3753,-4.4813,-4.5982,-4.6747,-4.6512,-4.6301,-4.6301,-4.5992,-4.5807,-4.5807,-4.5952,-4.6112,-4.6096,-4.6223,-4.6278,-4.6262,-4.6278,-4.6262,-4.6262,-4.6262,-4.6262,-4.6262,-4.6262,-4.6262,-4.6262,-4.6262,-4.6262,-4.6262,-4.6278,-4.6278,-4.6262,-4.6528,-4.6668,-4.6876,-4.6892,-4.6876,-3.4183,0.0,0.0,0.0,0.0,0.0,0.0,0.0,-3.6785,-3.68,-3.6846,-3.6831,-3.6831,-3.6968,-3.7105,-3.7074,-3.7358,-3.7476,-3.7165,-3.7181,-3.7181,-3.7181,-3.7524,-3.7817,-3.7876,-3.7976,-3.8017,-3.8017,-3.8051,-3.7987,-3.7868,-3.8534,-3.8853,-3.8792,-3.9455,-3.9803,-3.9803,-4.0514,-4.0877,-4.0877,-4.1367,-4.1588,-4.1588,-4.1588,-4.1588,-4.1588,-4.1588,-4.172,-4.19,-4.19,-4.2029,-4.2222,-4.2222,-4.2412,-4.2585,-4.2349,-4.2222,-4.2158,-4.1851,-4.172,-4.172,-4.1654,-4.1588,-4.1588,-4.1588,-4.1654,-4.172,-4.172,-4.172,-4.172,-4.172,-4.1654,-4.1715,-4.2252,-4.3074,-4.3848,-4.4338,-4.5144,-4.5842,-4.6032,-4.5992,-4.5936,-4.5936,-4.5864,-4.588,-4.5968,-4.5952,-4.5952,-4.6207,-4.6152,-4.6152,-4.6262,-4.6223,-4.6168,-4.6168,-4.6168,-4.6168,-4.6168,-4.6278,-4.6262,-4.6262,-4.6262,-4.6262,-4.6262,-4.6223,-4.6223,-4.6262,-4.6333,-4.6404,-4.6474,-4.6598,-4.6652,-3.4891,-3.5399,-3.5907,-3.5907,0.0,0.0,-3.6492,-3.6492,-3.6492,0.0,-3.6554,-3.6616,-3.6616,-3.6739,-3.6739,-3.6616,-3.6846,-3.6968,-3.68,-3.6877,-3.6938,-3.6862,-3.7181,-3.7421,-3.7421,-3.7449,-3.7551,-3.7594,-3.7433,-3.7405,-3.748,-3.7859,-3.8081,-3.8081,-3.8728,-3.9092,-3.9092,-3.9787,-4.0293,-4.0609,-4.1004,-4.132,-4.1588,-4.1588,-4.1588,-4.1588,-4.1588,-4.1588,-4.1588,-4.1588,-4.172,-4.1916,-4.1916,-4.2029,-4.2142,-4.1964,-4.1916,-4.1851,-4.1654,-4.1588,-4.1588,-4.1588,-4.1588,-4.1588,-4.1588,-4.1588,-4.1588,-4.1588,-4.1588,-4.1588,-4.1588,-4.1588,-4.1778,-4.2505,-4.3216,-4.388,-4.4575,-4.5286,-4.5807,-4.5807,-4.5807,-4.5807,-4.5807,-4.5807,-4.5807,-4.5968,-4.5896,-4.588,-4.608,-4.6024,-4.6024,-4.6064,-4.6024,-4.5952,-4.5952,-4.5952,-4.5952,-4.5952,-4.608,-4.6064,-4.6064,-4.6064,-4.6064,-4.6064,-4.6024,-4.6024,-4.6064,-4.6152,-4.6278,-4.6262,-4.6388,-4.6458,-3.5476,-3.5922,-3.6399,-3.6476,-3.6492,0.0,-3.6492,-3.6492,-3.6492,0.0,-3.6492,-3.6492,-3.6492,-3.6492,-3.6492,-3.6492,-3.6492,-3.6492,-3.6492,-3.6754,-3.6877,-3.6723,-3.6862,-3.6938,-3.6938,-3.7015,-3.706,-3.7194,-3.7194,-3.727,-3.7421,-3.748,-3.748,-3.748,-3.8081,-3.8397,-3.8397,-3.906,-3.9724,-4.0372,-4.0451,-4.083,-4.1478,-4.1478,-4.1525,-4.1588,-4.1588,-4.1588,-4.1588,-4.1588,-4.1588,-4.1588,-4.1588,-4.1588,-4.1588,-4.1588,-4.1588,-4.1588,-4.1588,-4.1588,-4.1588,-4.1588,-4.1588,-4.1588,-4.1588,-4.1588,-4.1588,-4.1588,-4.1588,-4.1588,-4.1588,-4.1588,-4.1794,-4.2616,-4.3248,-4.3895,-4.467,-4.5349,-4.5807,-4.5807,-4.5807,-4.5807,-4.5807,-4.5807,-4.5807,-4.5807,-4.5807,-4.5807,-4.5807,-4.5807,-4.5807,-4.5807,-4.5807,-4.5807,-4.5807,-4.5807,-4.5807,-4.5807,-4.5807,-4.5807,-4.5807,-4.5807,-4.5807,-4.5807,-4.5807,-4.5807,-4.5807,-4.5968,-4.6168,-4.6278,-4.6278,-4.6278,-3.5476,-3.5584,-3.5814,-3.6353,-3.6492,0.0,-3.6492,-3.6492,-3.6492,0.0,-3.6492,-3.6492,-3.6492,-3.6492,-3.6492,-3.6492,-3.66,-3.66,-3.6492,-3.6554,-3.6554,-3.6554,-3.6662,-3.6785,-3.6785,-3.6877,-3.6999,-3.706,-3.706,-3.706,-3.7076,-3.721,-3.7254,-3.7254,-3.7531,-3.7686,-3.7686,-3.8365,-3.8776,-3.8934,-3.9471,-4.0087,-4.0798,-4.0798,-4.1083,-4.1588,-4.1588,-4.1588,-4.1588,-4.1588,-4.1588,-4.1588,-4.1588,-4.1588,-4.1588,-4.1588,-4.1588,-4.1588,-4.1588,-4.1588,-4.1588,-4.1588,-4.1588,-4.1588,-4.1588,-4.1588,-4.1588,-4.1588,-4.1588,-4.1588,-4.1588,-4.1588,-4.1904,-4.3184,-4.3595,-4.4069,-4.5317,-4.5713,-4.5807,-4.5807,-4.5807,-4.5807,-4.5807,-4.5807,-4.5807,-4.5807,-4.5807,-4.5807,-4.5807,-4.5807,-4.5807,-4.5807,-4.5807,-4.5807,-4.5807,-4.5807,-4.5807,-4.5807,-4.5807,-4.5807,-4.5807,-4.5807,-4.5807,-4.5807,-4.5807,-4.5807,-4.5807,-4.5807,-4.588,-4.588,-4.6096,-4.6168,-3.482,-3.5033,-3.5416,-3.5753,-3.6168,0.0,0.0,-3.6492,-3.6492,-3.6492,-3.6492,-3.6492,-3.6492,-3.6492,-3.6492,-3.6492,-3.6554,-3.66,-3.6492,-3.6554,-3.6538,-3.6492,-3.6554,-3.66,-3.66,-3.6677,-3.6754,-3.6862,-3.6938,-3.7015,-3.7015,-3.7044,-3.7105,-3.7105,-3.727,-3.7329,-3.7329,-3.7752,-3.8175,-3.8507,-3.8855,-3.9376,-4.0056,-4.0435,-4.0783,-4.1114,-4.1446,-4.1588,-4.1588,-4.1588,-4.1588,-4.1588,-4.1588,-4.1588,-4.1588,-4.1588,-4.1588,-4.1588,-4.1588,-4.1588,-4.1588,-4.1588,-4.1588,-4.1588,-4.1588,-4.1588,-4.1588,-4.1588,-4.1588,-4.1588,-4.1588,-4.1857,-4.2394,-4.3453,-4.3959,-4.4512,-4.5586,-4.5807,-4.5807,-4.5807,-4.5807,-4.5807,-4.5807,-4.5807,-4.5807,-4.5807,-4.5807,-4.5807,-4.5807,-4.5807,-4.5807,-4.5807,-4.5807,-4.5807,-4.5807,-4.5807,-4.5807,-4.5807,-4.5807,-4.5807,-4.5807,-4.5807,-4.5807,-4.5807,-4.5807,-4.5807,-4.5807,-4.5807,-4.5807,-4.5807,-4.588,-4.5952,-3.4288,-3.4592,-3.5019,-3.5324,-3.5937,-3.6429,0.0,0.0,0.0,-3.6492,-3.6492,-3.6492,0.0,0.0,0.0,-3.6322,0.0,0.0,0.0,-3.6523,0.0,-3.6492,-3.6492,-3.6492,-3.6492,-3.6492,-3.6538,-3.6662,-3.68,-3.6877,-3.6877,-3.6938,-3.6938,-3.6938,-3.7089,-3.7194,-3.7194,-3.7345,-3.7705,-3.8241,-3.8257,-3.8542,-3.9251,-3.9866,-4.0276,-4.056,-4.1162,-4.1478,-4.1588,-4.1588,-4.1588,-4.1588,-4.1588,-4.1588,-4.1588,-4.1588,-4.1588,-4.1588,-4.1588,-4.1588,-4.1588,-4.1588,-4.1588,-4.1588,-4.1588,-4.1588,-4.1588,-4.1588,-4.1588,-4.162,-4.1762,-4.2236,-4.29,-4.3722,-4.4322,-4.4907,-4.5649,-4.5807,-4.5807,-4.5807,-4.5807,-4.5807,-4.5807,-4.5807,-4.5807,-4.5807,-4.5807,-4.5807,-4.5807,-4.5807,-4.5807,-4.5807,-4.5807,-4.5807,-4.5807,-4.5807,-4.5807,-4.5807,-4.5807,-4.5807,-4.5807,-4.5807,-4.5807,-4.5807,-4.5807,-4.5807,-4.5807,-4.5807,-4.5807,-4.5807,-4.5807,-4.5807,-3.4652,-3.4547,-3.444,-3.5736,-3.615,-3.6274,-3.6492,0.0,-3.6492,-3.6492,0.0,-3.6492,-3.6492,0.0,0.0,-3.5691,-3.6107,-3.6276,-3.5691,-3.6107,-3.6492,-3.6492,-3.6492,-3.6492,-3.6492,-3.6492,-3.6492,-3.6492,-3.6554,-3.6554,-3.6554,-3.6662,-3.6723,-3.6723,-3.6923,-3.7105,-3.7194,-3.7105,-3.7152,-3.738,-3.723,-3.7529,-3.8169,-3.8466,-3.9235,-4.0368,-4.0592,-4.1051,-4.1588,-4.1588,-4.1588,-4.1588,-4.1588,-4.1588,-4.1588,-4.1588,-4.1588,-4.1588,-4.1588,-4.1588,-4.1588,-4.1588,-4.1588,-4.1588,-4.1588,-4.1588,-4.1588,-4.1588,-4.1588,-4.1746,-4.2394,-4.2631,-4.3011,-4.429,-4.4654,-4.4907,-4.5649,-4.5807,-4.5807,-4.5807,-4.5807,-4.5807,-4.5807,-4.5807,-4.5807,-4.5807,-4.5807,-4.5807,-4.5807,-4.5807,-4.5807,-4.5807,-4.5807,-4.5807,-4.5807,-4.5807,-4.5807,-4.5807,-4.5807,-4.5807,-4.5807,-4.5807,-4.5807,-4.5807,-4.5807,-4.5807,-4.5807,-4.5807,-4.5807,-4.5807,-4.5807,-4.5807,-3.4014,-3.4241,-3.4437,-3.5167,-3.5591,-3.5943,-3.6163,-3.6226,-3.6226,-3.6289,0.0,0.0,0.0,0.0,0.0,0.0,-3.6307,-3.6384,0.0,0.0,-3.6492,-3.6492,-3.6492,-3.6492,-3.6492,-3.6492,-3.6492,-3.6492,-3.6492,-3.6492,-3.6492,-3.6554,-3.66,-3.66,-3.6739,-3.6846,-3.6892,-3.6984,-3.706,-3.7105,-3.6999,-3.7155,-3.7436,-3.7888,-3.8435,-3.9014,-3.9924,-4.0491,-4.0889,-4.1283,-4.1456,-4.1456,-4.1522,-4.1588,-4.1588,-4.1588,-4.1588,-4.1588,-4.1588,-4.1588,-4.1588,-4.1588,-4.1588,-4.1588,-4.1588,-4.1588,-4.1588,-4.1588,-4.1889,-4.2299,-4.2616,-4.3279,-4.4006,-4.4575,-4.5049,-4.5428,-4.5744,-4.5807,-4.5807,-4.5807,-4.5807,-4.5807,-4.5807,-4.5807,-4.5807,-4.5807,-4.5807,-4.5807,-4.5807,-4.5807,-4.5807,-4.5807,-4.5807,-4.5807,-4.5807,-4.5807,-4.5807,-4.5807,-4.5807,-4.5807,-4.5807,-4.5807,-4.5807,-4.5807,-4.5807,-4.5807,-4.5807,-4.5807,-4.5807,-4.5807,-4.5807,-4.5807,-3.3868,-3.4185,-3.4517,-3.4871,-3.5326,-3.5752,-3.5973,-3.5973,-3.6037,-3.6148,-3.6148,0.0,0.0,0.0,-3.643,-3.6245,0.0,-3.643,-3.6245,-3.6368,-3.6492,-3.6492,-3.6492,-3.6492,-3.6492,-3.6492,-3.6492,-3.6492,-3.6492,-3.6492,-3.6492,-3.6492,-3.6492,-3.6492,-3.66,-3.6662,-3.6723,-3.68,-3.6877,-3.6938,-3.6877,-3.6877,-3.6893,-3.7421,-3.7748,-3.7982,-3.9074,-3.9778,-4.0285,-4.0786,-4.11,-4.1272,-4.1456,-4.1522,-4.1472,-4.1588,-4.1588,-4.1522,-4.1588,-4.1588,-4.1588,-4.1588,-4.1588,-4.1588,-4.1588,-4.1588,-4.1588,-4.1588,-4.2126,-4.2726,-4.2916,-4.3832,-4.4764,-4.4954,-4.5428,-4.5807,-4.5807,-4.5807,-4.5807,-4.5807,-4.5807,-4.5807,-4.5807,-4.5807,-4.5807,-4.5807,-4.5807,-4.5807,-4.5807,-4.5807,-4.5807,-4.5807,-4.5807,-4.5807,-4.5807,-4.5807,-4.5807,-4.5807,-4.5807,-4.5807,-4.5807,-4.5807,-4.5807,-4.5807,-4.5807,-4.5807,-4.5807,-4.5807,-4.5807,-4.5807,-4.5807,-4.5807,-3.4845,-3.4679,-3.4465,-3.5428,-3.5672,-3.5752,-3.5973,-3.5973,-3.5973,-3.6037,-3.6085,-3.6196,-3.6211,-3.6352,-3.6276,-3.563,-3.6061,0.0,0.0,-3.6076,-3.6492,-3.6492,-3.6492,-3.6492,-3.6492,-3.6492,-3.6492,-3.6492,-3.6492,-3.6492,-3.6492,-3.6492,-3.6492,-3.6492,-3.6492,-3.6554,-3.6723,-3.6554,-3.66,-3.6723,-3.6554,-3.6492,-3.6492,-3.6677,-3.7111,-3.7809,-3.7966,-3.8824,-4.0088,-4.0119,-4.0509,-4.1102,-4.1272,-4.1205,-4.1169,-4.1472,-4.1456,-4.1323,-4.1522,-4.1588,-4.1588,-4.1588,-4.1588,-4.1588,-4.1588,-4.1588,-4.1588,-4.1588,-4.2126,-4.2837,-4.3485,-4.418,-4.4891,-4.5602,-4.5792,-4.5807,-4.5807,-4.5807,-4.5807,-4.5807,-4.5807,-4.5807,-4.5807,-4.5807,-4.5807,-4.5807,-4.5807,-4.5807,-4.5807,-4.5807,-4.5807,-4.5807,-4.5807,-4.5807,-4.5807,-4.5807,-4.5807,-4.5807,-4.5807,-4.5807,-4.5807,-4.5807,-4.5807,-4.5807,-4.5807,-4.5807,-4.5807,-4.5807,-4.5807,-4.5807,-4.5807,-4.5807,-3.4758,-3.4787,-3.4669,-3.5219,-3.5249,-3.5249,-3.5604,-3.5683,-3.5668,-3.5767,-3.5816,-3.5879,-3.6022,-3.61,-3.6087,-3.5873,-3.6026,-3.615,0.0,-3.6276,-3.6322,-3.5876,-3.6215,-3.6492,-3.6492,-3.6352,-3.6352,-3.6492,-3.6352,-3.6274,-3.6274,-3.6274,-3.6289,-3.6163,-3.6289,-3.6336,-3.6399,-3.6476,-3.6492,-3.6554,-3.6492,-3.6492,-3.6492,-3.6554,-3.6677,-3.6986,-3.7434,-3.801,-3.865,-3.9567,-4.0064,-4.0313,-4.0914,-4.095,-4.0746,-4.1256,-4.1339,-4.1153,-4.1339,-4.1522,-4.1588,-4.1588,-4.1522,-4.139,-4.139,-4.1339,-4.1397,-4.1987,-4.2601,-4.3362,-4.418,-4.4891,-4.5507,-4.576,-4.5807,-4.5807,-4.5807,-4.5807,-4.5807,-4.5807,-4.5807,-4.5807,-4.5807,-4.5807,-4.5807,-4.5807,-4.5807,-4.5807,-4.5807,-4.5807,-4.5807,-4.5807,-4.5807,-4.5807,-4.5807,-4.5807,-4.5807,-4.5807,-4.5807,-4.5807,-4.5807,-4.5807,-4.5807,-4.5807,-4.5807,-4.5807,-4.5807,-4.5807,-4.5807,-4.5807,-4.5807,-4.5807,-3.4389,-3.4601,-3.4765,-3.5016,-3.5001,-3.5001,-3.5294,-3.5359,-3.5424,-3.5589,-3.5638,-3.5752,-3.5894,-3.5973,-3.5973,-3.5973,-3.5973,-3.6037,0.0,-3.6226,-3.6136,-3.5707,-3.5953,-3.6122,-3.6061,-3.5983,-3.6029,-3.6274,-3.6289,-3.6211,-3.6148,-3.6148,-3.6085,-3.5973,-3.6085,-3.6148,-3.6196,-3.6352,-3.6414,-3.6492,-3.6492,-3.6492,-3.6492,-3.6492,-3.6492,-3.6507,-3.6953,-3.734,-3.776,-3.8642,-3.9276,-3.9756,-4.0422,-4.0597,-4.0524,-4.107,-4.1153,-4.1117,-4.1221,-4.1339,-4.1406,-4.1406,-4.1339,-4.1205,-4.1205,-4.1153,-4.1304,-4.2363,-4.2926,-4.3545,-4.4573,-4.5243,-4.5589,-4.5662,-4.5662,-4.5735,-4.5807,-4.5807,-4.5807,-4.5807,-4.5807,-4.5807,-4.5807,-4.5807,-4.5807,-4.5807,-4.5807,-4.5807,-4.5807,-4.5807,-4.5807,-4.5807,-4.5807,-4.5807,-4.5807,-4.5807,-4.5807,-4.5807,-4.5807,-4.5807,-4.5807,-4.5807,-4.5807,-4.5807,-4.5807,-4.5807,-4.5807,-4.5807,-4.5807,-4.5807,-4.5807,-4.5807]}]]